[[{"header":{"parameterUnit":"m.s-1","parameterCategory":1,"la1":31.0,"la2":29.5877,"lo1":-88.7671,"lo2":-86.6584,"dy":0.0162,"dx":0.0185,"nx":115,"ny":88,"refTime":"2024-04-29T18:00:00:Z","depth":0,"parameterNumber":2,"parameterNumberName":"U-component_of_WINDS"},"data":[0.0,0.0,0.0,0.0,0.0,0.0,0.0,0.0,0.0,0.0,0.0,0.0,0.0,0.0,0.0,0.0,0.0,0.0,0.0,0.0,0.0,0.0,0.0,0.0,0.0,0.0,0.0,0.0,0.0,0.0,0.0,0.0,0.0,0.0,0.0,0.0,0.0,0.0,0.0,0.0,0.0,0.0,0.0,0.0,0.0,0.0,0.0,0.0,0.0,0.0,0.0,0.0,0.0,0.0,0.0,0.0,0.0,0.0,0.0,0.0,0.0,0.0,0.0,0.0,0.0,0.0,0.0,0.0,0.0,0.0,0.0,0.0,0.0,0.0,0.0,0.0,0.0,0.0,0.0,0.0,0.0,0.0,0.0,0.0,0.0,0.0,0.0,0.0,0.0,0.0,0.0,0.0,0.0,0.0,0.0,0.0,0.0,0.0,0.0,0.0,0.0,0.0,0.0,0.0,0.0,0.0,0.0,0.0,0.0,0.0,0.0,0.0,0.0,0.0,0.0,0.0,0.0,0.0,0.0,0.0,0.0,0.0,0.0,0.0,0.0,0.0,0.0,0.0,0.0,0.0,0.0,0.0,0.0,0.0,0.0,0.0,0.0,0.0,0.0,0.0,0.0,0.0,0.0,0.0,0.0,0.0,0.0,0.0,0.0,0.0,0.0,0.0,0.0,0.0,0.0,0.0,0.0,0.0,0.0,0.0,0.0,0.0,0.0,0.0,0.0,0.0,0.0,0.0,0.0,0.0,0.0,0.0,0.0,0.0,0.0,0.0,0.0,0.0,0.0,0.0,0.0,0.0,0.0,0.0,0.0,0.0,0.0,0.0,0.0,0.0,0.0,0.0,0.0,0.0,0.0,0.0,0.0,0.0,0.0,0.0,0.0,0.0,0.0,0.0,0.0,0.0,0.0,0.0,0.0,0.0,0.0,0.0,0.0,0.0,0.0,0.0,0.0,0.0,0.0,0.0,0.0,0.0,0.0,0.0,0.0,0.0,0.0,0.0,0.0,0.0,0.0,0.0,0.0,0.0,0.0,0.0,0.0,0.0,0.0,0.0,0.0,0.0,0.0,0.0,0.0,0.0,0.0,0.0,0.0,0.0,0.0,0.0,0.0,0.0,0.0,0.0,0.0,0.0,0.0,0.0,0.0,0.0,0.0,0.0,0.0,0.0,0.0,0.0,0.0,0.0,0.0,0.0,0.0,0.0,0.0,0.0,0.0,0.0,0.0,0.0,0.0,0.0,0.0,0.0,0.0,0.0,0.0,0.0,0.0,0.0,0.0,0.0,0.0,0.0,0.0,0.0,0.0,0.0,0.0,0.0,0.0,0.0,0.0,0.0,0.0,0.0,0.0,0.0,0.0,0.0,0.0,0.0,0.0,0.0,0.0,0.0,0.0,0.0,0.0,0.0,0.0,0.0,0.0,0.0,0.0,0.0,0.0,0.0,0.0,0.0,0.0,0.0,0.0,0.0,0.0,0.0,0.0,0.0,0.0,0.0,0.0,0.0,0.0,0.0,0.0,0.0,0.0,0.0,0.0,0.0,0.0,0.0,0.0,0.0,0.0,0.0,0.0,0.0,0.0,0.0,0.0,0.0,0.0,0.0,0.0,0.0,0.0,0.0,0.0,0.0,0.0,0.0,0.0,0.0,0.0,0.0,0.0,0.0,0.0,0.0,0.0,0.0,0.0,0.0,0.0,0.0,0.0,0.0,0.0,0.0,0.0,0.0,0.0,0.0,0.0,0.0,0.0,0.0,0.0,0.0,0.0,0.0,0.0,0.0,0.0,0.0,0.0,0.0,0.0,0.0,0.0,0.0,0.0,0.0,0.0,0.0,0.0,0.0,0.0,0.0,0.0,0.0,0.0,0.0,0.0,0.0,0.0,0.0,0.0,0.0,0.0,0.0,0.0,0.0,0.0,0.0,0.0,0.0,0.0,0.0,0.0,0.0,0.0,0.0,0.0,0.0,0.0,0.0,0.0,0.0,0.0,0.0,0.0,0.0,0.0,0.0,0.0,0.0,0.0,0.0,0.0,0.0,0.0,0.0,0.0,0.0,0.0,0.0,0.0,0.0,0.0,0.0,0.0,0.0,0.0,0.0,0.0,0.0,0.0,0.0,0.0,0.0,0.0,0.0,0.0,0.0,0.0,0.0,0.0,0.0,0.0,0.0,0.0,0.0,0.0,0.0,0.0,0.0,0.0,0.0,0.0,0.0,0.0,0.0,0.0,0.0,0.0,0.0,0.0,0.0,0.0,0.0,0.0,0.0,0.0,0.0,0.0,0.0,0.0,0.0,0.0,0.0,0.0,0.0,0.0,0.0,0.0,0.0,0.0,0.0,0.0,0.0,0.0,0.0,0.0,0.0,0.0,0.0,0.0,0.0,0.0,0.0,0.0,0.0,0.0,0.0,0.0,0.0,0.0,0.0,0.0,0.0,0.0,0.0,0.0,0.0,0.0,0.0,0.0,0.0,0.0,0.0,0.0,0.0,0.0,0.0,0.0,0.0,0.0,0.0,0.0,0.0,0.0,0.0,0.0,0.0,0.0,0.0,0.0,0.0,0.0,0.0,0.0,0.0,0.0,0.0,0.0,0.0,0.0,0.0,0.0,0.0,0.0,0.0,0.0,0.0,0.0,0.0,0.0,0.0,0.0,0.0,0.0,0.0,0.0,0.0,0.0,0.0,0.0,0.0,0.0,0.0,0.0,0.0,0.0,0.0,0.0,0.0,0.0,0.0,0.0,0.0,0.0,0.0,0.0,0.0,0.0,0.0,0.0,0.0,0.0,0.0,0.0,0.0,0.0,0.0,0.0,0.0,0.0,0.0,0.0,0.0,0.0,0.0,0.0,0.0,0.0,0.0,0.0,0.0,0.0,0.0,0.0,0.0,0.0,0.0,0.0,0.0,0.0,0.0,0.0,0.0,0.0,0.0,0.0,0.0,0.0,0.0,0.0,0.0,0.0,0.0,0.0,0.0,0.0,0.0,0.0,0.0,0.0,0.0,0.0,0.0,0.0,0.0,0.0,0.0,0.0,0.0,0.0,0.0,0.0,0.0,0.0,0.0,0.0,0.0,0.0,0.0,0.0,0.0,0.0,0.0,0.0,0.0,0.0,0.0,0.0,0.0,0.0,0.0,0.0,0.0,0.0,0.0,0.0,0.0,0.0,0.0,0.0,0.0,0.0,0.0,0.0,0.0,0.0,0.0,0.0,0.0,0.0,0.0,0.0,0.0,0.0,0.0,0.0,0.0,0.0,0.0,0.0,0.0,0.0,0.0,0.0,0.0,0.0,0.0,0.0,0.0,0.0,0.0,0.0,0.0,0.0,0.0,0.0,0.0,0.0,0.0,0.0,0.0,0.0,0.0,0.0,0.0,0.0,0.0,0.0,0.0,0.0,0.0,0.0,0.0,0.0,0.0,0.0,0.0,0.0,0.0,0.0,0.0,0.0,0.0,0.0,0.0,0.0,0.0,0.0,0.0,0.0,0.0,0.0,0.0,0.0,0.0,0.0,0.0,0.0,0.0,0.0,0.0,0.0,0.0,0.0,0.0,0.0,0.0,0.0,0.0,0.0,0.0,0.0,0.0,0.0,0.0,0.0,0.0,0.0,0.0,0.0,0.0,0.0,0.0,0.0,0.0,0.0,0.0,0.0,0.0,0.0,0.0,0.0,0.0,0.0,0.0,0.0,0.0,0.0,0.0,0.0,0.0,0.0,0.0,0.0,0.0,0.0,0.0,0.0,0.0,0.0,0.0,0.0,0.0,0.0,0.0,0.0,0.0,0.0,0.0,0.0,0.0,0.0,0.0,0.0,0.0,0.0,0.0,0.0,0.0,0.0,0.0,0.0,0.0,0.0,0.0,0.0,0.0,0.0,0.0,0.0,0.0,0.0,0.0,0.0,0.0,0.0,0.0,0.0,0.0,0.0,0.0,0.0,0.0,0.0,0.0,0.0,0.0,0.0,0.0,0.0,0.0,0.0,0.0,0.0,0.0,0.0,0.0,0.0,0.0,0.0,0.0,0.0,0.0,0.0,0.0,0.0,0.0,0.0,0.0,0.0,0.0,0.0,0.0,0.0,0.0,0.0,0.0,0.0,0.0,0.0,0.0,0.0,0.0,0.0,0.0,0.0,0.0,0.0,0.0,0.0,0.0,0.0,0.0,0.0,0.0,0.0,0.0,0.0,0.0,0.0,0.0,0.0,0.0,0.0,0.0,0.0,0.0,0.0,0.0,0.0,0.0,0.0,0.0,0.0,0.0,0.0,0.0,0.9415,0.0,0.0,0.0,0.0,0.0,0.0,0.0,0.0,0.0,0.0,0.0,0.0,0.0,0.0,0.0,0.0,0.0,0.0,0.0,0.0,0.0,0.0,0.0,0.0,0.0,0.0,0.0,0.0,0.0,0.0,0.0,0.0,0.0,0.0,0.0,0.0,0.0,0.0,0.0,0.0,0.0,0.0,0.0,0.0,0.0,0.0,0.0,0.0,0.0,0.0,0.0,0.0,0.0,0.0,0.0,0.0,0.0,0.0,0.0,0.0,0.0,0.0,0.0,0.0,0.0,0.0,0.0,0.0,0.0,0.0,0.0,0.0,0.0,0.0,0.0,0.0,0.0,0.0,0.0,0.0,0.0,0.0,0.0,0.0,0.0,0.0,0.0,0.0,0.0,0.0,0.0,0.0,0.0,0.0,0.0,0.0,0.0,0.0,0.0,0.0,0.0,0.0,0.0,0.0,0.0,0.0,0.0,0.0,0.0,0.0,0.9278,0.933,0.9575,0.9714,0.9732,0.0,0.0,0.0,0.0,0.0,0.0,0.0,0.0,0.0,0.0,0.0,0.0,0.0,0.0,0.0,0.0,0.0,0.0,0.0,0.0,0.0,0.0,0.0,0.0,0.0,0.0,0.0,0.0,0.0,0.0,0.0,0.0,0.0,0.0,0.0,0.0,0.0,0.0,0.0,0.0,0.0,0.0,0.0,0.0,0.0,0.0,0.0,0.0,0.0,0.0,0.0,0.0,0.0,0.0,0.0,0.0,0.0,0.0,0.0,0.0,0.0,0.0,0.0,0.0,0.0,0.0,0.0,0.0,0.0,0.0,0.0,0.0,0.0,0.0,0.0,0.0,0.0,0.0,0.0,0.0,0.0,0.0,0.0,0.0,0.0,0.0,0.0,0.0,0.0,0.0,0.0,0.0,0.0,0.0,0.0,0.0,0.0,0.0,0.0,0.0,0.0,0.0,0.0,0.0,0.0,0.0,0.0,0.0,0.0,0.0,0.0,0.0,1.0009,1.008,1.0291,0.0,0.0,0.0,0.0,0.0,0.0,0.0,0.0,0.0,0.0,0.0,0.0,0.0,0.0,0.0,0.0,0.0,0.0,0.0,0.0,0.0,0.0,0.0,0.0,0.0,0.0,0.0,0.0,0.0,0.0,0.0,0.0,0.0,0.0,0.0,0.0,0.0,0.0,0.0,0.0,0.0,0.0,0.0,0.0,0.0,0.0,0.0,0.0,0.0,0.0,0.0,0.0,0.0,0.0,0.0,0.0,0.0,0.0,0.0,0.0,0.0,0.0,0.0,0.0,0.0,0.0,0.0,0.0,0.0,0.0,0.0,0.0,0.0,0.0,0.0,0.0,0.0,0.0,0.0,0.0,0.0,0.0,0.0,0.0,0.0,0.0,0.0,0.0,0.0,0.0,0.0,0.0,0.0,0.0,0.0,0.0,0.0,0.0,0.0,0.0,0.0,0.0,0.0,0.0,0.0,0.0,0.0,0.0,0.0,0.0,1.0075,1.0856,1.0864,0.0,1.1927,0.0,0.0,0.0,0.0,0.0,0.0,0.0,0.0,0.0,0.0,0.0,0.0,0.0,0.0,0.0,0.0,0.0,0.0,0.0,0.0,0.0,0.0,0.0,0.0,0.0,0.0,0.0,0.0,0.0,0.0,0.0,0.0,0.0,0.0,0.0,0.0,0.0,0.0,0.0,0.0,0.0,0.0,0.0,0.0,0.0,0.0,0.0,0.0,0.0,0.0,0.0,0.0,0.0,0.0,0.0,0.0,0.0,0.0,0.0,0.0,0.0,0.0,0.0,0.0,0.0,0.0,0.0,0.0,0.0,0.0,0.0,0.0,0.0,0.0,0.0,0.0,0.0,0.0,0.0,0.0,0.0,0.0,0.0,0.0,0.0,0.0,0.0,0.0,0.0,0.0,0.0,0.0,0.0,0.0,0.0,0.0,0.0,0.0,0.0,0.0,0.0,0.0,0.0,0.0,0.0,0.0,0.0,0.0,0.0,0.0,0.9393,1.0217,1.0272,1.0676,0.0,0.0,0.0,0.0,0.0,0.0,0.0,0.0,0.0,0.0,0.0,0.0,0.0,0.0,0.0,0.0,0.0,0.0,0.0,0.0,0.0,0.0,0.0,0.0,0.0,0.0,0.0,0.0,0.0,0.0,0.0,0.0,0.0,0.0,0.0,0.0,0.0,0.0,0.0,0.0,0.0,0.0,0.0,0.0,0.0,0.0,0.0,0.0,0.0,0.0,0.0,0.0,0.0,0.0,0.0,0.0,0.0,0.0,0.0,0.0,0.0,0.0,0.0,0.0,0.0,0.0,0.0,0.0,0.0,0.0,0.0,0.0,0.0,0.0,0.0,0.0,0.0,0.0,0.0,0.0,0.0,0.0,0.0,0.0,0.0,0.0,0.0,0.0,0.0,0.0,0.0,0.0,0.0,0.0,0.0,0.0,0.0,0.0,0.0,0.0,0.0,0.0,0.0,0.0,0.0,0.0,0.0,0.0,0.0,0.0,0.9282,0.9252,0.9995,0.9891,1.0176,1.097,0.0,0.0,0.0,0.0,0.0,0.0,0.0,0.0,0.0,0.0,0.0,0.0,0.0,0.0,0.0,0.0,0.0,0.0,0.0,0.0,0.0,0.0,0.0,0.0,0.0,0.0,0.0,0.0,0.0,0.0,0.0,0.0,0.0,0.0,0.0,0.0,0.0,0.0,0.0,0.0,0.0,0.0,0.0,0.0,0.0,0.0,0.0,0.0,0.0,0.0,0.0,0.0,0.0,0.0,0.0,0.0,0.0,0.0,0.0,0.0,0.0,0.0,0.0,0.0,0.0,0.0,0.0,0.0,0.0,0.0,0.0,0.0,0.0,0.0,0.0,0.0,0.0,0.0,0.0,0.0,0.0,0.0,0.0,0.0,0.0,0.0,0.0,0.0,0.0,0.0,0.0,0.0,0.0,0.0,0.0,0.0,0.0,0.0,0.0,0.0,0.0,0.0,0.0,0.0,0.0,0.0,0.0,0.0,1.0806,1.0106,1.0094,1.0814,1.0191,1.0172,0.0,0.0,0.0,0.0,0.0,0.0,0.0,0.0,0.0,0.0,0.0,0.0,0.0,0.0,0.0,0.0,0.0,0.0,0.0,0.0,0.0,0.0,0.0,0.0,0.0,0.0,0.0,0.0,0.0,0.0,0.0,0.0,0.0,0.0,0.0,0.0,0.0,0.0,0.0,0.0,0.0,0.0,0.0,0.0,0.0,0.0,0.0,0.0,0.0,0.0,0.0,0.0,0.0,0.0,0.0,0.0,0.0,0.0,0.0,0.0,0.0,0.0,0.0,0.0,0.0,0.0,0.0,0.0,0.0,0.0,0.0,0.0,0.0,0.0,0.0,0.0,0.0,0.0,0.0,0.0,0.0,0.0,0.0,0.0,0.0,0.0,0.0,0.0,0.0,0.0,0.0,0.0,0.0,0.0,0.0,0.0,0.0,0.0,0.0,0.0,0.0,0.0,0.0,0.0,0.0,0.0,0.0,0.0,0.0,0.8613,0.8353,0.8242,0.8388,0.8807,0.93,0.0,0.0,0.0,0.0,0.0,0.0,0.0,0.0,0.0,0.0,0.0,0.0,0.0,0.0,0.0,0.0,0.0,0.0,0.0,0.0,0.0,0.0,0.0,0.0,0.0,0.0,0.0,0.0,0.0,0.0,0.0,0.0,0.0,0.0,0.0,0.0,0.0,0.0,0.0,0.0,0.0,0.0,0.0,0.0,0.0,0.0,0.0,0.0,0.0,0.0,0.0,0.0,0.0,0.0,0.0,0.0,0.0,0.0,0.0,0.0,0.0,0.0,0.0,0.0,0.0,0.0,0.0,0.0,0.0,0.0,0.0,0.0,0.0,0.0,0.0,0.0,0.0,0.0,0.0,0.0,0.0,0.0,0.0,0.0,0.0,0.0,0.0,0.0,0.0,0.0,0.0,0.0,0.0,0.0,0.0,0.0,0.0,0.0,0.0,0.0,0.0,0.0,0.0,0.0,0.0,0.0,0.0,0.0,0.0,0.7261,0.0,0.702,0.6997,0.7976,0.8688,0.0,0.0,0.0,0.0,0.0,0.0,0.0,0.0,0.0,0.0,0.0,0.0,0.0,0.0,0.0,0.0,0.0,0.0,0.0,0.0,0.0,0.0,0.0,0.0,0.0,0.0,0.0,0.0,0.0,0.0,0.0,0.0,0.0,0.0,0.0,0.0,0.0,0.0,0.0,0.0,0.0,0.0,0.0,0.0,0.0,0.0,0.0,0.0,0.0,0.0,0.0,0.0,0.0,0.0,0.0,0.0,0.0,0.0,0.0,0.0,0.0,0.0,0.0,0.0,0.0,0.0,0.0,0.0,0.0,0.0,0.0,0.0,0.0,0.0,0.0,0.0,0.0,0.0,0.0,0.0,0.0,0.0,0.0,0.0,0.0,0.0,0.0,0.0,0.0,0.0,0.0,0.0,0.0,0.0,0.0,0.0,0.0,0.0,0.0,0.0,0.0,0.0,0.0,0.0,0.0,0.0,0.0,0.0,0.7978,0.7087,0.672,0.6716,0.7105,0.7857,0.8387,0.0,0.0,0.0,0.0,0.0,0.0,0.0,0.0,0.0,0.0,0.0,0.0,0.0,0.0,0.0,0.0,0.0,0.0,0.0,0.0,0.0,0.0,0.0,0.0,0.0,0.0,0.0,0.0,0.0,0.0,0.0,0.0,0.0,0.0,0.0,0.0,0.0,0.0,0.0,0.0,0.0,0.0,0.0,0.0,0.0,0.0,0.0,0.0,0.0,0.0,0.0,0.0,0.0,0.0,0.0,0.0,0.0,0.0,0.0,0.0,0.0,0.0,0.0,0.0,0.0,0.0,0.0,0.0,0.0,0.0,0.0,0.0,0.0,0.0,0.0,0.0,0.0,0.0,0.0,0.0,0.0,0.0,0.0,0.0,0.0,0.0,0.0,0.0,0.0,0.0,0.0,0.0,0.0,0.0,0.0,0.0,0.0,0.0,0.0,0.0,0.0,0.0,0.0,0.0,0.0,0.0,0.0,0.0,0.0,0.5598,0.5484,0.6045,0.723,0.7408,0.8083,0.0,0.0,0.0,0.0,0.0,0.0,0.0,0.0,0.0,0.0,0.0,0.0,0.0,0.0,0.0,0.0,0.0,0.0,0.0,0.0,0.0,0.0,0.0,0.0,0.0,0.0,0.0,0.0,0.0,0.0,0.0,0.0,0.0,0.0,0.0,0.0,0.0,0.0,0.0,0.0,0.0,0.0,0.0,0.0,0.0,0.0,0.0,0.0,0.0,0.0,0.0,0.0,0.0,0.0,0.0,0.0,0.0,0.0,0.0,0.0,0.0,0.0,0.0,0.0,0.0,0.0,0.0,0.0,0.0,0.0,0.0,0.0,0.0,0.0,0.0,0.0,0.0,0.0,0.0,0.0,0.0,0.0,0.0,0.0,0.0,0.0,0.0,0.0,0.0,0.0,0.0,0.0,0.0,0.0,0.0,0.0,0.0,0.0,0.0,0.0,0.0,0.0,0.0,0.0,0.0,0.0,0.0,0.0,0.0,0.5349,0.5215,0.5735,0.6948,0.7207,0.7948,0.9095,0.0,0.0,0.0,0.0,0.0,0.0,0.0,0.0,0.0,0.0,0.0,0.0,0.0,0.0,0.0,0.0,0.0,0.0,0.0,0.0,0.0,0.0,0.0,0.0,0.0,0.0,0.0,0.0,0.0,0.0,0.0,0.0,0.0,0.0,0.0,0.0,0.0,0.0,0.0,0.0,0.0,0.0,0.0,0.0,0.0,0.0,0.0,0.0,0.0,0.0,0.0,0.0,0.0,0.0,0.0,0.0,0.0,0.0,0.0,0.0,0.0,0.0,0.0,0.0,0.0,0.0,0.0,0.0,0.0,0.0,0.0,0.0,0.0,0.0,0.0,0.0,0.0,0.0,0.0,0.0,0.0,0.0,0.0,0.0,0.0,0.0,0.0,0.0,0.0,0.0,0.0,0.0,0.0,0.0,0.0,0.0,0.0,0.0,0.0,0.0,0.0,0.0,0.0,0.0,0.0,0.0,0.0,0.0,0.6147,0.5959,0.6041,0.6415,0.738,0.7979,0.0,0.0,0.0,0.0,0.0,0.0,0.0,0.0,0.0,0.0,0.0,0.0,0.0,0.0,0.0,0.0,0.0,0.0,0.0,0.0,0.0,0.0,0.0,0.0,0.0,0.0,0.0,0.0,0.0,0.0,0.0,0.0,0.0,0.0,0.0,0.0,0.0,0.0,0.0,0.0,0.0,0.0,0.0,0.0,0.0,0.0,0.0,0.0,0.0,0.0,0.0,0.0,0.0,0.0,0.0,0.0,0.0,0.0,0.0,0.0,0.0,0.0,0.0,0.0,0.0,0.0,0.0,0.0,0.0,0.0,0.0,0.0,0.0,0.0,0.0,0.0,0.0,0.0,0.0,0.0,0.0,0.0,0.0,0.0,0.0,0.0,0.0,0.0,0.0,0.0,0.0,0.0,0.0,0.0,0.0,0.0,0.0,0.0,0.0,0.0,0.0,0.0,0.0,0.0,0.0,0.0,0.0,0.0,0.0,0.6772,0.8049,0.8682,0.8499,0.8572,0.8919,0.0,0.0,0.0,0.0,0.0,0.0,0.0,0.0,0.0,0.0,0.0,0.0,0.0,0.0,0.0,0.0,0.0,0.0,0.0,0.0,0.0,0.0,0.0,0.0,0.0,0.0,0.0,0.0,0.0,0.0,0.0,0.0,0.0,0.0,0.0,0.0,0.0,0.0,0.0,0.0,0.0,0.0,0.0,0.0,0.0,0.0,0.0,0.0,0.0,0.0,0.0,0.0,0.0,0.0,0.0,0.0,0.0,0.0,0.0,0.0,0.0,0.0,0.0,0.0,0.0,0.0,0.0,0.0,0.0,0.0,0.0,0.0,0.0,0.0,0.0,0.0,0.0,0.0,0.0,0.0,0.0,0.0,0.0,0.0,0.0,0.0,0.0,0.0,0.0,0.0,0.0,0.0,0.0,0.0,0.0,0.0,0.0,0.0,0.0,0.0,0.0,0.0,0.0,0.0,0.0,0.0,0.0,0.0,0.8626,0.7662,0.9364,1.0233,1.0176,1.0119,1.0035,0.0,0.0,0.0,0.0,0.0,0.0,0.0,0.0,0.0,0.0,0.0,0.0,0.0,0.0,0.0,0.0,0.0,0.0,0.0,0.0,0.0,0.0,0.0,0.0,0.0,0.0,0.0,0.0,0.0,0.0,0.0,0.0,0.0,0.0,0.0,0.0,0.0,0.0,0.0,0.0,0.0,0.0,0.0,0.0,0.0,0.0,0.0,0.0,0.0,0.0,0.0,0.0,0.0,0.0,0.0,0.0,0.0,0.0,0.0,0.0,0.0,0.0,0.0,0.0,0.0,0.0,0.0,0.0,0.0,0.0,0.0,0.0,0.0,0.0,0.0,0.0,0.0,0.0,0.0,0.0,0.0,0.0,0.0,0.0,0.0,0.0,0.0,0.0,0.0,0.0,0.0,0.0,0.0,0.0,0.0,0.0,0.0,0.0,0.0,0.0,0.0,0.0,0.0,0.0,0.0,0.0,0.0,0.0,0.9404,0.8626,1.0129,1.11,1.1458,1.1557,1.1051,0.0,0.0,0.0,0.0,0.0,0.0,0.0,0.0,0.0,0.0,0.0,0.0,0.0,0.0,0.0,0.0,0.0,0.0,0.0,0.0,0.0,0.0,0.0,0.0,0.0,0.0,0.0,0.0,0.0,0.0,0.0,0.0,0.0,0.0,0.0,0.0,0.0,0.0,0.0,0.0,0.0,0.0,0.0,0.0,0.0,0.0,0.0,0.0,0.0,0.0,0.0,0.0,0.0,0.0,0.0,0.0,0.0,0.0,0.0,0.0,0.0,0.0,0.0,0.0,0.0,0.0,0.0,0.0,0.0,0.0,0.0,0.0,0.0,0.0,0.0,0.0,0.0,0.0,0.0,0.0,0.0,0.0,0.0,0.0,0.0,0.0,0.0,0.0,0.0,0.0,0.0,0.0,0.0,0.0,0.0,0.0,0.0,0.0,0.0,0.0,0.0,0.0,0.0,0.0,0.0,0.0,0.0,0.0,0.9404,0.8672,1.0715,1.1872,1.1933,1.118,1.061,0.0,0.0,0.0,0.0,0.0,0.0,0.0,0.0,0.0,0.0,0.0,0.0,0.0,0.0,0.0,0.0,0.0,0.0,0.0,0.0,0.0,0.0,0.0,0.0,0.0,0.0,0.0,0.0,0.0,0.0,0.0,0.0,0.0,0.0,0.0,0.0,0.0,0.0,0.0,0.0,0.0,0.0,0.0,0.0,0.0,0.0,0.0,0.0,1.5245,0.0,0.0,0.0,0.0,0.0,0.0,0.0,0.0,0.0,0.0,0.0,0.0,0.0,0.0,0.0,0.0,0.0,0.0,0.0,0.0,0.0,0.0,0.0,0.0,0.0,0.0,0.0,0.0,0.0,0.0,0.0,0.0,0.0,0.0,0.0,0.0,0.0,0.0,0.0,0.0,0.0,0.0,0.0,0.0,0.0,0.0,0.0,0.0,0.0,0.0,0.0,0.0,0.0,0.0,0.0,0.0,0.0,0.0,0.0,0.9765,0.928,1.0773,1.1651,1.1718,1.0651,1.026,0.0,0.0,0.0,0.0,0.0,0.0,0.0,0.0,0.0,0.0,0.0,0.0,0.0,0.0,0.0,0.0,0.0,0.0,0.0,0.0,0.0,0.0,0.0,0.0,0.0,0.0,0.0,0.0,0.0,0.0,0.0,0.0,0.0,0.0,0.0,0.0,0.0,0.0,0.0,0.0,0.0,0.0,0.0,0.0,0.0,0.0,0.0,0.0,0.0,0.0,0.0,0.0,0.0,0.0,0.0,0.0,0.0,0.0,0.0,0.0,0.0,0.0,0.0,0.0,0.0,0.0,0.0,0.0,0.0,0.0,0.0,0.0,0.0,0.0,0.0,0.0,0.0,0.0,0.0,0.0,0.0,0.0,0.0,0.0,0.0,0.0,0.0,0.0,0.0,0.0,0.0,0.0,0.0,0.0,0.0,0.0,0.0,0.0,0.0,0.0,0.0,0.0,0.0,0.0,0.0,0.0,0.0,0.9528,1.0027,0.9773,1.0488,1.0977,1.1228,1.0129,0.9992,1.1058,0.0,0.0,0.0,0.0,0.0,0.0,0.0,0.0,0.0,0.0,0.0,0.0,0.0,0.0,0.0,0.0,0.0,0.0,0.0,0.0,0.0,0.0,0.0,0.0,0.0,0.0,0.0,0.0,0.0,0.0,0.0,0.0,0.0,0.0,0.0,0.0,0.0,0.0,1.1255,1.2555,0.0,0.0,0.0,0.0,0.0,0.0,0.0,0.0,1.4564,0.0,0.0,0.0,0.0,0.0,0.0,0.0,0.0,0.0,0.0,0.0,0.0,0.0,0.0,0.0,0.0,0.0,0.0,0.0,0.0,0.0,0.0,0.0,0.0,0.0,0.0,0.0,0.0,0.0,0.0,0.0,0.0,0.0,0.0,0.0,0.0,0.0,0.0,0.0,0.0,0.0,0.0,0.0,0.0,0.0,0.0,0.0,0.0,0.0,0.0,0.0,0.0,0.0,0.0,0.0,0.0,0.7502,0.891,0.9465,0.9085,0.9908,1.042,1.0556,0.9934,0.9888,1.0526,0.0,0.0,0.0,0.0,0.0,0.0,0.0,0.0,0.0,0.0,0.0,0.0,0.0,0.0,0.0,0.0,0.0,0.0,0.0,0.0,0.0,0.0,0.0,0.0,0.0,0.0,0.0,0.0,0.0,0.0,0.0,0.0,0.0,0.0,0.0,0.0,0.0,0.0,0.0,1.1622,1.2319,0.0,0.0,0.0,0.0,0.0,0.0,0.0,0.0,1.3786,0.0,0.0,0.0,0.0,0.0,0.0,0.0,0.0,0.0,0.0,0.0,0.0,0.0,0.0,0.0,0.0,0.0,0.0,0.0,0.0,0.0,0.0,0.0,0.0,0.0,0.0,0.0,0.0,0.0,0.0,0.0,0.0,0.0,0.0,0.0,0.0,0.0,0.0,0.0,0.0,0.0,0.0,0.0,0.0,0.0,0.0,0.0,0.0,0.0,0.0,0.0,0.0,0.0,0.0,0.0,0.7694,0.865,0.9092,0.8921,0.9386,0.9686,0.9813,0.9271,0.9424,0.0,0.0,0.0,0.0,0.0,0.0,0.0,0.0,0.0,0.0,0.0,0.0,0.0,0.0,0.0,0.0,0.0,0.0,0.0,0.0,0.0,0.0,0.0,0.0,0.0,0.0,0.0,0.0,0.0,0.0,0.0,0.0,0.0,0.0,0.0,0.0,0.0,0.0,0.0,0.0,1.1416,1.1857,1.3054,0.0,0.0,0.0,0.0,0.0,0.0,1.4177,1.4211,0.0,0.0,0.0,0.0,0.0,0.0,0.0,0.0,0.0,0.0,0.0,0.0,0.0,0.0,0.0,0.0,0.0,0.0,0.0,0.0,0.0,0.0,0.0,0.0,0.0,0.0,0.0,0.0,0.0,0.0,0.0,0.0,0.0,0.0,0.0,0.0,0.0,0.0,0.0,0.0,0.0,0.0,0.0,0.0,0.0,0.0,0.0,0.0,0.0,0.0,0.0,0.0,0.0,0.0,0.0,0.7914,0.8455,0.8726,0.871,0.8835,0.8956,0.9089,0.8518,0.8852,0.0,0.0,0.0,0.0,0.0,0.0,0.0,0.0,0.0,0.0,0.0,0.0,0.0,0.0,0.0,0.0,0.0,0.0,0.0,0.0,0.0,0.0,0.0,0.0,0.0,0.0,0.0,0.0,0.0,0.0,0.0,0.0,0.0,0.0,0.0,0.0,0.0,0.0,0.0,0.0,0.0,1.1926,1.2735,1.3473,0.0,0.0,0.0,0.0,1.4028,1.3975,0.0,0.0,0.0,0.0,0.0,0.0,0.0,0.0,0.0,0.0,0.0,0.0,0.0,0.0,0.0,0.0,0.0,0.0,0.0,0.0,0.0,0.0,0.0,0.0,0.0,0.0,0.0,0.0,0.0,0.0,0.0,0.0,0.0,0.0,0.0,0.0,0.0,0.0,0.0,0.0,0.0,0.0,0.0,0.0,0.0,0.0,0.0,0.0,0.0,0.0,0.0,0.0,0.0,0.0,0.0,0.0,0.7899,0.8088,0.8134,0.8034,0.8148,0.8257,0.8406,0.7824,0.813,0.0,0.0,0.0,0.0,0.0,0.0,0.0,0.0,0.0,0.0,0.0,0.0,0.0,0.0,0.0,0.0,0.0,0.0,0.0,0.0,0.0,0.0,0.0,0.0,0.0,0.0,0.0,0.0,0.0,0.0,0.0,0.0,0.0,0.0,0.0,0.0,0.0,0.0,0.0,0.0,0.0,1.2749,1.3544,1.3761,1.4125,0.0,0.0,1.4305,1.4912,1.4454,0.0,0.0,0.0,0.0,0.0,0.0,0.0,0.0,0.0,0.0,0.0,0.0,0.0,0.0,0.0,0.0,0.0,0.0,0.0,0.0,0.0,0.0,0.0,0.0,0.0,0.0,0.0,0.0,0.0,0.0,0.0,0.0,0.0,0.0,0.0,0.0,0.0,0.0,0.0,0.0,0.0,0.0,0.0,0.0,0.0,0.0,0.0,0.0,0.0,0.0,0.0,0.0,0.0,0.0,0.0,0.7984,0.8012,0.7984,0.7999,0.8012,0.8066,0.8203,0.8409,0.7607,0.7841,0.0,0.0,0.0,0.0,0.0,0.0,0.0,0.0,0.0,0.0,0.0,0.0,0.0,0.0,0.0,0.0,0.0,0.0,0.0,0.0,0.0,0.0,0.0,0.0,0.0,0.0,0.0,0.0,0.0,0.0,0.0,0.0,0.0,0.0,0.0,0.0,0.0,0.0,0.0,0.0,0.0,0.0,1.3607,1.3819,0.0,0.0,0.0,1.538,1.5269,0.0,0.0,0.0,0.0,0.0,0.0,0.0,0.0,0.0,0.0,0.0,0.0,0.0,0.0,0.0,0.0,0.0,0.0,0.0,0.0,0.0,0.0,0.0,0.0,0.0,0.0,0.0,0.0,0.0,0.0,0.0,0.0,0.0,0.0,0.0,0.0,0.0,0.0,0.0,0.0,0.0,0.0,0.0,0.0,0.0,0.0,0.0,0.0,0.0,0.0,0.0,0.0,0.0,0.0,0.0,0.0,0.0,0.808,0.7985,0.7971,0.808,0.8137,0.8175,0.8197,0.7357,0.0,0.0,0.0,0.0,0.0,0.0,0.0,0.0,0.0,0.0,0.0,0.0,0.0,0.0,0.0,0.0,0.0,0.0,0.0,0.0,0.0,0.0,0.0,0.0,0.0,0.0,0.0,1.1343,0.0,0.0,0.0,0.0,0.0,0.0,0.0,0.0,0.0,0.0,0.0,0.0,0.0,0.0,1.27,1.3956,1.4175,1.442,0.0,0.0,1.6053,1.5391,1.5831,1.5787,0.0,0.0,0.0,0.0,0.0,0.0,0.0,0.0,0.0,0.0,0.0,0.0,0.0,0.0,0.0,0.0,0.0,0.0,0.0,0.0,0.0,0.0,0.0,0.0,0.0,0.0,0.0,0.0,0.0,0.0,0.0,0.0,0.0,0.0,0.0,0.0,0.0,0.0,0.0,0.0,0.0,0.0,0.0,0.0,0.0,0.0,0.0,0.0,0.0,0.0,0.0,0.0,0.0,0.0,0.0,0.8111,0.7985,0.7956,0.8109,0.8229,0.8017,0.7485,0.686,0.7089,0.0,0.0,0.0,0.0,0.0,0.0,0.0,0.0,0.0,0.0,0.0,0.0,0.0,0.0,0.0,0.0,0.0,0.0,0.0,0.0,0.0,0.0,0.0,0.0,0.0,0.0,0.0,0.0,0.0,0.0,0.0,0.0,0.0,0.0,0.0,0.0,0.0,0.0,0.0,0.0,0.0,1.4794,1.4988,1.5005,1.5056,0.0,0.0,1.5328,1.5215,1.5268,1.5232,1.5056,0.0,0.0,0.0,0.0,0.0,0.0,0.0,0.0,0.0,0.0,0.0,0.0,0.0,0.0,0.0,0.0,0.0,0.0,0.0,0.0,0.0,0.0,0.0,0.0,0.0,0.0,0.0,0.0,0.0,0.0,0.0,0.0,0.0,0.0,0.0,0.0,0.0,0.0,0.0,0.0,0.0,0.0,0.0,0.0,0.0,0.0,0.0,0.0,0.0,0.0,0.0,0.0,0.0,0.8421,0.8216,0.7767,0.7709,0.808,0.8227,0.8217,0.8068,0.706,0.6864,0.0,0.0,0.0,0.0,0.0,0.0,0.0,0.0,0.0,0.0,0.0,0.0,0.0,0.0,0.0,0.0,0.0,0.0,0.0,0.0,0.0,0.0,0.0,0.0,0.0,0.0,0.0,0.0,1.0194,1.0668,1.1976,0.0,0.0,0.0,0.0,0.0,0.0,0.0,0.0,0.0,0.0,1.4418,1.4954,1.5071,0.0,0.0,1.5606,1.5784,1.5222,1.5759,1.5804,1.4574,1.5567,0.0,0.0,0.0,0.0,0.0,0.0,0.0,0.0,0.0,0.0,0.0,0.0,0.0,0.0,0.0,0.0,0.0,0.0,0.0,0.0,0.0,0.0,0.0,0.0,0.0,0.0,0.0,0.0,0.0,0.0,0.0,0.0,0.0,0.0,0.0,0.0,0.0,0.0,0.0,0.0,0.0,0.0,0.0,0.0,0.0,0.0,0.0,0.0,0.0,0.0,0.0,0.0,0.8553,0.8296,0.7636,0.7577,0.8149,0.824,0.8291,0.8192,0.7106,0.6648,0.0,0.0,0.0,0.0,0.0,0.0,0.0,0.0,0.0,0.0,0.0,0.0,0.0,0.0,0.0,0.0,0.0,0.0,0.0,0.0,0.0,0.0,0.0,0.0,0.0,0.0,0.0,0.0,1.0612,1.1326,1.3195,0.0,0.0,0.0,0.0,0.0,0.0,0.0,0.0,0.0,0.0,1.4323,1.4927,1.5068,1.5097,1.5112,1.5612,1.5786,1.5191,1.5811,1.5959,1.4782,0.0,0.0,0.0,0.0,0.0,0.0,0.0,0.0,0.0,0.0,0.0,0.0,0.0,0.0,0.0,0.0,0.0,0.0,0.0,0.0,0.0,0.0,0.0,0.0,0.0,0.0,0.0,0.0,0.0,0.0,-0.1088,0.0,0.0,0.0,0.0,0.0,0.0,0.0,0.0,0.0,0.0,0.0,0.0,0.0,0.0,0.0,0.0,0.0,0.0,0.0,0.0,0.0,0.0,0.9148,0.8311,0.7606,0.7606,0.8238,0.8309,0.8092,0.766,0.6895,0.6424,0.6284,0.0,0.0,0.0,0.0,0.0,0.0,0.0,0.0,0.0,0.0,0.0,0.0,0.0,0.0,0.0,0.0,0.0,0.0,0.0,0.0,0.0,0.0,0.0,0.0,0.0,0.0,1.1276,1.1551,1.2145,0.0,0.0,0.0,0.0,0.0,0.0,0.0,0.0,0.0,0.0,1.4998,1.5003,1.5083,1.5109,1.5112,1.5101,1.5133,1.5133,1.5136,1.5143,1.5376,0.0,0.0,0.0,0.0,0.0,0.0,0.0,0.0,0.0,0.0,0.0,0.0,0.0,0.0,0.0,0.0,0.0,0.0,0.0,0.0,0.0,0.0,0.0,0.0,0.0,0.0,0.0,-0.3185,-0.2913,0.0,0.0,0.0,0.0,0.0,0.0,0.0,0.0,0.0,0.0,0.0,0.1093,0.1158,0.0,0.0,0.0,0.0,0.0,0.0,0.0,0.0,0.0,0.0,0.0,0.0,0.883,0.7969,0.7087,0.7021,0.781,0.7908,0.8046,0.8176,0.7583,0.7165,0.7015,0.0,0.0,0.0,0.0,0.0,0.0,0.0,0.0,0.0,0.0,0.0,0.0,0.0,0.0,0.0,0.0,0.0,0.0,0.0,0.0,0.0,0.0,0.0,0.0,0.0,1.1158,0.0,0.0,0.0,0.0,0.0,0.0,0.0,0.0,0.0,0.0,0.0,1.5253,1.5965,1.5435,1.5006,1.5049,1.503,1.5019,0.0,0.0,0.0,0.0,0.0,0.0,0.0,0.0,0.0,0.0,0.0,0.0,0.0,0.0,1.8961,1.7009,1.6639,1.6618,1.6591,0.0,0.0,0.0,0.0,0.0,0.0,0.0,0.0,0.0,0.0,0.0,0.0,0.0,0.0,0.0,0.0,-0.3534,0.0,0.0,0.0,0.0,0.0,0.0,0.0,0.0,-0.0504,-0.0294,0.0031,0.0215,0.0717,0.0,0.1966,0.2985,0.0,0.0,0.0,0.0,0.0,0.0,0.0,0.0,0.8364,0.7472,0.6825,0.6825,0.7562,0.7853,0.8142,0.8452,0.7513,0.6684,0.5929,0.5777,0.7478,0.0,0.0,0.0,0.0,0.0,0.0,0.0,0.0,0.0,0.0,0.0,0.0,0.0,0.0,0.0,0.0,0.0,0.0,0.0,0.0,0.0,0.0,0.0,1.1295,0.0,0.0,0.0,0.0,0.0,0.0,0.0,0.0,0.0,1.6561,1.5695,1.5402,1.6486,1.5708,1.5101,1.5378,0.0,0.0,0.0,0.0,0.0,0.0,0.0,1.6524,1.846,1.995,2.0763,2.0484,1.9958,1.9539,1.952,0.0,0.0,1.7728,1.7662,1.7719,1.7529,1.8993,2.0134,1.9628,1.9555,1.9414,0.0,0.0,0.0,0.0,0.0,0.0,0.0,0.0,-0.4875,-0.4599,0.0,-0.4156,0.0,0.0,0.0,0.0,0.0,0.0,0.0,0.0,-0.202,-0.182,-0.1305,-0.0714,-0.0279,0.0,0.0724,0.1408,0.2052,0.3807,0.0,0.0,0.0,0.0,0.0,0.0,0.7791,0.6819,0.6763,0.7034,0.7547,0.8008,0.8316,0.842,0.6804,0.5075,0.334,0.4711,0.5413,0.5147,0.9082,0.0,0.0,0.0,0.0,0.0,0.0,0.0,0.0,0.0,0.0,0.0,0.0,0.0,0.0,0.0,0.0,0.0,0.0,0.0,0.0,1.1518,0.0,0.0,0.0,0.0,0.0,0.0,0.0,0.0,0.0,0.0,1.5362,1.5144,1.5456,1.6581,0.0,0.0,0.0,0.0,1.5207,1.6081,1.6158,1.6468,1.7397,1.7501,1.7747,1.8619,0.0,0.0,2.1192,1.9779,1.8774,1.8671,1.8192,1.808,1.9669,1.9743,1.9717,1.9719,2.0377,2.105,2.1015,2.0812,2.0941,-0.6662,0.0,0.0,0.0,0.0,-0.5598,-0.58,-0.6187,-0.5962,-0.5668,-0.537,-0.5181,0.0,0.0,0.0,0.0,0.0,0.0,-0.2652,-0.2798,-0.2324,-0.2147,-0.2189,-0.1354,-0.0937,-0.0833,-0.0106,0.0488,0.0967,0.1758,0.3656,0.65,0.0,0.0,0.0,0.0,0.7219,0.6485,0.6224,0.6438,0.7138,0.7293,0.7457,0.7636,0.6418,0.5122,0.3787,0.3481,0.3873,0.4965,0.6203,0.0,0.0,0.0,0.0,0.0,0.0,0.0,0.0,0.0,0.0,0.0,0.0,0.0,0.0,0.0,0.0,0.0,0.0,0.0,1.4151,1.3345,1.3306,0.0,0.0,0.0,0.0,0.0,0.0,0.0,0.0,0.0,1.6607,1.6203,1.6317,0.0,0.0,1.6674,1.6761,1.653,1.6508,1.6851,0.0,0.0,0.0,1.788,1.7975,1.9406,2.0259,2.0626,2.035,1.9945,1.9612,1.9586,1.942,1.9473,1.9787,1.8999,1.8429,1.8722,1.9604,2.0096,1.9574,1.9869,2.0153,-0.8606,-0.7295,-0.6558,-0.6575,-0.7076,-0.6729,-0.6878,-0.7334,-0.689,-0.6657,-0.655,-0.6152,-0.5757,-0.5341,-0.4711,0.0,0.0,0.0,-0.3532,-0.3656,-0.3115,-0.2798,-0.2609,-0.1812,-0.1329,-0.1128,-0.0282,0.0208,0.0301,0.084,0.2273,0.4617,0.0,0.0,0.6661,0.6917,0.6681,0.5996,0.6004,0.6243,0.6646,0.7042,0.7388,0.763,0.703,0.6312,0.5533,0.4331,0.4038,0.4789,0.5141,0.5837,0.0,0.0,0.0,0.0,0.0,0.0,0.0,0.0,0.0,0.0,0.0,1.1797,0.0,0.0,0.0,0.0,1.3368,1.3811,1.371,1.394,0.0,0.0,0.0,0.0,0.0,0.0,0.0,1.7041,1.7342,1.7777,1.805,1.756,1.7384,1.7956,1.7571,1.7288,1.7485,0.0,1.712,1.7552,1.7596,1.7931,1.8926,1.8747,1.8989,2.041,2.0176,2.007,2.0399,2.0104,1.9823,1.9855,1.9839,1.9842,1.9971,1.916,1.8562,1.8903,1.9509,1.988,1.969,2.0107,2.0304,-1.069,-0.9689,-0.8256,-0.8109,-0.8718,-0.7842,-0.7857,-0.8423,-0.77,-0.747,-0.754,-0.6981,-0.6731,-0.6593,-0.5528,0.0,-0.5472,-0.4818,-0.4519,-0.4485,-0.4188,-0.3683,-0.2944,-0.2181,-0.1621,-0.1201,-0.017,0.0169,-0.0068,0.0607,0.1433,0.2417,0.3451,0.4313,0.5076,0.5976,0.608,0.5407,0.6041,0.6308,0.6259,0.7207,0.7901,0.8257,0.8228,0.7993,0.7582,0.6261,0.5188,0.4487,0.5081,0.5216,0.4857,0.0,0.0,0.0,0.0,0.0,0.0,0.0,0.0,0.0,0.0,0.0,0.0,0.0,0.0,0.0,1.117,0.0,1.196,1.398,0.0,0.0,0.0,1.8763,1.8782,1.9189,1.9252,1.8659,0.0,0.0,1.9379,0.0,1.8553,1.8479,1.7801,1.7547,1.8265,1.7638,1.739,1.8263,1.8287,1.8559,1.9456,1.9736,2.0119,2.0984,2.0439,2.0039,2.0689,2.0208,1.9619,1.9665,1.9582,1.9591,1.9892,1.9858,1.9941,1.9892,1.9934,2.0221,2.0751,2.0941,2.0911,-1.1746,-1.1616,-1.0367,-0.9835,-0.9776,-0.8958,-0.8921,-0.9384,-0.8553,-0.7928,-0.7563,-0.7211,-0.686,-0.6446,-0.6176,-0.5844,-0.5484,-0.5459,-0.5466,-0.5397,-0.4656,-0.4362,-0.4407,-0.3363,-0.2586,-0.2156,-0.161,-0.1181,-0.089,-0.0376,0.0134,0.0632,0.1455,0.2819,0.4708,0.4828,0.5026,0.5414,0.585,0.6533,0.7469,0.8303,0.8738,0.8742,0.8447,0.7547,0.6042,0.5395,0.4383,0.2939,0.3052,0.3052,0.2786,0.6289,0.0,0.0,0.0,0.0,0.0,0.0,0.0,0.0,0.0,1.3274,1.4405,0.0,1.4089,0.0,1.2405,1.3772,1.6869,1.6541,0.0,0.0,1.9008,1.9491,1.9401,1.936,1.9273,1.9136,1.907,1.9133,1.9331,1.9214,1.9099,1.9085,1.8961,1.8863,1.8898,1.8729,1.8674,1.8992,1.9062,1.9173,1.9655,1.9732,1.9813,1.9922,1.9718,1.9628,1.9873,1.9689,1.9494,1.9543,1.9521,1.955,1.9604,1.9629,1.9617,1.9643,1.98,2.005,2.0259,2.0285,2.0244,-1.2669,-1.2599,-1.1768,-1.1416,-1.1353,-1.0052,-0.9742,-1.0083,-0.9299,-0.8848,-0.869,-0.8023,-0.7465,-0.6983,-0.6827,-0.6546,-0.6238,-0.6072,-0.5967,-0.5932,-0.5338,-0.4909,-0.4664,-0.4065,-0.3385,-0.2679,-0.2133,-0.1749,-0.1381,-0.0847,-0.0448,-0.0202,0.0334,0.1463,0.3042,0.3882,0.4678,0.545,0.5753,0.6405,0.7427,0.8186,0.8812,0.9368,0.9413,0.9087,0.8406,0.7591,0.6771,0.589,0.5316,0.4473,0.3454,0.5606,0.721,0.0,0.0,0.0,0.0,0.0,0.0,0.0,0.0,0.0,0.0,0.0,1.4121,0.0,1.4659,1.5634,1.8708,1.8432,1.8423,1.9287,1.9652,1.9781,1.965,1.9467,1.9357,1.9357,1.9323,1.9286,1.9286,1.9286,1.9455,1.9772,1.995,1.9937,1.9731,1.9664,1.9773,2.0185,2.0293,2.0342,2.0563,1.9919,1.9571,1.9863,1.9678,1.9415,1.9485,1.939,1.9346,1.9388,1.9368,1.9329,1.9334,1.9324,1.935,1.9434,1.9509,1.9636,1.9751,1.9775,1.9676,-1.3488,-1.3162,-1.2732,-1.2725,-1.2888,-1.1165,-1.0595,-1.0686,-0.9917,-0.9727,-0.9867,-0.8915,-0.8232,-0.777,-0.7525,-0.7356,-0.7222,-0.6655,-0.6379,-0.6313,-0.6007,-0.5424,-0.466,-0.4656,-0.4109,-0.3135,-0.2483,-0.208,-0.1854,-0.1208,-0.0818,-0.0646,-0.0303,0.0234,0.1028,0.2917,0.4408,0.5399,0.5658,0.6313,0.7281,0.7805,0.8765,1.0148,1.061,1.1096,1.1606,1.0595,0.9976,0.9903,0.8919,0.7489,0.5614,0.5991,0.6879,0.0,0.8639,0.0,0.0,0.0,0.0,0.0,0.0,0.0,0.0,1.1526,1.406,1.8037,1.742,1.7497,1.9143,1.9771,2.0069,2.005,1.9947,1.9816,1.9682,1.9518,1.9405,1.9424,1.943,1.947,1.9473,1.9381,1.9586,2.0323,2.0711,2.0768,2.0605,2.0499,2.0699,2.1423,2.1495,2.1334,2.1295,2.0332,1.9713,2.0283,1.9776,1.9338,1.9419,1.9243,1.915,1.9236,1.9078,1.8939,1.8959,1.9013,1.9079,1.8941,1.8791,1.8846,1.9221,1.9303,1.909,-1.4164,-1.4029,-1.3577,-1.3301,-1.315,-1.2569,-1.2077,-1.1504,-1.0196,-0.9381,-0.9052,-0.9041,-0.8815,-0.8346,-0.844,-0.8179,-0.7602,-0.7463,-0.7255,-0.6999,-0.6471,-0.6265,-0.6343,-0.5795,-0.5099,-0.4282,-0.3967,-0.3519,-0.2812,-0.2264,-0.1841,-0.1467,-0.1099,-0.0501,0.0297,0.0,0.0,0.0,0.5561,0.7035,0.9294,0.9103,0.9742,1.1286,1.1048,0.0,0.9411,0.9769,0.9372,0.8063,0.8734,0.0,0.0,0.0,0.0,0.0,0.0,0.0,0.0,0.0,0.0,0.0,1.8531,1.7323,1.6333,1.6463,1.7805,2.0572,2.0022,1.986,2.0823,2.0326,1.9888,1.9804,1.9738,1.9682,1.9574,1.9508,1.9468,1.9424,1.9942,2.0331,2.0244,1.973,1.9656,2.0486,2.1058,2.1407,2.1425,2.1316,2.1332,2.1495,2.1586,2.1351,2.0953,2.0952,2.0372,1.9752,1.9297,1.917,1.9184,1.917,1.9104,1.913,1.8608,1.8161,1.8141,1.8632,1.8632,1.7478,1.7212,1.7432,1.8318,1.8533,1.8265,-1.5137,0.0,-1.3997,-1.3649,0.0,-1.2925,-1.2491,-1.2236,-1.1165,-1.0372,-0.9878,-0.9811,-0.9658,-0.944,-0.9099,-0.8829,-0.8588,-0.7978,-0.7602,-0.7415,-0.6967,-0.6802,-0.6837,-0.6483,-0.6015,-0.542,-0.4986,-0.4411,-0.3701,-0.3492,-0.3066,-0.246,-0.1973,-0.1473,-0.0928,0.0066,0.1652,0.3891,0.442,0.5678,0.7617,0.7711,0.8541,1.017,0.0,0.0,0.0,0.0,0.0,0.0,0.0,0.0,0.0,0.0,0.0,1.414,1.5649,1.7297,1.8831,1.9143,1.9406,1.9821,1.9804,1.9239,1.7967,1.7423,1.8208,2.0615,2.037,2.0203,2.0582,2.0142,1.9774,1.9713,1.9707,1.9656,1.9578,1.9512,1.9649,2.0007,2.0344,2.0682,2.1106,2.1051,2.1125,2.1623,2.2206,2.2602,2.2663,2.2025,2.1714,2.2437,2.2147,2.1858,2.1622,2.0735,2.0318,1.9703,1.9359,1.9123,1.9104,1.9104,1.9104,1.9069,1.8743,1.8397,1.7923,1.7742,1.7439,1.7273,1.6766,1.6573,1.7344,1.7518,1.7252,-1.6216,-1.6063,-1.4827,-1.4384,-1.4505,-1.3518,-1.3118,-1.318,0.0,0.0,0.0,-1.0829,-1.066,-1.0596,-0.9864,-0.9594,-0.9663,-0.8686,-0.8214,-0.8149,-0.7717,-0.7435,-0.7276,-0.7141,-0.6874,-0.6452,-0.5897,-0.5285,-0.4619,-0.4613,-0.4247,-0.3489,-0.2925,-0.2457,-0.2006,-0.0903,0.0499,0.2172,0.2888,0.395,0.5439,0.574,0.6737,0.8535,0.9058,0.9753,1.0645,1.1509,1.238,1.333,1.4624,1.4834,1.3683,1.431,1.4526,1.4098,1.4849,1.5901,1.7193,1.7429,1.8191,1.9766,2.0347,1.9952,1.8352,1.7572,1.7998,2.0019,2.0002,1.9907,1.9855,1.9919,1.9907,1.9888,1.9888,1.9929,1.9987,1.9789,2.004,2.0739,2.0937,2.1164,2.1843,2.2447,2.2832,2.2809,2.2919,2.3408,2.3451,2.26,2.2343,2.328,2.2795,2.2292,2.2002,2.0572,1.9485,1.9847,1.9467,1.914,1.9104,1.9104,1.9104,1.9104,1.8924,1.8344,1.7726,1.6588,1.6059,1.7041,1.6425,1.5737,1.6135,1.6262,1.6041,-1.7431,-1.7352,-1.702,-1.6412,-1.5705,-1.5897,-1.5497,-1.4575,-1.2968,-1.2037,-1.1693,-1.1814,-1.1615,-1.1221,-1.1212,-1.1024,-1.0617,-1.0471,-1.0221,0.0,-0.91,-0.886,-0.9074,-0.826,-0.7592,-0.7173,-0.7013,-0.6542,-0.5769,-0.5312,-0.4877,-0.4483,-0.3953,-0.3251,-0.2368,-0.1864,-0.13,-0.0665,0.144,0.3593,0.5652,0.5053,0.5616,0.757,0.8029,0.8605,0.943,1.0908,1.2084,1.2805,1.4106,1.5195,1.613,1.7241,1.819,1.8702,1.9016,1.9635,2.0594,2.0945,2.1464,2.2305,2.1875,2.1068,2.0055,1.9848,1.9862,2.0106,2.0,1.9862,1.9775,2.0303,2.0666,2.0648,2.0648,2.0893,2.1476,2.0905,2.0768,2.1625,2.2225,2.2465,2.2552,2.3286,2.3449,2.2638,2.2575,2.2392,2.2509,2.2847,2.3253,2.3396,2.2839,2.2001,2.1203,2.001,1.9233,1.9232,1.9179,1.9105,1.9104,1.9104,1.9104,1.9104,1.8197,1.7315,1.698,1.5604,1.509,1.5239,1.49,1.4616,1.4819,1.4833,1.4715,-1.8091,-1.7918,-1.7634,-1.7197,-1.6683,-1.6373,-1.5936,-1.5399,-1.428,-1.3707,-1.3552,-1.3397,-1.3163,-1.2783,-1.2372,-1.1975,-1.1531,-1.1085,-1.0646,-1.0165,-0.9569,-0.9398,-0.9426,-0.8633,-0.8177,-0.8048,-0.7846,-0.7397,-0.6742,-0.6696,-0.6534,-0.6111,-0.5246,-0.4238,-0.3196,-0.2491,-0.2161,-0.2095,-0.0689,0.109,0.318,0.2636,0.3416,0.5582,0.6447,0.7438,0.8523,1.0378,1.1753,1.2542,1.4304,1.5666,1.6597,1.7887,1.8935,1.966,2.0346,2.0944,2.1365,2.1636,2.1917,2.2144,2.1442,2.0783,2.0222,2.0262,2.0195,1.999,2.0285,2.0476,2.034,2.1001,2.1439,2.1458,2.1439,2.1606,2.1869,2.1555,2.1527,2.2279,2.2555,2.2761,2.3115,2.3497,2.3602,2.2932,2.2815,2.2683,2.2384,2.2779,2.3218,2.3194,2.2527,2.1718,2.084,1.9701,1.9004,1.8932,1.8932,1.8984,1.907,1.9087,1.9087,1.9087,1.8415,1.7892,1.7447,1.6428,1.5741,1.5478,1.4742,1.4477,1.468,1.4877,1.4748,-1.8487,-1.8363,-1.7965,-1.7713,-1.7514,-1.6232,-1.5869,-1.6119,-1.5477,-1.5216,-1.5256,-1.4763,-1.4521,-1.4358,-1.3552,-1.2963,-1.2525,-1.1923,-1.1318,-1.0747,-1.0312,-1.0083,-1.0022,-0.9306,-0.899,-0.8997,-0.8749,-0.8242,-0.769,-0.7964,-0.7879,-0.7251,-0.6096,-0.5058,-0.4167,-0.3273,-0.2943,-0.3171,-0.2776,-0.1621,0.0248,0.0354,0.1298,0.3116,0.4644,0.598,0.7292,0.9407,1.1001,1.194,1.3907,1.5497,1.6539,1.758,1.8591,1.9606,2.0558,2.1128,2.1196,2.1366,2.1403,2.1239,2.0706,2.0292,2.0124,2.0387,2.0439,2.0289,2.0902,2.1273,2.1241,2.1804,2.2272,2.2274,2.2259,2.2388,2.25,2.2204,2.2264,2.296,2.2854,2.2912,2.3356,2.3455,2.3392,2.3323,2.3294,2.3049,2.2703,2.2626,2.2623,2.2524,2.1972,2.1203,2.0596,1.95,1.8765,1.8732,1.8769,1.8843,1.8932,1.8984,1.8999,1.8927,1.8783,1.8351,1.7858,1.7167,1.6573,1.6204,1.5278,1.4697,1.5117,1.5486,1.537,-1.8665,-1.8652,-1.8443,-1.8349,-1.8047,-1.6114,-1.599,-1.694,-1.6155,-1.5953,-1.6189,-1.5316,-1.5185,-1.5442,-1.4862,-1.4254,-1.3731,-1.3681,-1.3283,-1.2725,-1.1978,-1.1695,-1.1716,-1.0924,-1.0339,-1.0013,-0.9902,-0.9305,-0.8405,-0.8594,-0.8195,-0.7118,-0.6034,-0.5465,-0.5157,-0.4497,-0.4237,-0.4509,-0.4532,-0.3695,-0.203,-0.0899,-0.0073,0.0455,0.2562,0.4099,0.5104,0.7617,0.9346,1.0183,1.1896,1.4004,1.6224,1.6726,1.7633,1.9453,1.9945,2.0251,2.0545,2.0542,2.0538,2.0415,2.0373,2.0246,2.0155,2.0843,2.1283,2.1265,2.1714,2.2079,2.2121,2.2697,2.3087,2.3091,2.3078,2.3375,2.3891,2.3327,2.3031,2.3877,2.3533,2.3387,2.333,2.3335,2.3294,2.3133,2.296,2.2773,2.2487,2.2065,2.1601,2.1413,2.0897,2.0345,1.9769,1.9084,1.8555,1.8524,1.8658,1.8696,1.8677,1.8715,1.8789,1.8663,1.8251,1.7913,1.7692,1.7111,1.6591,1.6211,1.555,1.497,1.5188,1.5742,1.5905,-1.8578,-1.8261,-1.8505,-1.8354,-1.7861,-1.7278,-1.7135,-1.7316,-1.6543,-1.6635,-1.7329,-1.667,-1.6125,-1.5711,-1.5454,-1.4983,-1.446,-1.445,-1.4165,-1.3611,-1.3155,-1.2716,-1.2215,-1.1592,-1.1019,-1.0588,-1.0347,-0.9975,-0.96,-0.9546,-0.8873,-0.7608,-0.7196,-0.6751,-0.6067,-0.5505,-0.5199,-0.5099,-0.5071,-0.4762,-0.4194,-0.2954,-0.1976,-0.1237,0.0924,0.2359,0.2959,0.5296,0.701,0.7724,0.978,1.2061,1.4348,1.5822,1.7515,1.9397,1.9883,2.0195,2.0482,2.0439,2.0355,2.0296,2.0296,2.023,2.0174,2.1259,2.1999,2.2133,2.2621,2.2924,2.288,2.3491,2.396,2.3945,2.3859,2.3989,2.4408,2.3821,2.3549,2.3941,2.3598,2.3247,2.3175,2.306,2.296,2.2876,2.2747,2.2513,2.2091,2.1679,2.1062,2.025,1.9747,1.9474,1.9144,1.8559,1.8228,1.8249,1.8313,1.8351,1.8505,1.8561,1.8586,1.8483,1.8232,1.8146,1.8373,1.773,1.7102,1.6463,1.5051,1.4237,1.4904,1.5757,1.5944,-1.8617,-1.8254,-1.8571,-1.8467,-1.7994,-1.8076,-1.7906,-1.7458,-1.6788,-1.7027,-1.7885,-1.7455,-1.6946,-1.6417,-1.6213,-1.569,-1.4965,-1.4997,-1.4694,-1.4099,-1.387,-1.3527,-1.304,-1.2653,-1.2167,-1.1694,-1.1572,-1.1207,-1.0692,-1.0,-0.9203,-0.828,-0.8176,-0.7778,-0.7014,-0.655,-0.6277,-0.6095,-0.5921,-0.5874,-0.5726,-0.4854,-0.3902,-0.2919,-0.0874,0.0304,0.0344,0.2856,0.4429,0.4878,0.7427,0.9985,1.2292,1.4435,1.6804,1.9326,1.9944,2.0168,2.0388,2.0405,2.0359,2.0273,2.0238,2.0293,2.0633,2.1643,2.25,2.288,2.3445,2.3742,2.3755,2.4124,2.4425,2.4464,2.4303,2.4228,2.4339,2.3979,2.3756,2.3837,2.3486,2.3102,2.3045,2.285,2.2738,2.2712,2.2453,2.2212,2.16,2.1154,2.0367,1.9379,1.8915,1.8676,1.8602,1.8229,1.7939,1.7975,1.8065,1.8191,1.8307,1.8307,1.8328,1.8223,1.833,1.8408,1.8348,1.7964,1.74,1.6745,1.5487,1.4247,1.4743,1.5641,1.59,-1.8885,-1.8826,-1.8799,-1.8753,-1.8629,-1.8009,-1.7693,-1.7555,-1.6965,-1.6959,-1.7389,-1.7381,-1.7549,-1.7813,-1.7368,-1.6387,-1.5247,-1.5565,-1.523,-1.4359,-1.4258,-1.4361,-1.4605,-1.4489,-1.4111,-1.3511,-1.3622,-1.3105,-1.1572,-0.9987,-0.9085,-0.9124,-0.8612,-0.8219,-0.8042,-0.7689,-0.7584,-0.761,-0.7483,-0.7186,-0.6642,-0.6442,-0.5682,-0.4363,-0.2988,-0.2199,-0.2014,0.0257,0.1697,0.1739,0.472,0.7748,1.0576,1.2383,1.5321,1.9012,1.9944,2.0116,2.016,2.0301,2.0342,2.0248,2.0174,2.0423,2.1098,2.1954,2.2748,2.3458,2.405,2.4511,2.4565,2.4342,2.4279,2.4371,2.4173,2.4114,2.4174,2.3885,2.3735,2.3689,2.3463,2.3193,2.297,2.279,2.2712,2.2513,2.191,2.1393,2.1418,2.0412,1.9545,1.9195,1.8608,1.8034,1.7973,1.7924,1.7845,1.7878,1.7975,1.8044,1.7958,1.7932,1.7932,1.7992,1.8061,1.8155,1.8173,1.7872,1.7324,1.6735,1.619,1.5473,1.4726,1.5516,1.5757,-1.9251,-1.8937,-1.9295,-1.923,-1.8806,-1.8533,-1.8388,-1.8219,-1.7244,-1.7295,-1.7944,-1.8016,-1.7849,-1.7576,-1.7822,-1.7361,-1.6499,-1.6282,-1.5943,-1.5601,-1.5503,-1.5399,-1.524,-1.5117,-1.4946,-1.4676,-1.3951,-1.3097,-1.2131,-1.111,-1.056,-1.0298,-0.9818,-0.9293,-0.8786,-0.8527,-0.8393,-0.8243,-0.821,-0.8027,-0.7563,-0.7102,-0.6585,-0.6023,-0.4215,-0.3564,-0.416,-0.2169,-0.0781,-0.013,0.2046,0.4569,0.7602,1.1851,1.4993,1.6816,1.8838,2.005,2.0187,2.0261,2.0277,2.0269,2.0162,2.0479,2.124,2.203,2.2824,2.3585,2.4219,2.4623,2.467,2.4403,2.3989,2.3745,2.3859,2.3832,2.3582,2.3591,2.371,2.3667,2.3445,2.3217,2.297,2.2747,2.2668,2.2616,2.185,2.1396,2.1265,2.0233,1.9178,1.9109,1.8523,1.7961,1.8044,1.7895,1.7794,1.7811,1.7861,1.7883,1.7839,1.7839,1.7861,1.7861,1.791,1.7961,1.8036,1.7983,1.7367,1.6402,1.5889,1.5488,1.4545,1.5263,1.5349,-1.9852,-1.9564,-1.9904,-1.9734,-1.9224,-1.9131,-1.898,-1.8701,-1.7906,-1.7952,-1.8627,-1.8694,-1.8421,-1.8154,-1.8211,-1.7982,-1.7509,-1.6797,-1.6454,-1.6437,-1.6029,-1.587,-1.5861,-1.5753,-1.5633,-1.5382,-1.4234,-1.3388,-1.2979,-1.2381,-1.1871,-1.1397,-1.0846,-1.0284,-0.976,-0.9348,-0.9069,-0.9092,-0.9198,-0.9026,-0.8531,-0.811,-0.7777,-0.7273,-0.5727,-0.4914,-0.5257,-0.4034,-0.2985,-0.2059,-0.0732,0.16,0.517,0.9988,1.3572,1.5163,1.7181,1.8971,1.9972,2.0159,2.0308,2.0623,2.0601,2.0919,2.1964,2.26,2.3266,2.399,2.4358,2.462,2.4289,2.393,2.3621,2.3489,2.3545,2.3478,2.3268,2.3487,2.361,2.3598,2.3481,2.3265,2.3052,2.2902,2.2773,2.2694,2.1669,2.1003,2.0874,1.9836,1.8846,1.8857,1.8395,1.8078,1.8005,1.7922,1.7811,1.7811,1.7811,1.7789,1.7789,1.7789,1.7789,1.7789,1.7822,1.7828,1.785,1.7867,1.7194,1.612,1.5748,1.5512,1.507,1.4915,1.4919,-2.066,-2.0568,-2.0686,-2.027,-1.976,-1.9721,-1.9378,-1.8967,-1.8786,-1.8913,-1.9349,-1.9228,-1.932,-1.9522,-1.8606,-1.8182,-1.7937,-1.7008,-1.65,-1.6464,-1.5683,-1.5706,-1.6395,-1.6414,-1.6187,-1.5954,-1.5001,-1.4548,-1.4339,-1.3591,-1.2916,-1.2283,-1.1591,-1.1207,-1.1217,-1.0236,-0.9918,-1.0242,-1.0423,-1.0128,-0.9469,-0.9412,-0.9142,-0.8464,-0.7404,-0.6518,-0.5771,-0.5305,-0.4724,-0.4211,-0.3364,-0.0865,0.3121,0.668,1.0221,1.3868,1.5182,1.6861,1.9416,2.0078,2.0599,2.115,2.1378,2.2007,2.3183,2.3569,2.3897,2.449,2.4538,2.4301,2.3528,2.2955,2.296,2.3915,2.3142,2.2944,2.3205,2.3468,2.3481,2.3427,2.3422,2.3448,2.3307,2.3052,2.2816,2.228,2.1208,2.0297,2.0203,1.9086,1.8193,1.8229,1.8211,1.8065,1.8005,1.7944,1.7878,1.7811,1.7811,1.7789,1.7789,1.7789,1.7789,1.7789,1.7783,1.7811,1.7713,1.7658,1.73,1.6447,1.6094,1.5591,1.5304,1.5,1.4563,-2.0476,-2.0139,-2.0542,-2.0371,-1.9839,-1.9812,-1.9891,-2.0022,-1.9269,-1.9331,-1.9946,-1.969,-1.9466,-1.9293,-1.8649,-1.8298,-1.8116,-1.7061,-1.6535,-1.6485,-1.6218,-1.6162,-1.6451,-1.6501,-1.6044,-1.5454,-1.5545,-1.5265,-1.4665,-1.4574,-1.4339,-1.3718,-1.3156,-1.2416,-1.1627,-1.1127,-1.0809,-1.0429,-1.0606,-1.0408,-0.9883,-0.9597,-0.927,-0.8967,-0.8341,-0.7585,-0.6658,-0.6186,-0.561,-0.4905,-0.459,-0.2955,0.0288,0.3433,0.7157,1.1293,1.3941,1.6509,1.939,2.0465,2.0973,2.1463,2.1846,2.265,2.3583,2.3739,2.384,2.4079,2.3855,2.3397,2.2769,2.1766,2.1477,2.1654,2.219,2.2144,2.1814,2.2246,2.2629,2.2749,2.316,2.3324,2.3077,2.2816,2.247,2.1832,2.0643,1.9855,1.984,1.8801,1.8228,1.8586,1.8352,1.8048,1.7988,1.7944,1.7878,1.7833,1.7789,1.7789,1.7789,1.7789,1.7789,1.7789,1.7783,1.7715,1.7616,1.7446,1.7146,1.6575,1.5972,1.5591,1.5292,1.4898,1.4433,-2.0502,-2.0178,-2.0555,-2.0371,-1.9865,-2.0022,-2.0178,-2.027,-1.9812,-1.9982,-2.0393,-2.0148,-1.9832,-1.9556,-1.8986,-1.8649,-1.844,-1.7551,-1.7149,-1.7042,-1.6653,-1.6548,-1.6504,-1.6536,-1.6361,-1.5879,-1.6068,-1.5904,-1.5267,-1.5579,-1.5441,-1.4718,-1.4394,-1.3617,-1.2373,-1.1826,-1.1344,-1.0995,-1.0829,-1.0639,-1.038,-1.0021,-0.9785,-0.9677,-0.9119,-0.8537,-0.8016,-0.7563,-0.6723,-0.5727,-0.529,-0.4315,-0.2847,0.0121,0.3561,0.7124,1.103,1.4624,1.7719,1.959,2.0929,2.1391,2.2115,2.2909,2.356,2.3638,2.3647,2.4066,2.3285,2.2731,2.2557,2.1455,2.0623,2.0423,2.1152,2.1473,2.1107,2.2028,2.2696,2.2946,2.3231,2.3307,2.3109,2.2773,2.228,2.1507,2.0413,1.9455,1.9453,1.8555,1.8443,1.841,1.8222,1.8017,1.7961,1.7922,1.7883,1.7856,1.7789,1.7789,1.7789,1.7789,1.7789,1.7789,1.7766,1.7726,1.7652,1.7552,1.7306,1.6586,1.6055,1.5707,1.5425,1.4725,1.4278,-2.0686,-2.0673,-2.0686,-2.0384,-1.9917,-2.0424,-2.0424,-2.0035,-2.0398,-2.0633,-2.0636,-2.0497,-2.0459,-2.0268,-1.9517,-1.9164,-1.9077,-1.8437,-1.8075,-1.7847,-1.7341,-1.6876,-1.6679,-1.6675,-1.673,-1.6831,-1.6498,-1.6257,-1.6081,-1.6478,-1.6284,-1.5287,-1.5149,-1.4647,-1.3467,-1.237,-1.1948,-1.1782,-1.1298,-1.0954,-1.085,-1.0687,-1.0601,-1.0562,-0.9755,-0.9319,-0.9341,-0.8812,-0.7982,-0.6645,-0.5891,-0.5567,-0.5518,-0.308,-0.0243,0.279,0.731,1.1367,1.4741,1.7888,2.0077,2.122,2.2151,2.3006,2.3583,2.3555,2.3517,2.3982,2.2891,2.2241,2.2461,2.1529,2.06,2.0281,2.0409,2.0856,2.2075,2.2852,2.3053,2.3213,2.341,2.3494,2.3407,2.306,2.2382,2.1445,2.0425,1.9647,1.8684,1.8088,1.7805,1.7789,1.789,1.7934,1.7856,1.7988,1.7966,1.7816,1.7772,1.7811,1.7789,1.7789,1.7789,1.7789,1.7749,1.7732,1.7664,1.7566,1.7512,1.7173,1.6642,1.611,1.5508,1.489,1.4291,-2.0463,-2.0087,-2.0529,-2.0371,-1.9917,-2.045,-2.0633,-2.0489,-2.062,-2.0699,-2.0699,-2.0662,-2.0599,-2.0459,-1.9817,-1.9448,-1.9249,-1.8672,-1.8333,-1.8336,-1.8421,-1.7862,-1.7325,-1.714,-1.6835,-1.6394,-1.6483,-1.6223,-1.5917,-1.6696,-1.6626,-1.5925,-1.5804,-1.5271,-1.4266,-1.3379,-1.2557,-1.1893,-1.1556,-1.1142,-1.0888,-1.0582,-1.0495,-1.0639,-1.0147,-0.9725,-0.9359,-0.8496,-0.8399,-0.8658,-0.7266,-0.6445,-0.6371,-0.5282,-0.2604,0.1846,0.401,0.7729,1.3495,1.642,1.854,2.1247,2.2029,2.2901,2.3582,2.3645,2.3044,2.2424,2.1817,2.1824,2.1229,2.0533,2.0144,2.0273,2.03,2.0725,2.1807,2.234,2.2535,2.2424,2.3066,2.3405,2.343,2.3129,2.2337,2.1042,2.0178,1.9395,1.8358,1.7843,1.7618,1.7595,1.7658,1.7726,1.7833,1.7988,1.7971,1.78,1.7772,1.7839,1.7833,1.7789,1.7789,1.7789,1.7789,1.7749,1.771,1.7641,1.7589,1.7519,1.6841,1.6143,1.5806,1.5288,1.4576,-2.0515,-2.0178,-2.0568,-2.0371,-1.9917,-2.0463,-2.0568,-2.0424,-2.0607,-2.0699,-2.0699,-2.0699,-2.0649,-2.0523,-2.0148,-1.9956,-1.9806,-1.9377,-1.9152,-1.9128,-1.9246,-1.8844,-1.8204,-1.789,-1.7277,-1.6601,-1.6729,-1.6529,-1.6223,-1.6843,-1.6802,-1.6381,-1.6329,-1.5708,-1.4464,-1.3703,-1.2981,-1.2119,-1.1448,-1.0992,-1.1105,-1.0774,-1.0659,-1.0725,-1.0495,-1.0147,-0.9755,-0.9173,-0.8907,-0.8706,-0.7949,-0.7432,-0.721,-0.662,-0.4733,-0.1065,0.1169,0.5291,0.9231,1.3241,1.6737,1.8898,2.0563,2.228,2.2829,2.2862,2.1941,2.2356,2.1685,2.1424,2.1662,2.1287,2.0997,2.0879,2.1007,2.1432,2.2149,2.2513,2.2625,2.2741,2.3066,2.3494,2.3494,2.3223,2.2279,2.1115,2.0345,1.9191,1.7973,1.7756,1.7599,1.7602,1.7582,1.7681,1.7772,1.7922,1.8031,1.7883,1.7816,1.7861,1.7816,1.7789,1.7789,1.7789,1.7789,1.7789,1.7726,1.7704,1.7658,1.7388,1.6759,1.6343,1.6077,1.5707,1.4973,-2.0764,-2.0699,-2.0699,-2.0398,-2.0035,-2.0476,-2.0476,-2.01,-2.0515,-2.0699,-2.0699,-2.0699,-2.0699,-2.0712,-2.0484,-2.0485,-2.0485,-2.0205,-2.0029,-1.9927,-1.985,-1.9572,-1.9007,-1.8505,-1.7944,-1.7455,-1.7426,-1.7087,-1.6773,-1.7015,-1.6831,-1.6469,-1.6584,-1.596,-1.4857,-1.3803,-1.3099,-1.2539,-1.1475,-1.1002,-1.1217,-1.0992,-1.0878,-1.0954,-1.0753,-1.0534,-1.038,-1.0079,-0.9512,-0.7972,-0.8162,-0.8146,-0.8098,-0.7107,-0.6644,-0.5785,-0.1228,0.2301,0.3789,0.9925,1.49,1.6447,1.9297,2.1179,2.1731,2.1677,2.1866,2.2647,2.1421,2.1588,2.2525,2.3011,2.2527,2.1899,2.2301,2.2529,2.2692,2.2944,2.3313,2.3471,2.3494,2.3494,2.343,2.32,2.2709,2.2095,2.1129,1.9962,1.8836,1.8286,1.8,1.7739,1.7702,1.7658,1.7749,1.7878,1.7966,1.7966,1.79,1.79,1.7833,1.7789,1.7789,1.7789,1.7789,1.7789,1.7789,1.7766,1.7721,1.7541,1.7065,1.6753,1.6442,1.6022,1.5425,-2.1054,-2.0699,-2.0699,-2.0633,-2.0542,-2.0646,-2.0633,-2.0515,-2.0646,-2.0699,-2.0699,-2.0699,-2.0699,-2.0699,-2.0649,-2.0649,-2.0612,-2.0461,-2.0309,-2.0105,-2.0496,-2.0242,-1.9635,-1.9133,-1.8568,-1.8066,-1.7576,-1.7325,-1.72,-1.6829,-1.6592,-1.6516,-1.6453,-1.6324,-1.5795,-1.4571,-1.3754,-1.3082,-1.2112,-1.1437,-1.1105,-1.1029,-1.1029,-1.1255,-1.0943,-1.0534,-1.0186,-0.9746,-0.9319,-0.8918,-0.8569,-0.844,-0.8187,-0.8041,-0.7573,-0.6413,-0.4405,-0.1054,0.2248,0.5953,1.1082,1.6726,1.7549,1.8363,2.0377,2.1574,2.1702,2.1866,2.1695,2.2069,2.266,2.2898,2.2912,2.2805,2.2666,2.2849,2.3399,2.3534,2.3499,2.3494,2.3494,2.3494,2.3494,2.3471,2.3147,2.2899,2.2048,2.0901,1.9918,1.8944,1.8531,1.8202,1.7928,1.7887,1.7658,1.7772,1.7922,1.8005,1.7944,1.7922,1.7856,1.7789,1.7789,1.7789,1.7789,1.7789,1.7789,1.7749,1.7726,1.7541,1.7405,1.7209,1.6914,1.6426,1.6171,-2.1159,-2.0712,-2.0699,-2.0699,-2.0699,-2.0699,-2.0699,-2.0699,-2.0699,-2.0699,-2.0699,-2.0699,-2.0699,-2.0699,-2.0699,-2.0699,-2.0649,-2.0575,-2.0514,-2.0552,-2.0777,-2.0595,-2.0328,-1.9874,-1.9409,-1.8631,-1.8041,-1.7689,-1.73,-1.6848,-1.6516,-1.6479,-1.6436,-1.623,-1.5959,-1.5016,-1.4132,-1.3337,-1.2424,-1.1757,-1.1549,-1.1105,-1.1105,-1.133,-1.1057,-1.0687,-1.0457,-1.0399,-0.9942,-0.9509,-0.9293,-0.8835,-0.8317,-0.8553,-0.8302,-0.732,-0.6331,-0.4261,-0.0969,0.2573,0.682,1.2766,1.4833,1.7194,1.8925,2.0722,2.2085,2.2172,2.2306,2.2303,2.2674,2.3554,2.373,2.326,2.3344,2.3601,2.3771,2.3642,2.3494,2.3494,2.3494,2.3494,2.3494,2.3494,2.2957,2.2475,2.2353,2.1312,2.0556,1.9668,1.9202,1.8805,1.8399,1.8098,1.7706,1.7681,1.7856,1.7922,1.7922,1.7922,1.7878,1.7833,1.7789,1.7789,1.7789,1.7789,1.7789,1.7749,1.7726,1.7608,1.7522,1.7542,1.7412,1.7007,1.6884,-2.1302,-2.0817,-2.0751,-2.0764,-2.0817,-2.0751,-2.0699,-2.0699,-2.0699,-2.0699,-2.0699,-2.0699,-2.0699,-2.0699,-2.0699,-2.0699,-2.0649,-2.0625,-2.0668,-2.0823,-2.0921,-2.0752,-2.0532,-2.0391,-2.0037,-1.9145,-1.843,-1.7928,-1.7476,-1.6886,-1.6547,-1.6479,-1.6436,-1.6273,-1.5736,-1.4898,-1.4334,-1.3804,-1.2596,-1.1905,-1.1942,-1.1368,-1.1244,-1.1105,-1.118,-1.0878,-1.0812,-1.0802,-1.0657,-0.9707,-1.005,-0.9363,-0.8683,-0.8634,-0.9156,-0.8228,-0.7174,-0.5681,-0.3671,-0.0388,0.3243,0.5479,1.179,1.601,1.771,2.0214,2.2244,2.3022,2.3225,2.2919,2.3265,2.4054,2.4182,2.375,2.4153,2.4299,2.402,2.3624,2.3499,2.3499,2.3539,2.3539,2.3517,2.3458,2.2716,2.2141,2.2078,2.1867,2.1161,2.05,2.0024,1.9345,1.8887,1.8283,1.7878,1.7489,1.7652,1.79,1.7922,1.79,1.79,1.7856,1.7811,1.7789,1.7789,1.7789,1.7789,1.7789,1.7726,1.7658,1.7612,1.7606,1.7576,1.7522,1.7448,-2.1877,-2.1328,-2.0908,-2.0923,-2.1263,-2.0922,-2.0738,-2.0699,-2.0712,-2.0699,-2.0699,-2.0699,-2.0699,-2.0699,-2.0699,-2.0699,-2.0712,-2.0662,-2.0653,-2.0759,-2.0886,-2.0845,-2.0433,-2.0608,-2.0315,-1.9572,-1.8769,-1.8179,-1.7802,-1.7087,-1.6635,-1.6547,-1.6491,-1.6366,-1.5952,-1.5101,-1.46,-1.4365,-1.3147,-1.2404,-1.2108,-1.1779,-1.1248,-1.0971,-1.1103,-1.1006,-1.0671,-1.0794,-1.0687,-1.0079,-0.9804,-0.9439,-0.9033,-0.8814,-0.8635,-0.8057,-0.7024,-0.6139,-0.5059,-0.2589,0.09,0.4648,0.9595,1.4091,1.6782,2.0284,2.2336,2.3616,2.4236,2.4525,2.4782,2.4801,2.4743,2.4527,2.4356,2.4355,2.4338,2.4097,2.3721,2.3656,2.3611,2.3562,2.3517,2.3494,2.3163,2.2805,2.2799,2.2729,2.2347,2.1603,2.0956,2.0144,1.9304,1.8642,1.8019,1.7586,1.7434,1.7811,1.79,1.7839,1.7856,1.7833,1.7811,1.7789,1.7789,1.7789,1.7789,1.7789,1.7766,1.7704,1.7698,1.7675,1.7606,1.7552,1.7505,-2.2181,-2.1485,-2.1211,-2.142,-2.1786,-2.1342,-2.1106,-2.1054,-2.0843,-2.0699,-2.0699,-2.0699,-2.0699,-2.0699,-2.0699,-2.0699,-2.0699,-2.0699,-2.0768,-2.0914,-2.1055,-2.0949,-2.046,-2.0724,-2.0341,-1.9736,-1.9007,-1.8442,-1.8141,-1.7388,-1.6823,-1.6559,-1.6534,-1.6534,-1.6416,-1.5818,-1.5156,-1.4809,-1.3969,-1.3235,-1.2787,-1.2401,-1.1804,-1.1506,-1.109,-1.1009,-1.1297,-1.0645,-1.0606,-1.0478,-1.0263,-0.9974,-0.9713,-0.9512,-0.9005,-0.8149,-0.7637,-0.6787,-0.6066,-0.4132,-0.2447,0.1205,0.6009,1.0118,1.3883,1.7594,2.1365,2.3413,2.4606,2.5187,2.5084,2.4981,2.4902,2.4818,2.4636,2.4508,2.4407,2.4302,2.4078,2.3831,2.3678,2.3607,2.3517,2.3494,2.3494,2.3471,2.3448,2.336,2.3247,2.254,2.1662,2.0477,1.9482,1.8552,1.8051,1.7794,1.7482,1.7766,1.7878,1.7816,1.7794,1.7811,1.7789,1.7789,1.7789,1.7789,1.7789,1.7789,1.7789,1.7789,1.7766,1.7721,1.7629,1.7559,1.7512,-2.2353,-2.1668,-2.1564,-2.1773,-2.2086,-2.1864,-2.1603,-2.1433,-2.1041,-2.0908,-2.0856,-2.0777,-2.0777,-2.0856,-2.0882,-2.0843,-2.0725,-2.0699,-2.0847,-2.0991,-2.1056,-2.0951,-2.0819,-2.0688,-2.0343,-1.9798,-1.9434,-1.8832,-1.8191,-1.7589,-1.7061,-1.6672,-1.6534,-1.6436,-1.6287,-1.5923,-1.5563,-1.5217,-1.4552,-1.4187,-1.3517,-1.2854,-1.2373,-1.2172,-1.1237,-1.1287,-1.1733,-1.1328,-1.0974,-1.1002,-1.0882,-1.0693,-1.0466,-1.0587,-0.988,-0.8617,-0.9223,-0.7982,-0.663,-0.5807,-0.4371,-0.107,0.2432,0.6477,1.0702,1.5321,1.9691,2.3065,2.4633,2.5207,2.5152,2.5106,2.5,2.4902,2.4874,2.4818,2.4588,2.4424,2.4319,2.4078,2.3831,2.3656,2.3589,2.3539,2.3539,2.3494,2.3471,2.3471,2.3307,2.2953,2.206,2.0723,1.9551,1.8442,1.8005,1.8061,1.785,1.7895,1.7856,1.7749,1.7749,1.7766,1.7789,1.7789,1.7789,1.7789,1.7789,1.7789,1.7789,1.7789,1.7789,1.7766,1.7658,1.7589,1.7536,-2.2578,-2.2271,-2.1734,-2.1551,-2.1734,-2.2113,-2.1982,-2.1551,-2.1433,-2.142,-2.1224,-2.0948,-2.0961,-2.1211,-2.1342,-2.1106,-2.0882,-2.0869,-2.0897,-2.0951,-2.0848,-2.0656,-2.0322,-2.0143,-2.0142,-1.985,-1.971,-1.912,-1.8392,-1.7739,-1.7092,-1.6666,-1.6473,-1.6337,-1.5983,-1.5727,-1.5417,-1.5365,-1.4367,-1.3418,-1.2891,-1.2436,-1.2191,-1.2083,-1.1993,-1.1993,-1.2034,-1.1759,-1.1709,-1.1426,-1.1459,-1.1406,-1.1271,-1.1159,-1.0521,-0.9649,-0.9059,-0.8414,-0.7036,-0.6476,-0.5419,-0.2453,0.1282,0.489,0.8894,1.4487,1.9953,2.4411,2.5029,2.5105,2.5167,2.5141,2.5091,2.5038,2.4942,2.4929,2.4814,2.4644,2.4535,2.4391,2.4116,2.3876,2.3725,2.3652,2.358,2.3539,2.3517,2.3517,2.3374,2.2985,2.2051,2.0639,1.9699,1.8663,1.8053,1.8113,1.8048,1.8005,1.79,1.7749,1.7749,1.7772,1.7749,1.7749,1.7789,1.7789,1.7789,1.7789,1.7789,1.7789,1.7789,1.7749,1.7687,1.7635,1.7559,-2.3178,-2.2604,-2.2193,-2.2178,-2.2452,-2.2439,-2.2243,-2.1982,-2.1655,-2.1328,-2.1041,-2.0843,-2.0856,-2.1132,-2.1328,-2.1381,-2.1237,-2.1433,-2.142,-2.1132,-2.1029,-2.0797,-2.0424,-2.0195,-2.0029,-1.9926,-1.9748,-1.9422,-1.8694,-1.8069,-1.746,-1.6687,-1.6486,-1.6293,-1.5832,-1.5615,-1.5639,-1.5477,-1.4847,-1.4148,-1.3751,-1.3159,-1.2672,-1.2584,-1.2348,-1.2321,-1.2443,-1.2057,-1.1861,-1.1564,-1.156,-1.1369,-1.1232,-1.1352,-1.136,-1.0498,-1.0165,-0.9257,-0.7784,-0.7181,-0.5893,-0.4407,-0.129,0.1854,0.6818,1.3201,1.85,2.1115,2.3673,2.4754,2.5049,2.5069,2.5082,2.5056,2.501,2.4936,2.4936,2.493,2.4785,2.4617,2.4442,2.4211,2.3959,2.3813,2.3743,2.3634,2.3589,2.3571,2.3382,2.3027,2.1839,2.0336,1.9587,1.8892,1.8429,1.8197,1.807,1.8027,1.8048,1.79,1.7794,1.7772,1.7772,1.7766,1.7805,1.7805,1.7822,1.7789,1.7789,1.7789,1.7789,1.7749,1.7726,1.7658,1.7582,-2.3852,-2.3098,-2.263,-2.2622,-2.3001,-2.2688,-2.2596,-2.2557,-2.2178,-2.1734,-2.1433,-2.1393,-2.1341,-2.1237,-2.1707,-2.1956,-2.176,-2.2073,-2.1904,-2.1616,-2.1328,-2.0926,-2.0552,-2.0296,-2.0131,-1.999,-1.9862,-1.9572,-1.9146,-1.8485,-1.7638,-1.6791,-1.6441,-1.6144,-1.5932,-1.5752,-1.5764,-1.5708,-1.5016,-1.4619,-1.4404,-1.3764,-1.3367,-1.3046,-1.2761,-1.2554,-1.2969,-1.2613,-1.2093,-1.1705,-1.1714,-1.1575,-1.1325,-1.1501,-1.164,-1.1071,-1.0856,-1.0111,-0.8799,-0.7873,-0.703,-0.564,-0.3604,0.0391,0.5508,1.1896,1.6841,1.8765,2.1067,2.3266,2.4664,2.4976,2.5057,2.5112,2.5129,2.4996,2.4911,2.4949,2.4962,2.4831,2.4678,2.4543,2.4301,2.4059,2.3878,2.3747,2.3682,2.3642,2.3473,2.3193,2.215,2.0782,2.025,1.9496,1.8558,1.8232,1.8108,1.8173,1.8194,1.8082,1.8012,1.789,1.7811,1.7845,1.7963,1.8238,1.8502,1.8137,1.7789,1.7789,1.7789,1.7789,1.7766,1.7658,1.7582,-2.4571,-2.3906,-2.2855,-2.2426,-2.2531,-2.2975,-2.3132,-2.3014,-2.2985,-2.2893,-2.2714,-2.2897,-2.2465,-2.24,-2.2544,-2.2675,-2.2336,-2.1799,-2.1721,-2.1459,-2.1015,-2.0781,-2.0537,-2.0347,-2.0131,-1.9978,-1.9862,-1.9773,-1.9483,-1.8696,-1.7957,-1.7314,-1.6516,-1.6021,-1.5756,-1.5668,-1.5712,-1.5534,-1.4903,-1.4455,-1.4269,-1.382,-1.3511,-1.3426,-1.3301,-1.3321,-1.3362,-1.3094,-1.2655,-1.2085,-1.2041,-1.1801,-1.1492,-1.1469,-1.1382,-1.1299,-1.1015,-1.0362,-0.9533,-0.8481,-0.713,-0.5436,-0.3368,-0.0757,0.3494,0.5954,1.0756,1.6865,1.8986,2.1437,2.3409,2.4941,2.4988,2.5109,2.5154,2.5176,2.5098,2.5072,2.5072,2.5018,2.4904,2.4775,2.4704,2.4458,2.4174,2.402,2.3899,2.386,2.3837,2.3531,2.2666,2.1696,2.12,2.023,1.8662,1.8404,1.8654,1.8733,1.8724,1.8478,1.8241,1.812,1.8427,1.8297,1.8494,1.8829,1.9067,1.8737,1.8414,1.7974,1.7789,1.7789,1.7749,1.7681,1.7606,-2.456,-2.4236,-2.3286,-2.2688,-2.24,-2.2643,-2.2721,-2.2724,-2.2724,-2.2716,-2.274,-2.2701,-2.2583,-2.2583,-2.2923,-2.3119,-2.2871,-2.2701,-2.2309,-2.1917,-2.1498,-2.1015,-2.0731,-2.0461,-2.0296,-2.0144,-1.9978,-1.9862,-1.9672,-1.8943,-1.8411,-1.7666,-1.6749,-1.5923,-1.5631,-1.5527,-1.5447,-1.5244,-1.4789,-1.4373,-1.4233,-1.3752,-1.3467,-1.3525,-1.342,-1.342,-1.3372,-1.3362,-1.2871,-1.2403,-1.2255,-1.1859,-1.136,-1.115,-1.115,-1.1091,-1.0771,-1.0466,-1.0108,-0.9065,-0.7711,-0.5912,-0.4407,-0.2574,0.0885,0.3441,0.746,1.2283,1.6601,1.9353,2.2219,2.3983,2.4818,2.5017,2.5165,2.5246,2.526,2.5216,2.5194,2.5165,2.5091,2.4993,2.4926,2.4889,2.4575,2.4301,2.4174,2.408,2.4058,2.3906,2.3097,2.2508,2.2012,2.1146,1.9647,1.9388,1.9346,1.9295,1.9299,1.9139,1.8991,1.9436,1.9624,1.9307,1.9127,1.957,1.9672,1.9403,1.8981,1.8447,1.8025,1.7772,1.7726,1.7681,1.7606,-2.4326,-2.4146,-2.3421,-2.306,-2.2884,-2.2704,-2.2656,-2.2698,-2.2872,-2.2898,-2.2897,-2.291,-2.291,-2.2988,-2.3054,-2.321,-2.3027,-2.274,-2.2413,-2.1943,-2.1407,-2.1041,-2.078,-2.0562,-2.036,-2.0246,-2.0029,-1.9914,-1.9475,-1.918,-1.8619,-1.7929,-1.7215,-1.6395,-1.5998,-1.5476,-1.5326,-1.5165,-1.4556,-1.443,-1.4419,-1.3894,-1.3658,-1.3763,-1.3658,-1.342,-1.342,-1.3372,-1.3025,-1.254,-1.2197,-1.1742,-1.12,-1.0795,-1.0804,-1.0651,-1.0438,-1.0277,-1.0064,-0.9325,-0.8094,-0.646,-0.5802,-0.427,-0.1934,0.1016,0.4336,0.8921,1.3411,1.7339,2.0153,2.2412,2.4101,2.4491,2.5077,2.5236,2.5284,2.5279,2.5302,2.5311,2.5214,2.5075,2.5038,2.4972,2.4813,2.4508,2.4301,2.4265,2.4284,2.4081,2.3619,2.3121,2.277,2.1812,2.0782,2.0784,2.0693,2.0139,2.0127,2.0079,2.01,2.0471,2.0481,2.0054,2.0045,2.0374,2.0543,2.056,1.979,1.8836,1.8504,1.8206,1.7726,1.7681,1.7612,-2.3946,-2.363,-2.3071,-2.3279,-2.3733,-2.3376,-2.3115,-2.3184,-2.3702,-2.3936,-2.389,-2.3929,-2.3929,-2.3812,-2.3433,-2.3223,-2.2962,-2.2204,-2.1668,-2.1538,-2.1171,-2.0804,-2.0688,-2.0562,-2.0461,-2.0246,-1.9978,-1.9617,-1.9198,-1.8919,-1.855,-1.8104,-1.745,-1.7051,-1.7061,-1.6325,-1.5867,-1.5538,-1.4344,-1.4378,-1.4455,-1.3941,-1.3858,-1.3905,-1.3763,-1.3515,-1.342,-1.3467,-1.317,-1.2677,-1.2374,-1.1922,-1.1375,-1.0744,-1.0651,-1.0846,-1.0498,-1.0344,-1.0293,-0.9472,-0.8402,-0.7326,-0.6651,-0.5329,-0.3471,-0.1403,0.12,0.6166,0.977,1.3458,1.7045,2.0678,2.2436,2.3875,2.4422,2.5017,2.5054,2.5336,2.5338,2.5401,2.5255,2.5107,2.5075,2.5025,2.4931,2.4734,2.4491,2.4407,2.4461,2.4317,2.3934,2.3713,2.3418,2.2937,2.2164,2.2204,2.1982,2.136,2.1068,2.1188,2.1035,2.1063,2.0975,2.072,2.1004,2.1438,2.1695,2.1878,2.0935,1.9976,1.9199,1.8733,1.8143,1.7805,1.7899,-2.3165,-2.3043,-2.2723,-2.2692,-2.2906,-2.2783,-2.2891,-2.3271,-2.3812,-2.4112,-2.4125,-2.4125,-2.4125,-2.3929,-2.3498,-2.3158,-2.2975,-2.206,-2.1498,-2.1407,-2.0948,-2.0764,-2.0649,-2.0649,-2.0549,-2.0296,-1.9978,-1.972,-1.9681,-1.8975,-1.8424,-1.7959,-1.7543,-1.7085,-1.666,-1.609,-1.5753,-1.5213,-1.4499,-1.4157,-1.4089,-1.381,-1.3716,-1.3905,-1.3716,-1.3515,-1.3409,-1.3467,-1.3276,-1.2861,-1.2618,-1.208,-1.1475,-1.0846,-1.0395,-1.0285,-0.9932,-0.988,-0.9829,-0.9361,-0.883,-0.7972,-0.7213,-0.6103,-0.43,-0.3202,-0.016,0.3592,0.7405,1.1133,1.4563,1.8237,2.0501,2.23,2.3208,2.4169,2.4592,2.5093,2.5344,2.544,2.5386,2.5216,2.5126,2.5069,2.4999,2.4931,2.47,2.4588,2.461,2.4564,2.4332,2.4226,2.4007,2.3787,2.3547,2.329,2.3159,2.2707,2.2548,2.2674,2.2446,2.1965,2.1768,2.1668,2.2084,2.2478,2.2479,2.2384,2.196,2.1198,2.0506,1.9578,1.8829,1.8625,1.8665,-2.2616,-2.2432,-2.201,-2.2074,-2.2359,-2.259,-2.2878,-2.3232,-2.3629,-2.3812,-2.3838,-2.3995,-2.4125,-2.389,-2.3328,-2.2936,-2.2805,-2.1747,-2.1198,-2.1159,-2.0908,-2.0738,-2.0699,-2.0699,-2.0612,-2.0347,-1.9914,-1.9592,-1.9226,-1.8578,-1.8112,-1.7775,-1.7589,-1.7146,-1.6616,-1.6175,-1.5785,-1.5164,-1.4537,-1.4192,-1.3994,-1.3763,-1.3716,-1.381,-1.3752,-1.3563,-1.342,-1.3372,-1.3334,-1.3074,-1.2725,-1.2246,-1.1683,-1.1082,-1.0482,-1.0079,-0.9673,-0.9673,-0.9569,-0.9361,-0.883,-0.8296,-0.7818,-0.6666,-0.5015,-0.3643,-0.1649,0.1696,0.572,0.8897,1.1981,1.5586,1.8007,1.9773,2.1909,2.2858,2.3812,2.4276,2.5247,2.5356,2.549,2.5324,2.5203,2.5122,2.5063,2.5012,2.4931,2.4842,2.4749,2.4657,2.4596,2.4493,2.4371,2.4172,2.4081,2.41,2.3989,2.3945,2.3794,2.3626,2.3407,2.2901,2.2757,2.2629,2.2792,2.2933,2.2986,2.2828,2.2529,2.2295,2.1917,2.09,1.9692,1.948,1.9573,-2.2153,-2.1792,-2.1036,-2.1367,-2.2269,-2.2737,-2.305,-2.321,-2.3276,-2.3302,-2.3276,-2.3838,-2.3916,-2.3733,-2.2831,-2.2374,-2.2204,-2.1198,-2.0922,-2.0777,-2.0738,-2.0699,-2.0649,-2.0649,-2.0498,-2.0283,-1.9914,-1.9162,-1.8447,-1.819,-1.7809,-1.7424,-1.749,-1.7037,-1.6599,-1.6319,-1.5871,-1.5269,-1.4737,-1.445,-1.4179,-1.3852,-1.3821,-1.3847,-1.38,-1.3563,-1.343,-1.3392,-1.3296,-1.318,-1.3112,-1.2686,-1.2236,-1.1733,-1.1082,-1.0438,-0.988,-0.9673,-0.9562,-0.9309,-0.9001,-0.862,-0.8296,-0.6929,-0.5291,-0.3701,-0.1877,0.011,0.3292,0.6274,0.9318,1.2162,1.4992,1.7473,2.0212,2.1462,2.2548,2.3541,2.4724,2.5233,2.5449,2.5415,2.5292,2.5224,2.5163,2.5082,2.5032,2.498,2.4861,2.4749,2.4673,2.4629,2.4526,2.4442,2.4426,2.4429,2.4357,2.4173,2.4135,2.3966,2.3826,2.3702,2.3418,2.3249,2.3305,2.3353,2.3318,2.3323,2.3293,2.3053,2.2771,2.202,2.0779,2.0587,2.0593,-2.1632,-2.1457,-2.0914,-2.0908,-2.1262,-2.176,-2.2452,-2.3197,-2.3642,-2.3655,-2.318,-2.3393,-2.3315,-2.2818,-2.21,-2.1851,-2.1498,-2.1093,-2.083,-2.0699,-2.0636,-2.0699,-2.0586,-2.0435,-2.0271,-1.9952,-1.954,-1.9056,-1.8513,-1.807,-1.7324,-1.6797,-1.6965,-1.6705,-1.6539,-1.6398,-1.5988,-1.5548,-1.5038,-1.4694,-1.4282,-1.3903,-1.3857,-1.3773,-1.3763,-1.3515,-1.343,-1.342,-1.3314,-1.3218,-1.3142,-1.2813,-1.2255,-1.1959,-1.151,-1.0498,-0.9932,-0.9614,-0.9614,-0.9517,-0.9256,-0.889,-0.8514,-0.7427,-0.5625,-0.3762,-0.222,-0.0442,0.1483,0.4499,0.6784,0.9274,1.2037,1.4775,1.7412,1.9291,2.0586,2.2571,2.382,2.5227,2.5437,2.5449,2.5331,2.5318,2.5277,2.5194,2.5122,2.5068,2.5,2.4879,2.4794,2.4734,2.4676,2.4578,2.453,2.4517,2.4464,2.4411,2.4321,2.4266,2.4154,2.4019,2.3891,2.3789,2.3714,2.3631,2.3606,2.3628,2.3671,2.3584,2.3275,2.2634,2.2069,2.1801,2.161,-2.1568,-2.1471,-2.1033,-2.0812,-2.0804,-2.1276,-2.1956,-2.2596,-2.3171,-2.3093,-2.2609,-2.2779,-2.2688,-2.2387,-2.1838,-2.1525,-2.1472,-2.1013,-2.0699,-2.0649,-2.0536,-2.0586,-2.0435,-2.022,-2.0003,-1.9683,-1.9384,-1.9028,-1.8471,-1.7754,-1.7011,-1.6477,-1.6374,-1.6374,-1.641,-1.6379,-1.6285,-1.5887,-1.5484,-1.4935,-1.4438,-1.4014,-1.3859,-1.3641,-1.3621,-1.3563,-1.3467,-1.3457,-1.3314,-1.3218,-1.3152,-1.2813,-1.2206,-1.1868,-1.1418,-1.0498,-1.019,-0.9821,-0.9666,-0.9413,-0.9309,-0.904,-0.8455,-0.7481,-0.6333,-0.4747,-0.3101,-0.1331,0.0715,0.278,0.4559,0.6508,0.9249,1.1957,1.4367,1.6784,1.9009,2.1307,2.3086,2.4818,2.5338,2.5391,2.5393,2.5383,2.5382,2.5302,2.5197,2.5126,2.5077,2.5,2.4934,2.4879,2.4813,2.4742,2.4663,2.4601,2.4551,2.4498,2.4465,2.4412,2.4394,2.4303,2.4133,2.4058,2.3985,2.3925,2.3858,2.3955,2.3996,2.3876,2.3774,2.3364,2.298,2.282,2.2668,-2.1793,-2.1759,-2.1229,-2.0898,-2.0777,-2.1211,-2.1433,-2.1498,-2.2021,-2.1995,-2.1721,-2.2086,-2.2284,-2.1957,-2.1498,-2.1342,-2.1146,-2.0781,-2.0599,-2.0662,-2.0271,-2.0258,-2.0321,-2.0156,-1.9747,-1.9527,-1.9214,-1.8762,-1.8309,-1.7655,-1.6899,-1.642,-1.6374,-1.6374,-1.6374,-1.6374,-1.6312,-1.6208,-1.5846,-1.537,-1.4645,-1.4293,-1.4107,-1.3703,-1.361,-1.361,-1.3573,-1.3488,-1.3344,-1.3228,-1.3122,-1.2793,-1.2206,-1.171,-1.1108,-1.06,-1.0352,-1.0035,-0.9666,-0.9413,-0.9309,-0.8817,-0.7953,-0.7427,-0.6499,-0.486,-0.3051,-0.2225,-0.0386,0.1047,0.2739,0.4624,0.7026,0.9509,1.1837,1.4853,1.7849,2.0354,2.2812,2.4243,2.4805,2.4919,2.5347,2.5349,2.5421,2.536,2.5306,2.5224,2.5178,2.5145,2.5063,2.4994,2.4926,2.4846,2.4723,2.4645,2.4599,2.4549,2.4551,2.45,2.4446,2.4393,2.4358,2.4229,2.4118,2.4154,2.4133,2.417,2.4151,2.4074,2.3996,2.4014,2.3855,2.3566,2.3428,-2.1793,-2.1746,-2.1229,-2.0898,-2.0725,-2.0843,-2.0922,-2.0922,-2.1053,-2.1315,-2.1498,-2.1603,-2.1485,-2.1223,-2.1041,-2.0923,-2.0832,-2.0514,-2.0461,-2.0435,-2.0207,-2.0003,-2.0055,-1.9811,-1.9396,-1.8987,-1.8721,-1.8441,-1.7941,-1.7346,-1.6909,-1.6705,-1.6534,-1.6374,-1.6374,-1.6374,-1.6363,-1.6363,-1.6187,-1.5649,-1.4883,-1.4407,-1.4107,-1.3765,-1.361,-1.361,-1.3573,-1.3573,-1.3122,-1.2764,-1.3064,-1.2735,-1.2166,-1.1968,-1.136,-1.0651,-1.0403,-1.0087,-0.9718,-0.9465,-0.9406,-0.9211,-0.8508,-0.7753,-0.6553,-0.4587,-0.3274,-0.2666,-0.1832,-0.0554,0.1,0.2901,0.4798,0.7131,0.9496,1.302,1.6571,1.9523,2.2342,2.3386,2.4049,2.4572,2.5054,2.5334,2.5428,2.5425,2.5387,2.536,2.5352,2.5322,2.5171,2.5103,2.5032,2.4926,2.4827,2.4749,2.4719,2.4676,2.4645,2.4599,2.4515,2.4445,2.4356,2.4303,2.4229,2.4228,2.4209,2.419,2.417,2.4132,2.4112,2.4092,2.4054,2.3837,2.3816,-2.1746,-2.1888,-2.1423,-2.0983,-2.0749,-2.0699,-2.0699,-2.0699,-2.0699,-2.0882,-2.1106,-2.1106,-2.0949,-2.0662,-2.0485,-2.0586,-2.0536,-2.0207,-2.0207,-2.022,-2.0105,-1.9901,-1.9708,-1.9512,-1.9081,-1.8667,-1.829,-1.7952,-1.7634,-1.7346,-1.7067,-1.6818,-1.6534,-1.6431,-1.6374,-1.6374,-1.6374,-1.6374,-1.6374,-1.5856,-1.5101,-1.4697,-1.4221,-1.3869,-1.361,-1.361,-1.361,-1.361,-1.3314,-1.2822,-1.2871,-1.2598,-1.2116,-1.176,-1.141,-1.0905,-1.0549,-1.0138,-0.9769,-0.9562,-0.951,-0.9309,-0.9008,-0.8243,-0.7859,-0.5995,-0.4155,-0.3547,-0.3487,-0.2371,-0.0445,0.151,0.3101,0.5152,0.7662,1.0681,1.4829,1.8658,2.1164,2.2986,2.3619,2.4181,2.4675,2.5215,2.5294,2.5388,2.5373,2.5399,2.5434,2.5461,2.5321,2.5224,2.5176,2.5051,2.4931,2.4898,2.4874,2.4818,2.4749,2.4645,2.4549,2.4442,2.4372,2.4338,2.4303,2.4229,2.421,2.4209,2.4209,2.417,2.4151,2.4132,2.4112,2.4074,2.3996,-2.1591,-2.2002,-2.1616,-2.1144,-2.0749,-2.0699,-2.0699,-2.0699,-2.0699,-2.0699,-2.0751,-2.0751,-2.0699,-2.0536,-2.0308,-2.0422,-2.0321,-2.0016,-1.9952,-1.9901,-1.9786,-1.9643,-1.9512,-1.9316,-1.8774,-1.8398,-1.8018,-1.7689,-1.7423,-1.7301,-1.7134,-1.6818,-1.6602,-1.6441,-1.6431,-1.6374,-1.6374,-1.6374,-1.6249,-1.5835,-1.538,-1.4966,-1.4397,-1.3941,-1.361,-1.361,-1.361,-1.3563,-1.3515,-1.2929,-1.2384,-1.2157,-1.2017,-1.171,-1.12,-1.0846,-1.0702,-1.0233,-0.9769,-0.9614,-0.9614,-0.9517,-0.9211,-0.8837,-0.8402,-0.7309,-0.5462,-0.459,-0.4529,-0.3432,-0.1505,0.0112,0.1709,0.3746,0.6319,0.8778,1.3195,1.7385,1.9736,2.1919,2.2739,2.3317,2.4223,2.4782,2.5081,2.5182,2.5342,2.5388,2.544,2.5473,2.5445,2.5387,2.5351,2.5228,2.5082,2.5032,2.5019,2.4942,2.4861,2.4704,2.458,2.4545,2.4476,2.441,2.4357,2.4302,2.4266,2.4247,2.4228,2.4209,2.419,2.417,2.4151,2.4132,2.4094,-2.1393,-2.1506,-2.1423,-2.1131,-2.0749,-2.0699,-2.0699,-2.0699,-2.0699,-2.0699,-2.0649,-2.0699,-2.0699,-2.0699,-2.0636,-2.0536,-2.0105,-1.9759,-1.9565,-1.9512,-1.9396,-1.9303,-1.921,-1.9011,-1.8464,-1.8084,-1.7755,-1.77,-1.7368,-1.7312,-1.7256,-1.7032,-1.6818,-1.6602,-1.6374,-1.6374,-1.6374,-1.6374,-1.627,-1.596,-1.5308,-1.4863,-1.4438,-1.4003,-1.361,-1.361,-1.361,-1.361,-1.3064,-1.2325,-1.1742,-1.166,-1.1619,-1.1669,-1.1158,-1.0592,-1.0498,-1.0285,-0.9873,-0.9666,-0.9614,-0.9465,-0.9159,-0.8844,-0.8521,-0.8203,-0.6617,-0.5366,-0.4867,-0.3553,-0.1898,-0.0727,0.0831,0.342,0.6038,0.8407,1.1788,1.5102,1.7885,1.9533,2.0717,2.1925,2.3472,2.4005,2.4499,2.4735,2.5171,2.5258,2.5359,2.5458,2.5525,2.5511,2.549,2.5418,2.5292,2.5209,2.5157,2.5068,2.4981,2.4847,2.4749,2.4676,2.4613,2.4518,2.4447,2.4375,2.4339,2.4303,2.4247,2.4247,2.4209,2.419,2.4208,2.4208,2.4151]},{"header":{"parameterUnit":"m.s-1","parameterCategory":1,"la1":31.0,"la2":29.5877,"lo1":-88.7671,"lo2":-86.6584,"dy":0.0162,"dx":0.0185,"nx":115,"ny":88,"refTime":"2024-04-29T18:00:00:Z","depth":0,"parameterNumber":3,"parameterNumberName":"V-component_of_WINDS"},"data":[0.0,0.0,0.0,0.0,0.0,0.0,0.0,0.0,0.0,0.0,0.0,0.0,0.0,0.0,0.0,0.0,0.0,0.0,0.0,0.0,0.0,0.0,0.0,0.0,0.0,0.0,0.0,0.0,0.0,0.0,0.0,0.0,0.0,0.0,0.0,0.0,0.0,0.0,0.0,0.0,0.0,0.0,0.0,0.0,0.0,0.0,0.0,0.0,0.0,0.0,0.0,0.0,0.0,0.0,0.0,0.0,0.0,0.0,0.0,0.0,0.0,0.0,0.0,0.0,0.0,0.0,0.0,0.0,0.0,0.0,0.0,0.0,0.0,0.0,0.0,0.0,0.0,0.0,0.0,0.0,0.0,0.0,0.0,0.0,0.0,0.0,0.0,0.0,0.0,0.0,0.0,0.0,0.0,0.0,0.0,0.0,0.0,0.0,0.0,0.0,0.0,0.0,0.0,0.0,0.0,0.0,0.0,0.0,0.0,0.0,0.0,0.0,0.0,0.0,0.0,0.0,0.0,0.0,0.0,0.0,0.0,0.0,0.0,0.0,0.0,0.0,0.0,0.0,0.0,0.0,0.0,0.0,0.0,0.0,0.0,0.0,0.0,0.0,0.0,0.0,0.0,0.0,0.0,0.0,0.0,0.0,0.0,0.0,0.0,0.0,0.0,0.0,0.0,0.0,0.0,0.0,0.0,0.0,0.0,0.0,0.0,0.0,0.0,0.0,0.0,0.0,0.0,0.0,0.0,0.0,0.0,0.0,0.0,0.0,0.0,0.0,0.0,0.0,0.0,0.0,0.0,0.0,0.0,0.0,0.0,0.0,0.0,0.0,0.0,0.0,0.0,0.0,0.0,0.0,0.0,0.0,0.0,0.0,0.0,0.0,0.0,0.0,0.0,0.0,0.0,0.0,0.0,0.0,0.0,0.0,0.0,0.0,0.0,0.0,0.0,0.0,0.0,0.0,0.0,0.0,0.0,0.0,0.0,0.0,0.0,0.0,0.0,0.0,0.0,0.0,0.0,0.0,0.0,0.0,0.0,0.0,0.0,0.0,0.0,0.0,0.0,0.0,0.0,0.0,0.0,0.0,0.0,0.0,0.0,0.0,0.0,0.0,0.0,0.0,0.0,0.0,0.0,0.0,0.0,0.0,0.0,0.0,0.0,0.0,0.0,0.0,0.0,0.0,0.0,0.0,0.0,0.0,0.0,0.0,0.0,0.0,0.0,0.0,0.0,0.0,0.0,0.0,0.0,0.0,0.0,0.0,0.0,0.0,0.0,0.0,0.0,0.0,0.0,0.0,0.0,0.0,0.0,0.0,0.0,0.0,0.0,0.0,0.0,0.0,0.0,0.0,0.0,0.0,0.0,0.0,0.0,0.0,0.0,0.0,0.0,0.0,0.0,0.0,0.0,0.0,0.0,0.0,0.0,0.0,0.0,0.0,0.0,0.0,0.0,0.0,0.0,0.0,0.0,0.0,0.0,0.0,0.0,0.0,0.0,0.0,0.0,0.0,0.0,0.0,0.0,0.0,0.0,0.0,0.0,0.0,0.0,0.0,0.0,0.0,0.0,0.0,0.0,0.0,0.0,0.0,0.0,0.0,0.0,0.0,0.0,0.0,0.0,0.0,0.0,0.0,0.0,0.0,0.0,0.0,0.0,0.0,0.0,0.0,0.0,0.0,0.0,0.0,0.0,0.0,0.0,0.0,0.0,0.0,0.0,0.0,0.0,0.0,0.0,0.0,0.0,0.0,0.0,0.0,0.0,0.0,0.0,0.0,0.0,0.0,0.0,0.0,0.0,0.0,0.0,0.0,0.0,0.0,0.0,0.0,0.0,0.0,0.0,0.0,0.0,0.0,0.0,0.0,0.0,0.0,0.0,0.0,0.0,0.0,0.0,0.0,0.0,0.0,0.0,0.0,0.0,0.0,0.0,0.0,0.0,0.0,0.0,0.0,0.0,0.0,0.0,0.0,0.0,0.0,0.0,0.0,0.0,0.0,0.0,0.0,0.0,0.0,0.0,0.0,0.0,0.0,0.0,0.0,0.0,0.0,0.0,0.0,0.0,0.0,0.0,0.0,0.0,0.0,0.0,0.0,0.0,0.0,0.0,0.0,0.0,0.0,0.0,0.0,0.0,0.0,0.0,0.0,0.0,0.0,0.0,0.0,0.0,0.0,0.0,0.0,0.0,0.0,0.0,0.0,0.0,0.0,0.0,0.0,0.0,0.0,0.0,0.0,0.0,0.0,0.0,0.0,0.0,0.0,0.0,0.0,0.0,0.0,0.0,0.0,0.0,0.0,0.0,0.0,0.0,0.0,0.0,0.0,0.0,0.0,0.0,0.0,0.0,0.0,0.0,0.0,0.0,0.0,0.0,0.0,0.0,0.0,0.0,0.0,0.0,0.0,0.0,0.0,0.0,0.0,0.0,0.0,0.0,0.0,0.0,0.0,0.0,0.0,0.0,0.0,0.0,0.0,0.0,0.0,0.0,0.0,0.0,0.0,0.0,0.0,0.0,0.0,0.0,0.0,0.0,0.0,0.0,0.0,0.0,0.0,0.0,0.0,0.0,0.0,0.0,0.0,0.0,0.0,0.0,0.0,0.0,0.0,0.0,0.0,0.0,0.0,0.0,0.0,0.0,0.0,0.0,0.0,0.0,0.0,0.0,0.0,0.0,0.0,0.0,0.0,0.0,0.0,0.0,0.0,0.0,0.0,0.0,0.0,0.0,0.0,0.0,0.0,0.0,0.0,0.0,0.0,0.0,0.0,0.0,0.0,0.0,0.0,0.0,0.0,0.0,0.0,0.0,0.0,0.0,0.0,0.0,0.0,0.0,0.0,0.0,0.0,0.0,0.0,0.0,0.0,0.0,0.0,0.0,0.0,0.0,0.0,0.0,0.0,0.0,0.0,0.0,0.0,0.0,0.0,0.0,0.0,0.0,0.0,0.0,0.0,0.0,0.0,0.0,0.0,0.0,0.0,0.0,0.0,0.0,0.0,0.0,0.0,0.0,0.0,0.0,0.0,0.0,0.0,0.0,0.0,0.0,0.0,0.0,0.0,0.0,0.0,0.0,0.0,0.0,0.0,0.0,0.0,0.0,0.0,0.0,0.0,0.0,0.0,0.0,0.0,0.0,0.0,0.0,0.0,0.0,0.0,0.0,0.0,0.0,0.0,0.0,0.0,0.0,0.0,0.0,0.0,0.0,0.0,0.0,0.0,0.0,0.0,0.0,0.0,0.0,0.0,0.0,0.0,0.0,0.0,0.0,0.0,0.0,0.0,0.0,0.0,0.0,0.0,0.0,0.0,0.0,0.0,0.0,0.0,0.0,0.0,0.0,0.0,0.0,0.0,0.0,0.0,0.0,0.0,0.0,0.0,0.0,0.0,0.0,0.0,0.0,0.0,0.0,0.0,0.0,0.0,0.0,0.0,0.0,0.0,0.0,0.0,0.0,0.0,0.0,0.0,0.0,0.0,0.0,0.0,0.0,0.0,0.0,0.0,0.0,0.0,0.0,0.0,0.0,0.0,0.0,0.0,0.0,0.0,0.0,0.0,0.0,0.0,0.0,0.0,0.0,0.0,0.0,0.0,0.0,0.0,0.0,0.0,0.0,0.0,0.0,0.0,0.0,0.0,0.0,0.0,0.0,0.0,0.0,0.0,0.0,0.0,0.0,0.0,0.0,0.0,0.0,0.0,0.0,0.0,0.0,0.0,0.0,0.0,0.0,0.0,0.0,0.0,0.0,0.0,0.0,0.0,0.0,0.0,0.0,0.0,0.0,0.0,0.0,0.0,0.0,0.0,0.0,0.0,0.0,0.0,0.0,0.0,0.0,0.0,0.0,0.0,0.0,0.0,0.0,0.0,0.0,0.0,0.0,0.0,0.0,0.0,0.0,0.0,0.0,0.0,0.0,0.0,0.0,0.0,0.0,0.0,0.0,0.0,0.0,0.0,0.0,0.0,0.0,0.0,0.0,0.0,0.0,0.0,0.0,0.0,0.0,0.0,0.0,0.0,0.0,0.0,0.0,0.0,0.0,0.0,0.0,0.0,0.0,0.0,0.0,0.0,0.0,0.0,0.0,0.0,0.0,0.0,0.0,0.0,0.0,0.0,0.0,0.0,0.0,0.0,0.0,0.0,0.0,0.0,0.0,0.0,0.0,0.0,0.0,0.0,0.0,0.0,0.0,0.0,0.0,0.0,0.0,0.0,0.0,0.0,0.0,0.0,0.0,0.0,0.0,0.0,0.0,0.0,0.0,0.0,0.0,0.0,0.3427,0.0,0.0,0.0,0.0,0.0,0.0,0.0,0.0,0.0,0.0,0.0,0.0,0.0,0.0,0.0,0.0,0.0,0.0,0.0,0.0,0.0,0.0,0.0,0.0,0.0,0.0,0.0,0.0,0.0,0.0,0.0,0.0,0.0,0.0,0.0,0.0,0.0,0.0,0.0,0.0,0.0,0.0,0.0,0.0,0.0,0.0,0.0,0.0,0.0,0.0,0.0,0.0,0.0,0.0,0.0,0.0,0.0,0.0,0.0,0.0,0.0,0.0,0.0,0.0,0.0,0.0,0.0,0.0,0.0,0.0,0.0,0.0,0.0,0.0,0.0,0.0,0.0,0.0,0.0,0.0,0.0,0.0,0.0,0.0,0.0,0.0,0.0,0.0,0.0,0.0,0.0,0.0,0.0,0.0,0.0,0.0,0.0,0.0,0.0,0.0,0.0,0.0,0.0,0.0,0.0,0.0,0.0,0.0,0.0,0.0,0.1909,0.2218,0.295,0.3345,0.3351,0.0,0.0,0.0,0.0,0.0,0.0,0.0,0.0,0.0,0.0,0.0,0.0,0.0,0.0,0.0,0.0,0.0,0.0,0.0,0.0,0.0,0.0,0.0,0.0,0.0,0.0,0.0,0.0,0.0,0.0,0.0,0.0,0.0,0.0,0.0,0.0,0.0,0.0,0.0,0.0,0.0,0.0,0.0,0.0,0.0,0.0,0.0,0.0,0.0,0.0,0.0,0.0,0.0,0.0,0.0,0.0,0.0,0.0,0.0,0.0,0.0,0.0,0.0,0.0,0.0,0.0,0.0,0.0,0.0,0.0,0.0,0.0,0.0,0.0,0.0,0.0,0.0,0.0,0.0,0.0,0.0,0.0,0.0,0.0,0.0,0.0,0.0,0.0,0.0,0.0,0.0,0.0,0.0,0.0,0.0,0.0,0.0,0.0,0.0,0.0,0.0,0.0,0.0,0.0,0.0,0.0,0.0,0.0,0.0,0.0,0.0,0.0,0.3446,0.3422,0.3468,0.0,0.0,0.0,0.0,0.0,0.0,0.0,0.0,0.0,0.0,0.0,0.0,0.0,0.0,0.0,0.0,0.0,0.0,0.0,0.0,0.0,0.0,0.0,0.0,0.0,0.0,0.0,0.0,0.0,0.0,0.0,0.0,0.0,0.0,0.0,0.0,0.0,0.0,0.0,0.0,0.0,0.0,0.0,0.0,0.0,0.0,0.0,0.0,0.0,0.0,0.0,0.0,0.0,0.0,0.0,0.0,0.0,0.0,0.0,0.0,0.0,0.0,0.0,0.0,0.0,0.0,0.0,0.0,0.0,0.0,0.0,0.0,0.0,0.0,0.0,0.0,0.0,0.0,0.0,0.0,0.0,0.0,0.0,0.0,0.0,0.0,0.0,0.0,0.0,0.0,0.0,0.0,0.0,0.0,0.0,0.0,0.0,0.0,0.0,0.0,0.0,0.0,0.0,0.0,0.0,0.0,0.0,0.0,0.0,0.0,0.3494,0.3685,0.3662,0.0,0.3933,0.0,0.0,0.0,0.0,0.0,0.0,0.0,0.0,0.0,0.0,0.0,0.0,0.0,0.0,0.0,0.0,0.0,0.0,0.0,0.0,0.0,0.0,0.0,0.0,0.0,0.0,0.0,0.0,0.0,0.0,0.0,0.0,0.0,0.0,0.0,0.0,0.0,0.0,0.0,0.0,0.0,0.0,0.0,0.0,0.0,0.0,0.0,0.0,0.0,0.0,0.0,0.0,0.0,0.0,0.0,0.0,0.0,0.0,0.0,0.0,0.0,0.0,0.0,0.0,0.0,0.0,0.0,0.0,0.0,0.0,0.0,0.0,0.0,0.0,0.0,0.0,0.0,0.0,0.0,0.0,0.0,0.0,0.0,0.0,0.0,0.0,0.0,0.0,0.0,0.0,0.0,0.0,0.0,0.0,0.0,0.0,0.0,0.0,0.0,0.0,0.0,0.0,0.0,0.0,0.0,0.0,0.0,0.0,0.0,0.0,0.3257,0.3443,0.3462,0.3546,0.0,0.0,0.0,0.0,0.0,0.0,0.0,0.0,0.0,0.0,0.0,0.0,0.0,0.0,0.0,0.0,0.0,0.0,0.0,0.0,0.0,0.0,0.0,0.0,0.0,0.0,0.0,0.0,0.0,0.0,0.0,0.0,0.0,0.0,0.0,0.0,0.0,0.0,0.0,0.0,0.0,0.0,0.0,0.0,0.0,0.0,0.0,0.0,0.0,0.0,0.0,0.0,0.0,0.0,0.0,0.0,0.0,0.0,0.0,0.0,0.0,0.0,0.0,0.0,0.0,0.0,0.0,0.0,0.0,0.0,0.0,0.0,0.0,0.0,0.0,0.0,0.0,0.0,0.0,0.0,0.0,0.0,0.0,0.0,0.0,0.0,0.0,0.0,0.0,0.0,0.0,0.0,0.0,0.0,0.0,0.0,0.0,0.0,0.0,0.0,0.0,0.0,0.0,0.0,0.0,0.0,0.0,0.0,0.0,0.0,0.3219,0.3186,0.3368,0.3309,0.338,0.3591,0.0,0.0,0.0,0.0,0.0,0.0,0.0,0.0,0.0,0.0,0.0,0.0,0.0,0.0,0.0,0.0,0.0,0.0,0.0,0.0,0.0,0.0,0.0,0.0,0.0,0.0,0.0,0.0,0.0,0.0,0.0,0.0,0.0,0.0,0.0,0.0,0.0,0.0,0.0,0.0,0.0,0.0,0.0,0.0,0.0,0.0,0.0,0.0,0.0,0.0,0.0,0.0,0.0,0.0,0.0,0.0,0.0,0.0,0.0,0.0,0.0,0.0,0.0,0.0,0.0,0.0,0.0,0.0,0.0,0.0,0.0,0.0,0.0,0.0,0.0,0.0,0.0,0.0,0.0,0.0,0.0,0.0,0.0,0.0,0.0,0.0,0.0,0.0,0.0,0.0,0.0,0.0,0.0,0.0,0.0,0.0,0.0,0.0,0.0,0.0,0.0,0.0,0.0,0.0,0.0,0.0,0.0,0.0,0.3589,0.3406,0.3378,0.3566,0.3336,0.333,0.0,0.0,0.0,0.0,0.0,0.0,0.0,0.0,0.0,0.0,0.0,0.0,0.0,0.0,0.0,0.0,0.0,0.0,0.0,0.0,0.0,0.0,0.0,0.0,0.0,0.0,0.0,0.0,0.0,0.0,0.0,0.0,0.0,0.0,0.0,0.0,0.0,0.0,0.0,0.0,0.0,0.0,0.0,0.0,0.0,0.0,0.0,0.0,0.0,0.0,0.0,0.0,0.0,0.0,0.0,0.0,0.0,0.0,0.0,0.0,0.0,0.0,0.0,0.0,0.0,0.0,0.0,0.0,0.0,0.0,0.0,0.0,0.0,0.0,0.0,0.0,0.0,0.0,0.0,0.0,0.0,0.0,0.0,0.0,0.0,0.0,0.0,0.0,0.0,0.0,0.0,0.0,0.0,0.0,0.0,0.0,0.0,0.0,0.0,0.0,0.0,0.0,0.0,0.0,0.0,0.0,0.0,0.0,0.0,0.2882,0.2795,0.2939,0.3325,0.3097,0.3225,0.0,0.0,0.0,0.0,0.0,0.0,0.0,0.0,0.0,0.0,0.0,0.0,0.0,0.0,0.0,0.0,0.0,0.0,0.0,0.0,0.0,0.0,0.0,0.0,0.0,0.0,0.0,0.0,0.0,0.0,0.0,0.0,0.0,0.0,0.0,0.0,0.0,0.0,0.0,0.0,0.0,0.0,0.0,0.0,0.0,0.0,0.0,0.0,0.0,0.0,0.0,0.0,0.0,0.0,0.0,0.0,0.0,0.0,0.0,0.0,0.0,0.0,0.0,0.0,0.0,0.0,0.0,0.0,0.0,0.0,0.0,0.0,0.0,0.0,0.0,0.0,0.0,0.0,0.0,0.0,0.0,0.0,0.0,0.0,0.0,0.0,0.0,0.0,0.0,0.0,0.0,0.0,0.0,0.0,0.0,0.0,0.0,0.0,0.0,0.0,0.0,0.0,0.0,0.0,0.0,0.0,0.0,0.0,0.0,0.2607,0.0,0.2854,0.306,0.2982,0.3141,0.0,0.0,0.0,0.0,0.0,0.0,0.0,0.0,0.0,0.0,0.0,0.0,0.0,0.0,0.0,0.0,0.0,0.0,0.0,0.0,0.0,0.0,0.0,0.0,0.0,0.0,0.0,0.0,0.0,0.0,0.0,0.0,0.0,0.0,0.0,0.0,0.0,0.0,0.0,0.0,0.0,0.0,0.0,0.0,0.0,0.0,0.0,0.0,0.0,0.0,0.0,0.0,0.0,0.0,0.0,0.0,0.0,0.0,0.0,0.0,0.0,0.0,0.0,0.0,0.0,0.0,0.0,0.0,0.0,0.0,0.0,0.0,0.0,0.0,0.0,0.0,0.0,0.0,0.0,0.0,0.0,0.0,0.0,0.0,0.0,0.0,0.0,0.0,0.0,0.0,0.0,0.0,0.0,0.0,0.0,0.0,0.0,0.0,0.0,0.0,0.0,0.0,0.0,0.0,0.0,0.0,0.0,0.0,0.2864,0.2792,0.3241,0.3294,0.2853,0.3075,0.3053,0.0,0.0,0.0,0.0,0.0,0.0,0.0,0.0,0.0,0.0,0.0,0.0,0.0,0.0,0.0,0.0,0.0,0.0,0.0,0.0,0.0,0.0,0.0,0.0,0.0,0.0,0.0,0.0,0.0,0.0,0.0,0.0,0.0,0.0,0.0,0.0,0.0,0.0,0.0,0.0,0.0,0.0,0.0,0.0,0.0,0.0,0.0,0.0,0.0,0.0,0.0,0.0,0.0,0.0,0.0,0.0,0.0,0.0,0.0,0.0,0.0,0.0,0.0,0.0,0.0,0.0,0.0,0.0,0.0,0.0,0.0,0.0,0.0,0.0,0.0,0.0,0.0,0.0,0.0,0.0,0.0,0.0,0.0,0.0,0.0,0.0,0.0,0.0,0.0,0.0,0.0,0.0,0.0,0.0,0.0,0.0,0.0,0.0,0.0,0.0,0.0,0.0,0.0,0.0,0.0,0.0,0.0,0.0,0.0,0.2037,0.3118,0.3888,0.4195,0.3337,0.3452,0.0,0.0,0.0,0.0,0.0,0.0,0.0,0.0,0.0,0.0,0.0,0.0,0.0,0.0,0.0,0.0,0.0,0.0,0.0,0.0,0.0,0.0,0.0,0.0,0.0,0.0,0.0,0.0,0.0,0.0,0.0,0.0,0.0,0.0,0.0,0.0,0.0,0.0,0.0,0.0,0.0,0.0,0.0,0.0,0.0,0.0,0.0,0.0,0.0,0.0,0.0,0.0,0.0,0.0,0.0,0.0,0.0,0.0,0.0,0.0,0.0,0.0,0.0,0.0,0.0,0.0,0.0,0.0,0.0,0.0,0.0,0.0,0.0,0.0,0.0,0.0,0.0,0.0,0.0,0.0,0.0,0.0,0.0,0.0,0.0,0.0,0.0,0.0,0.0,0.0,0.0,0.0,0.0,0.0,0.0,0.0,0.0,0.0,0.0,0.0,0.0,0.0,0.0,0.0,0.0,0.0,0.0,0.0,0.0,0.2667,0.372,0.4461,0.4753,0.3752,0.3706,0.4735,0.0,0.0,0.0,0.0,0.0,0.0,0.0,0.0,0.0,0.0,0.0,0.0,0.0,0.0,0.0,0.0,0.0,0.0,0.0,0.0,0.0,0.0,0.0,0.0,0.0,0.0,0.0,0.0,0.0,0.0,0.0,0.0,0.0,0.0,0.0,0.0,0.0,0.0,0.0,0.0,0.0,0.0,0.0,0.0,0.0,0.0,0.0,0.0,0.0,0.0,0.0,0.0,0.0,0.0,0.0,0.0,0.0,0.0,0.0,0.0,0.0,0.0,0.0,0.0,0.0,0.0,0.0,0.0,0.0,0.0,0.0,0.0,0.0,0.0,0.0,0.0,0.0,0.0,0.0,0.0,0.0,0.0,0.0,0.0,0.0,0.0,0.0,0.0,0.0,0.0,0.0,0.0,0.0,0.0,0.0,0.0,0.0,0.0,0.0,0.0,0.0,0.0,0.0,0.0,0.0,0.0,0.0,0.0,0.4365,0.5022,0.5137,0.4661,0.4326,0.3957,0.0,0.0,0.0,0.0,0.0,0.0,0.0,0.0,0.0,0.0,0.0,0.0,0.0,0.0,0.0,0.0,0.0,0.0,0.0,0.0,0.0,0.0,0.0,0.0,0.0,0.0,0.0,0.0,0.0,0.0,0.0,0.0,0.0,0.0,0.0,0.0,0.0,0.0,0.0,0.0,0.0,0.0,0.0,0.0,0.0,0.0,0.0,0.0,0.0,0.0,0.0,0.0,0.0,0.0,0.0,0.0,0.0,0.0,0.0,0.0,0.0,0.0,0.0,0.0,0.0,0.0,0.0,0.0,0.0,0.0,0.0,0.0,0.0,0.0,0.0,0.0,0.0,0.0,0.0,0.0,0.0,0.0,0.0,0.0,0.0,0.0,0.0,0.0,0.0,0.0,0.0,0.0,0.0,0.0,0.0,0.0,0.0,0.0,0.0,0.0,0.0,0.0,0.0,0.0,0.0,0.0,0.0,0.0,0.0,0.5291,0.6724,0.7062,0.6146,0.515,0.4693,0.0,0.0,0.0,0.0,0.0,0.0,0.0,0.0,0.0,0.0,0.0,0.0,0.0,0.0,0.0,0.0,0.0,0.0,0.0,0.0,0.0,0.0,0.0,0.0,0.0,0.0,0.0,0.0,0.0,0.0,0.0,0.0,0.0,0.0,0.0,0.0,0.0,0.0,0.0,0.0,0.0,0.0,0.0,0.0,0.0,0.0,0.0,0.0,0.0,0.0,0.0,0.0,0.0,0.0,0.0,0.0,0.0,0.0,0.0,0.0,0.0,0.0,0.0,0.0,0.0,0.0,0.0,0.0,0.0,0.0,0.0,0.0,0.0,0.0,0.0,0.0,0.0,0.0,0.0,0.0,0.0,0.0,0.0,0.0,0.0,0.0,0.0,0.0,0.0,0.0,0.0,0.0,0.0,0.0,0.0,0.0,0.0,0.0,0.0,0.0,0.0,0.0,0.0,0.0,0.0,0.0,0.0,0.0,0.6068,0.6486,0.7892,0.825,0.7427,0.6509,0.5823,0.0,0.0,0.0,0.0,0.0,0.0,0.0,0.0,0.0,0.0,0.0,0.0,0.0,0.0,0.0,0.0,0.0,0.0,0.0,0.0,0.0,0.0,0.0,0.0,0.0,0.0,0.0,0.0,0.0,0.0,0.0,0.0,0.0,0.0,0.0,0.0,0.0,0.0,0.0,0.0,0.0,0.0,0.0,0.0,0.0,0.0,0.0,0.0,0.0,0.0,0.0,0.0,0.0,0.0,0.0,0.0,0.0,0.0,0.0,0.0,0.0,0.0,0.0,0.0,0.0,0.0,0.0,0.0,0.0,0.0,0.0,0.0,0.0,0.0,0.0,0.0,0.0,0.0,0.0,0.0,0.0,0.0,0.0,0.0,0.0,0.0,0.0,0.0,0.0,0.0,0.0,0.0,0.0,0.0,0.0,0.0,0.0,0.0,0.0,0.0,0.0,0.0,0.0,0.0,0.0,0.0,0.0,0.0,0.6959,0.7699,0.8651,0.8949,0.8517,0.7943,0.6972,0.0,0.0,0.0,0.0,0.0,0.0,0.0,0.0,0.0,0.0,0.0,0.0,0.0,0.0,0.0,0.0,0.0,0.0,0.0,0.0,0.0,0.0,0.0,0.0,0.0,0.0,0.0,0.0,0.0,0.0,0.0,0.0,0.0,0.0,0.0,0.0,0.0,0.0,0.0,0.0,0.0,0.0,0.0,0.0,0.0,0.0,0.0,0.0,0.0,0.0,0.0,0.0,0.0,0.0,0.0,0.0,0.0,0.0,0.0,0.0,0.0,0.0,0.0,0.0,0.0,0.0,0.0,0.0,0.0,0.0,0.0,0.0,0.0,0.0,0.0,0.0,0.0,0.0,0.0,0.0,0.0,0.0,0.0,0.0,0.0,0.0,0.0,0.0,0.0,0.0,0.0,0.0,0.0,0.0,0.0,0.0,0.0,0.0,0.0,0.0,0.0,0.0,0.0,0.0,0.0,0.0,0.0,0.0,0.6959,0.7706,0.8833,0.9359,0.9281,0.7938,0.6534,0.0,0.0,0.0,0.0,0.0,0.0,0.0,0.0,0.0,0.0,0.0,0.0,0.0,0.0,0.0,0.0,0.0,0.0,0.0,0.0,0.0,0.0,0.0,0.0,0.0,0.0,0.0,0.0,0.0,0.0,0.0,0.0,0.0,0.0,0.0,0.0,0.0,0.0,0.0,0.0,0.0,0.0,0.0,0.0,0.0,0.0,0.0,0.0,-0.2109,0.0,0.0,0.0,0.0,0.0,0.0,0.0,0.0,0.0,0.0,0.0,0.0,0.0,0.0,0.0,0.0,0.0,0.0,0.0,0.0,0.0,0.0,0.0,0.0,0.0,0.0,0.0,0.0,0.0,0.0,0.0,0.0,0.0,0.0,0.0,0.0,0.0,0.0,0.0,0.0,0.0,0.0,0.0,0.0,0.0,0.0,0.0,0.0,0.0,0.0,0.0,0.0,0.0,0.0,0.0,0.0,0.0,0.0,0.0,0.7292,0.7961,0.8763,0.9103,0.8951,0.7703,0.6505,0.0,0.0,0.0,0.0,0.0,0.0,0.0,0.0,0.0,0.0,0.0,0.0,0.0,0.0,0.0,0.0,0.0,0.0,0.0,0.0,0.0,0.0,0.0,0.0,0.0,0.0,0.0,0.0,0.0,0.0,0.0,0.0,0.0,0.0,0.0,0.0,0.0,0.0,0.0,0.0,0.0,0.0,0.0,0.0,0.0,0.0,0.0,0.0,0.0,0.0,0.0,0.0,0.0,0.0,0.0,0.0,0.0,0.0,0.0,0.0,0.0,0.0,0.0,0.0,0.0,0.0,0.0,0.0,0.0,0.0,0.0,0.0,0.0,0.0,0.0,0.0,0.0,0.0,0.0,0.0,0.0,0.0,0.0,0.0,0.0,0.0,0.0,0.0,0.0,0.0,0.0,0.0,0.0,0.0,0.0,0.0,0.0,0.0,0.0,0.0,0.0,0.0,0.0,0.0,0.0,0.0,0.0,0.6923,0.7659,0.8164,0.8493,0.8538,0.827,0.7325,0.6489,0.5787,0.0,0.0,0.0,0.0,0.0,0.0,0.0,0.0,0.0,0.0,0.0,0.0,0.0,0.0,0.0,0.0,0.0,0.0,0.0,0.0,0.0,0.0,0.0,0.0,0.0,0.0,0.0,0.0,0.0,0.0,0.0,0.0,0.0,0.0,0.0,0.0,0.0,0.0,-0.265,-0.2554,0.0,0.0,0.0,0.0,0.0,0.0,0.0,0.0,-0.2047,0.0,0.0,0.0,0.0,0.0,0.0,0.0,0.0,0.0,0.0,0.0,0.0,0.0,0.0,0.0,0.0,0.0,0.0,0.0,0.0,0.0,0.0,0.0,0.0,0.0,0.0,0.0,0.0,0.0,0.0,0.0,0.0,0.0,0.0,0.0,0.0,0.0,0.0,0.0,0.0,0.0,0.0,0.0,0.0,0.0,0.0,0.0,0.0,0.0,0.0,0.0,0.0,0.0,0.0,0.0,0.0,0.6875,0.7183,0.7395,0.7556,0.7811,0.7852,0.7634,0.6891,0.603,0.5106,0.0,0.0,0.0,0.0,0.0,0.0,0.0,0.0,0.0,0.0,0.0,0.0,0.0,0.0,0.0,0.0,0.0,0.0,0.0,0.0,0.0,0.0,0.0,0.0,0.0,0.0,0.0,0.0,0.0,0.0,0.0,0.0,0.0,0.0,0.0,0.0,0.0,0.0,0.0,-0.2023,-0.2117,0.0,0.0,0.0,0.0,0.0,0.0,0.0,0.0,-0.1968,0.0,0.0,0.0,0.0,0.0,0.0,0.0,0.0,0.0,0.0,0.0,0.0,0.0,0.0,0.0,0.0,0.0,0.0,0.0,0.0,0.0,0.0,0.0,0.0,0.0,0.0,0.0,0.0,0.0,0.0,0.0,0.0,0.0,0.0,0.0,0.0,0.0,0.0,0.0,0.0,0.0,0.0,0.0,0.0,0.0,0.0,0.0,0.0,0.0,0.0,0.0,0.0,0.0,0.0,0.0,0.6837,0.7162,0.7363,0.7387,0.7433,0.7365,0.7195,0.6372,0.5551,0.0,0.0,0.0,0.0,0.0,0.0,0.0,0.0,0.0,0.0,0.0,0.0,0.0,0.0,0.0,0.0,0.0,0.0,0.0,0.0,0.0,0.0,0.0,0.0,0.0,0.0,0.0,0.0,0.0,0.0,0.0,0.0,0.0,0.0,0.0,0.0,0.0,0.0,0.0,0.0,-0.1834,-0.2037,-0.2449,0.0,0.0,0.0,0.0,0.0,0.0,-0.1992,-0.2029,0.0,0.0,0.0,0.0,0.0,0.0,0.0,0.0,0.0,0.0,0.0,0.0,0.0,0.0,0.0,0.0,0.0,0.0,0.0,0.0,0.0,0.0,0.0,0.0,0.0,0.0,0.0,0.0,0.0,0.0,0.0,0.0,0.0,0.0,0.0,0.0,0.0,0.0,0.0,0.0,0.0,0.0,0.0,0.0,0.0,0.0,0.0,0.0,0.0,0.0,0.0,0.0,0.0,0.0,0.0,0.6611,0.697,0.7193,0.7212,0.7028,0.6872,0.6695,0.5882,0.5136,0.0,0.0,0.0,0.0,0.0,0.0,0.0,0.0,0.0,0.0,0.0,0.0,0.0,0.0,0.0,0.0,0.0,0.0,0.0,0.0,0.0,0.0,0.0,0.0,0.0,0.0,0.0,0.0,0.0,0.0,0.0,0.0,0.0,0.0,0.0,0.0,0.0,0.0,0.0,0.0,0.0,-0.221,-0.2649,-0.2436,0.0,0.0,0.0,0.0,-0.2065,-0.2026,0.0,0.0,0.0,0.0,0.0,0.0,0.0,0.0,0.0,0.0,0.0,0.0,0.0,0.0,0.0,0.0,0.0,0.0,0.0,0.0,0.0,0.0,0.0,0.0,0.0,0.0,0.0,0.0,0.0,0.0,0.0,0.0,0.0,0.0,0.0,0.0,0.0,0.0,0.0,0.0,0.0,0.0,0.0,0.0,0.0,0.0,0.0,0.0,0.0,0.0,0.0,0.0,0.0,0.0,0.0,0.0,0.6599,0.6491,0.6528,0.6682,0.651,0.6307,0.6107,0.5478,0.4861,0.0,0.0,0.0,0.0,0.0,0.0,0.0,0.0,0.0,0.0,0.0,0.0,0.0,0.0,0.0,0.0,0.0,0.0,0.0,0.0,0.0,0.0,0.0,0.0,0.0,0.0,0.0,0.0,0.0,0.0,0.0,0.0,0.0,0.0,0.0,0.0,0.0,0.0,0.0,0.0,0.0,-0.2681,-0.3065,-0.2988,-0.297,0.0,0.0,-0.2555,-0.2596,-0.2257,0.0,0.0,0.0,0.0,0.0,0.0,0.0,0.0,0.0,0.0,0.0,0.0,0.0,0.0,0.0,0.0,0.0,0.0,0.0,0.0,0.0,0.0,0.0,0.0,0.0,0.0,0.0,0.0,0.0,0.0,0.0,0.0,0.0,0.0,0.0,0.0,0.0,0.0,0.0,0.0,0.0,0.0,0.0,0.0,0.0,0.0,0.0,0.0,0.0,0.0,0.0,0.0,0.0,0.0,0.0,0.6465,0.643,0.6465,0.6478,0.643,0.6331,0.6153,0.5834,0.5277,0.4735,0.0,0.0,0.0,0.0,0.0,0.0,0.0,0.0,0.0,0.0,0.0,0.0,0.0,0.0,0.0,0.0,0.0,0.0,0.0,0.0,0.0,0.0,0.0,0.0,0.0,0.0,0.0,0.0,0.0,0.0,0.0,0.0,0.0,0.0,0.0,0.0,0.0,0.0,0.0,0.0,0.0,0.0,-0.3141,-0.2906,0.0,0.0,0.0,-0.2402,-0.235,0.0,0.0,0.0,0.0,0.0,0.0,0.0,0.0,0.0,0.0,0.0,0.0,0.0,0.0,0.0,0.0,0.0,0.0,0.0,0.0,0.0,0.0,0.0,0.0,0.0,0.0,0.0,0.0,0.0,0.0,0.0,0.0,0.0,0.0,0.0,0.0,0.0,0.0,0.0,0.0,0.0,0.0,0.0,0.0,0.0,0.0,0.0,0.0,0.0,0.0,0.0,0.0,0.0,0.0,0.0,0.0,0.0,0.6313,0.6495,0.6512,0.6313,0.6272,0.5994,0.5555,0.4985,0.0,0.0,0.0,0.0,0.0,0.0,0.0,0.0,0.0,0.0,0.0,0.0,0.0,0.0,0.0,0.0,0.0,0.0,0.0,0.0,0.0,0.0,0.0,0.0,0.0,0.0,0.0,-0.0743,0.0,0.0,0.0,0.0,0.0,0.0,0.0,0.0,0.0,0.0,0.0,0.0,0.0,0.0,-0.2903,-0.319,-0.282,-0.2575,0.0,0.0,-0.2256,-0.2197,-0.2295,-0.2324,0.0,0.0,0.0,0.0,0.0,0.0,0.0,0.0,0.0,0.0,0.0,0.0,0.0,0.0,0.0,0.0,0.0,0.0,0.0,0.0,0.0,0.0,0.0,0.0,0.0,0.0,0.0,0.0,0.0,0.0,0.0,0.0,0.0,0.0,0.0,0.0,0.0,0.0,0.0,0.0,0.0,0.0,0.0,0.0,0.0,0.0,0.0,0.0,0.0,0.0,0.0,0.0,0.0,0.0,0.0,0.6337,0.6495,0.65,0.6307,0.6117,0.5745,0.5144,0.4498,0.397,0.0,0.0,0.0,0.0,0.0,0.0,0.0,0.0,0.0,0.0,0.0,0.0,0.0,0.0,0.0,0.0,0.0,0.0,0.0,0.0,0.0,0.0,0.0,0.0,0.0,0.0,0.0,0.0,0.0,0.0,0.0,0.0,0.0,0.0,0.0,0.0,0.0,0.0,0.0,0.0,0.0,-0.3552,-0.3323,-0.3053,-0.279,0.0,0.0,-0.2222,-0.2444,-0.2486,-0.2583,-0.279,0.0,0.0,0.0,0.0,0.0,0.0,0.0,0.0,0.0,0.0,0.0,0.0,0.0,0.0,0.0,0.0,0.0,0.0,0.0,0.0,0.0,0.0,0.0,0.0,0.0,0.0,0.0,0.0,0.0,0.0,0.0,0.0,0.0,0.0,0.0,0.0,0.0,0.0,0.0,0.0,0.0,0.0,0.0,0.0,0.0,0.0,0.0,0.0,0.0,0.0,0.0,0.0,0.0,0.7192,0.6135,0.6634,0.6731,0.6313,0.6088,0.5834,0.5468,0.4585,0.4124,0.0,0.0,0.0,0.0,0.0,0.0,0.0,0.0,0.0,0.0,0.0,0.0,0.0,0.0,0.0,0.0,0.0,0.0,0.0,0.0,0.0,0.0,0.0,0.0,0.0,0.0,0.0,0.0,-0.1274,-0.1809,-0.2464,0.0,0.0,0.0,0.0,0.0,0.0,0.0,0.0,0.0,0.0,-0.3528,-0.3556,-0.3307,0.0,0.0,-0.2822,-0.2712,-0.2753,-0.2743,-0.2716,-0.2603,-0.3132,0.0,0.0,0.0,0.0,0.0,0.0,0.0,0.0,0.0,0.0,0.0,0.0,0.0,0.0,0.0,0.0,0.0,0.0,0.0,0.0,0.0,0.0,0.0,0.0,0.0,0.0,0.0,0.0,0.0,0.0,0.0,0.0,0.0,0.0,0.0,0.0,0.0,0.0,0.0,0.0,0.0,0.0,0.0,0.0,0.0,0.0,0.0,0.0,0.0,0.0,0.0,0.0,0.7338,0.6027,0.6726,0.6822,0.6224,0.607,0.5832,0.5422,0.4549,0.4215,0.0,0.0,0.0,0.0,0.0,0.0,0.0,0.0,0.0,0.0,0.0,0.0,0.0,0.0,0.0,0.0,0.0,0.0,0.0,0.0,0.0,0.0,0.0,0.0,0.0,0.0,0.0,0.0,-0.1539,-0.2227,-0.2925,0.0,0.0,0.0,0.0,0.0,0.0,0.0,0.0,0.0,0.0,-0.3505,-0.3584,-0.341,-0.3278,-0.3212,-0.3105,-0.3033,-0.3022,-0.3002,-0.2958,-0.2873,0.0,0.0,0.0,0.0,0.0,0.0,0.0,0.0,0.0,0.0,0.0,0.0,0.0,0.0,0.0,0.0,0.0,0.0,0.0,0.0,0.0,0.0,0.0,0.0,0.0,0.0,0.0,0.0,0.0,0.0,1.3824,0.0,0.0,0.0,0.0,0.0,0.0,0.0,0.0,0.0,0.0,0.0,0.0,0.0,0.0,0.0,0.0,0.0,0.0,0.0,0.0,0.0,0.0,0.7541,0.6039,0.6759,0.6759,0.604,0.6009,0.564,0.488,0.4372,0.4093,0.4022,0.0,0.0,0.0,0.0,0.0,0.0,0.0,0.0,0.0,0.0,0.0,0.0,0.0,0.0,0.0,0.0,0.0,0.0,0.0,0.0,0.0,0.0,0.0,0.0,0.0,0.0,-0.1435,-0.2089,-0.2609,0.0,0.0,0.0,0.0,0.0,0.0,0.0,0.0,0.0,0.0,-0.3705,-0.3602,-0.3344,-0.3315,-0.3212,-0.297,-0.2907,-0.301,-0.3286,-0.3253,-0.3374,0.0,0.0,0.0,0.0,0.0,0.0,0.0,0.0,0.0,0.0,0.0,0.0,0.0,0.0,0.0,0.0,0.0,0.0,0.0,0.0,0.0,0.0,0.0,0.0,0.0,0.0,0.0,1.4078,1.3418,0.0,0.0,0.0,0.0,0.0,0.0,0.0,0.0,0.0,0.0,0.0,1.3883,1.3936,0.0,0.0,0.0,0.0,0.0,0.0,0.0,0.0,0.0,0.0,0.0,0.0,0.7881,0.6453,0.7275,0.7366,0.6553,0.6404,0.6036,0.5412,0.4854,0.4456,0.4215,0.0,0.0,0.0,0.0,0.0,0.0,0.0,0.0,0.0,0.0,0.0,0.0,0.0,0.0,0.0,0.0,0.0,0.0,0.0,0.0,0.0,0.0,0.0,0.0,0.0,-0.1271,0.0,0.0,0.0,0.0,0.0,0.0,0.0,0.0,0.0,0.0,0.0,-0.3732,-0.3944,-0.3813,-0.3672,-0.3578,-0.3574,-0.3536,0.0,0.0,0.0,0.0,0.0,0.0,0.0,0.0,0.0,0.0,0.0,0.0,0.0,0.0,-0.4684,-0.4438,-0.4149,-0.399,-0.4098,0.0,0.0,0.0,0.0,0.0,0.0,0.0,0.0,0.0,0.0,0.0,0.0,0.0,0.0,0.0,0.0,1.4718,0.0,0.0,0.0,0.0,0.0,0.0,0.0,0.0,1.3584,1.3493,1.4023,1.408,1.4279,0.0,1.493,1.4839,0.0,0.0,0.0,0.0,0.0,0.0,0.0,0.0,0.8291,0.6907,0.7547,0.7547,0.6838,0.6502,0.6136,0.5701,0.5068,0.4551,0.4132,0.4178,0.4274,0.0,0.0,0.0,0.0,0.0,0.0,0.0,0.0,0.0,0.0,0.0,0.0,0.0,0.0,0.0,0.0,0.0,0.0,0.0,0.0,0.0,0.0,0.0,-0.1587,0.0,0.0,0.0,0.0,0.0,0.0,0.0,0.0,0.0,-0.3976,-0.3732,-0.3698,-0.4034,-0.3844,-0.3695,-0.3798,0.0,0.0,0.0,0.0,0.0,0.0,0.0,-0.4043,-0.4262,-0.4836,-0.5129,-0.487,-0.4884,-0.4872,-0.4867,0.0,0.0,-0.4461,-0.4404,-0.4418,-0.4452,-0.4956,-0.5301,-0.5076,-0.4966,-0.4886,0.0,0.0,0.0,0.0,0.0,0.0,0.0,0.0,1.4783,1.481,0.0,1.4859,0.0,0.0,0.0,0.0,0.0,0.0,0.0,0.0,1.437,1.4062,1.4198,1.422,1.4196,1.4238,1.508,1.5326,1.5076,1.459,0.0,0.0,0.0,0.0,0.0,0.0,0.8806,0.7474,0.7577,0.738,0.6825,0.6341,0.5932,0.5679,0.4989,0.4373,0.3877,0.4077,0.4364,0.4675,0.4503,0.0,0.0,0.0,0.0,0.0,0.0,0.0,0.0,0.0,0.0,0.0,0.0,0.0,0.0,0.0,0.0,0.0,0.0,0.0,0.0,-0.1389,0.0,0.0,0.0,0.0,0.0,0.0,0.0,0.0,0.0,0.0,-0.3441,-0.3427,-0.3639,-0.4057,0.0,0.0,0.0,0.0,-0.4217,-0.4047,-0.4367,-0.4567,-0.4418,-0.4404,-0.4466,-0.4685,0.0,0.0,-0.5579,-0.5115,-0.4943,-0.5531,-0.5002,-0.4424,-0.4406,-0.4694,-0.4962,-0.5191,-0.5222,-0.5346,-0.5484,-0.5334,-0.5221,1.5695,0.0,0.0,0.0,0.0,1.5276,1.5618,1.6119,1.6162,1.5895,1.5378,1.5484,0.0,0.0,0.0,0.0,0.0,0.0,1.5636,1.5094,1.555,1.5773,1.5826,1.588,1.589,1.5896,1.6191,1.5969,1.5262,1.5133,1.4528,1.3475,0.0,0.0,0.0,0.0,0.9157,0.7867,0.8075,0.788,0.717,0.7012,0.6426,0.5372,0.5014,0.4673,0.4394,0.4318,0.4397,0.467,0.4653,0.0,0.0,0.0,0.0,0.0,0.0,0.0,0.0,0.0,0.0,0.0,0.0,0.0,0.0,0.0,0.0,0.0,0.0,0.0,-0.1894,-0.2263,-0.2586,0.0,0.0,0.0,0.0,0.0,0.0,0.0,0.0,0.0,-0.4723,-0.404,-0.4068,0.0,0.0,-0.4702,-0.5164,-0.5251,-0.5126,-0.4792,0.0,0.0,0.0,-0.4499,-0.4523,-0.4838,-0.5051,-0.5191,-0.5168,-0.5019,-0.4981,-0.5157,-0.5022,-0.481,-0.4842,-0.4693,-0.4638,-0.4755,-0.4933,-0.5057,-0.4971,-0.5,-0.5071,1.7075,1.5735,1.5357,1.5584,1.6176,1.6345,1.6812,1.7489,1.727,1.69,1.6417,1.6237,1.5925,1.5512,1.5654,0.0,0.0,0.0,1.6441,1.5994,1.6605,1.6721,1.6474,1.6542,1.6431,1.6132,1.613,1.5878,1.5349,1.5387,1.4985,1.421,0.0,0.0,1.1196,1.1016,1.0239,0.8889,0.886,0.8476,0.768,0.7292,0.6623,0.5646,0.5468,0.5391,0.532,0.4852,0.477,0.5068,0.4711,0.452,0.0,0.0,0.0,0.0,0.0,0.0,0.0,0.0,0.0,0.0,0.0,0.0026,0.0,0.0,0.0,0.0,-0.0905,-0.1452,-0.208,-0.2489,0.0,0.0,0.0,0.0,0.0,0.0,0.0,-0.5251,-0.5468,-0.5648,-0.5691,-0.487,-0.4699,-0.5791,-0.5456,-0.5244,-0.5724,0.0,-0.577,-0.545,-0.5506,-0.5482,-0.5204,-0.4892,-0.4734,-0.5089,-0.5218,-0.5237,-0.5133,-0.534,-0.5404,-0.5135,-0.527,-0.541,-0.5072,-0.4777,-0.4671,-0.4757,-0.4909,-0.4957,-0.4909,-0.5013,-0.511,1.8704,1.8318,1.7117,1.6906,1.739,1.7717,1.8179,1.8698,1.814,1.7814,1.7657,1.7065,1.6766,1.6737,1.7015,0.0,1.7095,1.7372,1.7472,1.7501,1.7614,1.7328,1.6696,1.6852,1.6463,1.5696,1.5565,1.5487,1.5488,1.5437,1.5226,1.4843,1.4658,1.3999,1.2968,1.26,1.1742,1.0331,0.9859,0.9221,0.8343,0.7431,0.6778,0.6307,0.6314,0.6329,0.6278,0.5539,0.528,0.5565,0.4718,0.4358,0.467,0.0,0.0,0.0,0.0,0.0,0.0,0.0,0.0,0.0,0.0,0.0,0.0,0.0,0.0,0.0,-0.0953,0.0,-0.1894,-0.2371,0.0,0.0,0.0,-0.4591,-0.4596,-0.5638,-0.6163,-0.5571,0.0,0.0,-0.6343,0.0,-0.5584,-0.5694,-0.557,-0.5659,-0.5979,-0.6246,-0.6244,-0.6111,-0.6341,-0.6391,-0.5902,-0.5427,-0.5203,-0.5525,-0.5668,-0.5651,-0.5495,-0.5842,-0.5905,-0.5315,-0.5754,-0.613,-0.5376,-0.5275,-0.5111,-0.5145,-0.5062,-0.5042,-0.5174,-0.5221,-0.5262,2.0552,2.0221,1.8996,1.8594,1.878,1.8469,1.8704,1.924,1.8768,1.8234,1.771,1.7625,1.7303,1.6793,1.6853,1.6971,1.7132,1.7856,1.816,1.8221,1.9028,1.9278,1.9088,1.9319,1.9004,1.8213,1.7524,1.6892,1.6304,1.5679,1.5351,1.5241,1.5106,1.4335,1.3023,1.3,1.2441,1.1288,1.1002,1.0404,0.9432,0.8788,0.8042,0.7143,0.7311,0.6825,0.5634,0.5514,0.5246,0.4727,0.442,0.442,0.4683,0.4569,0.0,0.0,0.0,0.0,0.0,0.0,0.0,0.0,0.0,-0.0435,-0.0503,0.0,-0.0584,0.0,-0.0949,-0.1783,-0.2974,-0.3028,0.0,0.0,-0.4739,-0.536,-0.5609,-0.6337,-0.6778,-0.6636,-0.6706,-0.6822,-0.6846,-0.671,-0.6623,-0.6665,-0.6483,-0.6587,-0.7066,-0.7236,-0.7215,-0.6866,-0.6844,-0.6649,-0.6056,-0.5798,-0.5869,-0.6377,-0.6312,-0.6142,-0.6076,-0.6208,-0.624,-0.6021,-0.6155,-0.6447,-0.6894,-0.652,-0.6044,-0.5959,-0.5491,-0.4999,-0.5051,-0.5105,-0.5188,2.1507,2.1389,2.0382,2.0178,2.0482,1.9517,1.9433,1.9896,1.9606,1.9084,1.8425,1.8342,1.8133,1.7842,1.7902,1.7986,1.8116,1.8687,1.8925,1.8957,1.9578,1.969,1.9428,1.9543,1.9196,1.8479,1.8019,1.7373,1.6622,1.6169,1.5794,1.5409,1.5328,1.485,1.4009,1.3881,1.3303,1.224,1.1666,1.0984,1.0176,0.9627,0.9085,0.851,0.8402,0.8004,0.7179,0.6865,0.6342,0.554,0.5067,0.4775,0.4733,0.4621,0.4268,0.0,0.0,0.0,0.0,0.0,0.0,0.0,0.0,0.0,0.0,0.0,-0.074,0.0,-0.1767,-0.2546,-0.3341,-0.3541,-0.379,-0.4232,-0.49,-0.5486,-0.5867,-0.6513,-0.695,-0.695,-0.6985,-0.6972,-0.6972,-0.6972,-0.7081,-0.7294,-0.7261,-0.7355,-0.7623,-0.7795,-0.7889,-0.7748,-0.7739,-0.7555,-0.693,-0.6762,-0.6691,-0.6743,-0.668,-0.6543,-0.6331,-0.6677,-0.6803,-0.644,-0.6622,-0.7083,-0.7567,-0.7321,-0.6852,-0.655,-0.6386,-0.605,-0.5663,-0.5577,-0.5642,2.1903,2.2123,2.1401,2.1496,2.199,2.0563,2.0137,2.042,2.011,1.9724,1.926,1.8902,1.8932,1.9232,1.935,1.9415,1.9444,1.9604,1.9634,1.9574,1.9649,1.9393,1.8867,1.8848,1.8534,1.801,1.7954,1.7573,1.693,1.6753,1.6288,1.5573,1.5446,1.533,1.518,1.4833,1.4195,1.3196,1.2274,1.1507,1.0897,1.0357,1.0082,1.0016,0.9553,0.9352,0.9441,0.8579,0.7724,0.6934,0.5987,0.5342,0.5032,0.483,0.4361,0.0,0.3381,0.0,0.0,0.0,0.0,0.0,0.0,0.0,0.0,-0.0629,-0.1076,-0.1975,-0.2876,-0.3441,-0.3462,-0.4022,-0.4403,-0.4491,-0.4927,-0.5356,-0.583,-0.6483,-0.6872,-0.6878,-0.6976,-0.7038,-0.7088,-0.7054,-0.7177,-0.7548,-0.7795,-0.792,-0.7961,-0.8126,-0.8363,-0.8655,-0.8685,-0.8404,-0.8015,-0.7856,-0.7616,-0.7083,-0.7052,-0.6943,-0.6592,-0.7147,-0.7447,-0.6765,-0.7086,-0.7556,-0.7612,-0.7634,-0.7467,-0.6894,-0.7073,-0.7093,-0.6385,-0.6133,-0.6157,2.1915,2.267,2.194,2.1811,2.1994,2.0816,2.02,1.9925,1.8778,1.8412,1.8663,1.8538,1.9013,1.9903,1.9884,1.9993,2.0199,2.023,1.9932,1.936,1.9481,1.9425,1.9235,1.9407,1.9541,1.9516,1.8865,1.8536,1.8538,1.7195,1.6479,1.636,1.5723,1.5304,1.5114,0.0,0.0,0.0,1.3678,1.3093,1.239,1.1971,1.161,1.1336,1.0715,0.0,0.9288,0.853,0.776,0.7009,0.6288,0.0,0.0,0.0,0.0,0.0,0.0,0.0,0.0,0.0,0.0,0.0,-0.0404,-0.1439,-0.1321,-0.1621,-0.2107,-0.28,-0.3306,-0.3771,-0.4237,-0.4599,-0.5005,-0.5399,-0.5567,-0.583,-0.6313,-0.6575,-0.6751,-0.6878,-0.7111,-0.73,-0.7368,-0.7181,-0.7154,-0.7558,-0.7926,-0.8217,-0.8224,-0.845,-0.8619,-0.8685,-0.8721,-0.8626,-0.8359,-0.8412,-0.8179,-0.7731,-0.7553,-0.7503,-0.7412,-0.7503,-0.767,-0.7391,-0.733,-0.7292,-0.7237,-0.7481,-0.7481,-0.6841,-0.6824,-0.6691,-0.6129,-0.5977,-0.5979,2.2654,0.0,2.2184,2.2056,0.0,2.0988,2.0383,2.0264,1.9534,1.9304,1.9386,1.9464,1.9802,2.0359,2.0557,2.0674,2.0733,2.0515,2.0199,1.9831,1.9537,1.9616,1.9996,1.9662,1.983,2.0406,1.9631,1.9107,1.8819,1.7965,1.717,1.6458,1.6071,1.5653,1.5167,1.5234,1.5086,1.4648,1.4457,1.4053,1.3463,1.3025,1.2544,1.2067,0.0,0.0,0.0,0.0,0.0,0.0,0.0,0.0,0.0,0.0,0.0,0.4766,0.4377,0.3914,0.332,0.1465,0.0551,0.0952,-0.1255,-0.2448,-0.1888,-0.2178,-0.264,-0.3311,-0.3913,-0.4433,-0.4705,-0.5115,-0.5437,-0.5653,-0.5744,-0.5916,-0.6361,-0.6623,-0.6766,-0.6987,-0.7204,-0.7477,-0.7682,-0.7662,-0.7689,-0.8031,-0.8747,-0.9074,-0.8813,-0.8676,-0.8718,-0.9065,-0.8948,-0.8831,-0.8736,-0.8377,-0.8209,-0.796,-0.7821,-0.7726,-0.767,-0.767,-0.767,-0.7704,-0.7573,-0.7386,-0.7151,-0.7078,-0.7046,-0.6935,-0.6731,-0.6528,-0.6313,-0.629,-0.6279,2.3266,2.3372,2.2508,2.247,2.2879,2.1424,2.0891,2.099,0.0,0.0,0.0,2.0366,2.0587,2.0796,2.1153,2.1298,2.1203,2.0841,2.059,2.0427,1.9716,1.9886,2.0691,1.989,1.9963,2.0779,2.0232,1.9552,1.8877,1.8677,1.7861,1.659,1.6381,1.5964,1.524,1.5305,1.5246,1.498,1.4859,1.4612,1.4168,1.3773,1.3293,1.2713,1.2297,1.1779,1.1169,1.161,1.1294,1.0091,0.9361,0.8564,0.7624,0.6559,0.5649,0.4889,0.454,0.4038,0.3264,0.0647,-0.0675,-0.0043,-0.2228,-0.3249,-0.2457,-0.2665,-0.3093,-0.3665,-0.4526,-0.5009,-0.5135,-0.5571,-0.5897,-0.5891,-0.5891,-0.6093,-0.6494,-0.6718,-0.6949,-0.7141,-0.7517,-0.7808,-0.8112,-0.8225,-0.8423,-0.887,-0.9435,-0.9936,-0.9475,-0.9131,-0.9141,-0.9584,-0.9326,-0.9007,-0.889,-0.8312,-0.7873,-0.8019,-0.7865,-0.7685,-0.767,-0.767,-0.767,-0.767,-0.7646,-0.7412,-0.7117,-0.6702,-0.6447,-0.6885,-0.6636,-0.6358,-0.6519,-0.657,-0.644,2.2716,2.3557,2.3533,2.3439,2.3284,2.2703,2.2338,2.202,2.0454,1.9837,1.9951,1.9857,2.0425,2.144,2.1423,2.152,2.1768,2.1708,2.1308,0.0,2.0085,2.0256,2.0994,2.0445,2.0307,2.0541,2.0514,2.0136,1.9476,1.8836,1.8044,1.7179,1.6466,1.5802,1.5168,1.5179,1.5238,1.5239,1.495,1.4684,1.4441,1.4268,1.4077,1.3869,1.3699,1.3507,1.3282,1.3232,1.2846,1.2099,1.1474,1.0443,0.8849,0.8086,0.7165,0.5897,0.5318,0.4805,0.419,0.1465,-0.0937,-0.264,-0.3074,-0.3196,-0.3221,-0.3277,-0.3547,-0.4136,-0.4709,-0.5183,-0.5577,-0.6207,-0.6615,-0.6609,-0.6609,-0.6738,-0.703,-0.7198,-0.7354,-0.7446,-0.8034,-0.8567,-0.8883,-0.888,-0.9001,-0.9551,-0.9699,-0.9678,-1.014,-1.0053,-1.005,-1.0112,-0.9577,-0.8945,-0.8729,-0.8085,-0.7819,-0.777,-0.7797,-0.7719,-0.767,-0.767,-0.767,-0.767,-0.7306,-0.704,-0.7033,-0.6424,-0.6135,-0.6234,-0.6134,-0.6054,-0.6176,-0.6144,-0.602,2.2845,2.3351,2.3615,2.367,2.3606,2.3275,2.2865,2.2406,2.2095,2.2043,2.2115,2.2187,2.2236,2.2366,2.2552,2.2522,2.227,2.1993,2.147,2.0727,2.0061,1.9926,2.0215,1.9737,1.9741,2.0173,1.9791,1.9525,1.9306,1.8908,1.8323,1.7499,1.6388,1.5546,1.5035,1.5089,1.5139,1.5149,1.5023,1.5117,1.5457,1.5342,1.5407,1.5656,1.5468,1.5082,1.4542,1.4549,1.4257,1.3568,1.26,1.1434,1.0071,0.8772,0.7459,0.6105,0.5786,0.5368,0.4785,0.1893,-0.0861,-0.326,-0.3204,-0.3245,-0.3748,-0.3527,-0.3788,-0.4753,-0.5105,-0.5534,-0.6219,-0.6722,-0.7018,-0.7024,-0.7018,-0.7072,-0.7211,-0.7527,-0.7782,-0.7999,-0.8658,-0.9254,-0.9575,-0.9673,-0.9776,-1.015,-0.998,-1.0277,-1.1221,-1.1172,-1.0889,-1.0754,-1.0148,-0.9613,-0.9279,-0.8668,-0.8214,-0.8085,-0.8085,-0.7961,-0.7753,-0.7712,-0.7712,-0.7712,-0.7393,-0.7229,-0.7182,-0.6679,-0.64,-0.6372,-0.6106,-0.6033,-0.6156,-0.6086,-0.5884,2.2627,2.2677,2.2994,2.3188,2.3241,2.2968,2.2769,2.2808,2.3273,2.3885,2.4414,2.4328,2.3812,2.3202,2.3592,2.3386,2.2713,2.2306,2.1742,2.1092,2.0349,2.0114,2.021,1.9732,1.9728,2.0089,1.9536,1.9183,1.9033,1.8877,1.834,1.7397,1.6196,1.534,1.4775,1.4919,1.4967,1.4921,1.4979,1.5423,1.6268,1.6227,1.6492,1.7022,1.7034,1.6654,1.5908,1.597,1.5711,1.501,1.3907,1.255,1.0895,0.9496,0.7939,0.6276,0.5605,0.4684,0.3262,0.1307,-0.0981,-0.3364,-0.3233,-0.335,-0.4049,-0.3824,-0.4066,-0.5012,-0.5454,-0.595,-0.6545,-0.7032,-0.7237,-0.7291,-0.734,-0.7383,-0.7419,-0.7863,-0.8269,-0.8527,-0.9233,-0.9903,-1.0156,-1.032,-1.0415,-1.0568,-1.0677,-1.1242,-1.2008,-1.1904,-1.1527,-1.1291,-1.0776,-1.017,-0.999,-0.9249,-0.87,-0.8537,-0.8455,-0.8291,-0.8085,-0.7961,-0.7773,-0.7743,-0.7732,-0.7601,-0.726,-0.6936,-0.6738,-0.6712,-0.6446,-0.6314,-0.6573,-0.6454,-0.6171,2.1377,2.1362,2.1594,2.1675,2.1699,2.1288,2.2109,2.3423,2.2544,2.3541,2.5535,2.463,2.3836,2.3553,2.39,2.3723,2.308,2.2996,2.2664,2.204,2.1498,2.1653,2.2151,2.179,2.1316,2.0758,2.053,1.9841,1.8878,1.8642,1.7879,1.6669,1.5926,1.5221,1.4563,1.4596,1.4654,1.4634,1.4708,1.5242,1.6241,1.646,1.6816,1.7357,1.7943,1.8116,1.7798,1.773,1.7394,1.6781,1.6077,1.4251,1.1255,1.0605,0.9228,0.6368,0.4422,0.1816,-0.1572,-0.1346,-0.1661,-0.3325,-0.3455,-0.3615,-0.4284,-0.4335,-0.4427,-0.4958,-0.5818,-0.6331,-0.6395,-0.6993,-0.7446,-0.7559,-0.7722,-0.7821,-0.7878,-0.8375,-0.8726,-0.875,-0.9688,-1.0474,-1.0694,-1.0635,-1.0677,-1.1158,-1.151,-1.1792,-1.2083,-1.1918,-1.1667,-1.1687,-1.1287,-1.0534,-0.9856,-0.9257,-0.905,-0.8935,-0.8651,-0.857,-0.861,-0.848,-0.8218,-0.8018,-0.7888,-0.7882,-0.7556,-0.7175,-0.6745,-0.6798,-0.6802,-0.6901,-0.7082,-0.7091,-0.6916,2.0907,2.064,2.1101,2.1207,2.1192,2.1819,2.213,2.2063,2.2357,2.2896,2.3525,2.3807,2.4132,2.4426,2.4613,2.4331,2.3712,2.3696,2.3343,2.2765,2.2558,2.2248,2.1701,2.1686,2.1281,2.0558,2.009,1.9578,1.9046,1.8437,1.7509,1.6408,1.5974,1.5252,1.4208,1.4247,1.4382,1.4501,1.5047,1.5822,1.6668,1.6971,1.7683,1.8866,1.9236,1.9211,1.895,1.8779,1.8502,1.8088,1.7199,1.5163,1.204,1.1182,0.9411,0.6349,0.306,0.0132,-0.2424,-0.2284,-0.2499,-0.3442,-0.3442,-0.3704,-0.438,-0.4811,-0.5079,-0.511,-0.5903,-0.6573,-0.6995,-0.7463,-0.7727,-0.7838,-0.8157,-0.8319,-0.7931,-0.8788,-0.9336,-0.919,-1.0138,-1.0964,-1.1116,-1.1309,-1.151,-1.1719,-1.1968,-1.2033,-1.187,-1.1771,-1.1555,-1.1167,-1.0946,-1.0795,-1.034,-1.0025,-0.9692,-0.9399,-0.9231,-0.9199,-0.8975,-0.8903,-0.8667,-0.8472,-0.8502,-0.827,-0.7752,-0.7617,-0.7347,-0.7201,-0.7098,-0.7293,-0.7269,-0.7432,-0.7308,2.0767,2.0542,2.0991,2.1057,2.0976,2.1928,2.1916,2.1273,2.1781,2.209,2.2385,2.3163,2.409,2.4922,2.4846,2.451,2.4066,2.3654,2.3176,2.2673,2.2745,2.2291,2.149,2.1697,2.1615,2.1097,2.0247,1.951,1.8994,1.8417,1.7492,1.6517,1.6133,1.5349,1.4224,1.4207,1.4351,1.4535,1.5426,1.636,1.7238,1.7503,1.8359,1.9825,2.002,1.992,1.9684,1.94,1.9183,1.9033,1.8043,1.6215,1.3532,1.2058,0.9604,0.5862,0.2316,-0.0572,-0.2549,-0.2868,-0.3179,-0.3575,-0.366,-0.3899,-0.448,-0.5146,-0.5506,-0.5599,-0.6227,-0.6976,-0.7206,-0.7664,-0.7877,-0.7949,-0.8487,-0.8639,-0.8262,-0.9145,-0.9658,-0.951,-1.0395,-1.1267,-1.1427,-1.1769,-1.2026,-1.2076,-1.1938,-1.181,-1.1546,-1.1426,-1.1116,-1.0522,-1.0593,-1.062,-1.0632,-1.0419,-1.0098,-0.9913,-0.9707,-0.9469,-0.9328,-0.9328,-0.9288,-0.9235,-0.9239,-0.9128,-0.885,-0.8568,-0.8114,-0.7809,-0.7764,-0.7816,-0.7675,-0.7629,-0.7541,2.0973,2.1,2.1155,2.1196,2.1149,2.0809,2.118,2.1873,2.0489,2.1225,2.3286,2.2754,2.3288,2.4743,2.4125,2.3955,2.3819,2.2647,2.1953,2.1694,2.1644,2.1903,2.249,2.2635,2.2803,2.271,2.1589,2.018,1.8609,1.8491,1.7927,1.6893,1.6369,1.5538,1.4658,1.4692,1.4724,1.4776,1.5689,1.6725,1.7764,1.7941,1.8584,1.9678,1.9993,2.0075,1.9996,1.9627,1.9399,1.9395,1.8932,1.7609,1.5317,1.3396,0.9902,0.4961,0.2316,-0.0219,-0.2788,-0.317,-0.3404,-0.4028,-0.4196,-0.4434,-0.4726,-0.5271,-0.5724,-0.6176,-0.6896,-0.7202,-0.687,-0.7558,-0.7947,-0.7919,-0.8679,-0.8896,-0.856,-0.9228,-0.971,-0.9873,-1.0446,-1.1124,-1.1578,-1.1927,-1.2076,-1.2033,-1.1711,-1.1435,-1.1388,-1.091,-1.0502,-1.0368,-1.0262,-1.0048,-1.0117,-1.0244,-1.0303,-1.0166,-0.9913,-0.9746,-0.9903,-0.9991,-0.9991,-0.9922,-0.9755,-0.9704,-0.9918,-0.9653,-0.9019,-0.8712,-0.8699,-0.8665,-0.8079,-0.7484,-0.7432,2.138,2.1032,2.1524,2.1451,2.107,2.0947,2.1152,2.1426,2.0101,2.052,2.2061,2.1952,2.2339,2.3219,2.2709,2.3039,2.3783,2.2933,2.2455,2.2385,2.2453,2.2406,2.2278,2.2949,2.3014,2.2491,2.2005,2.0858,1.932,1.9341,1.8665,1.7395,1.7177,1.6509,1.545,1.5304,1.5378,1.5503,1.6378,1.7117,1.771,1.8383,1.8988,1.9399,1.983,1.9958,1.9782,1.9803,1.9867,1.9921,1.9463,1.8326,1.6303,1.2877,0.969,0.6709,0.3279,0.0569,-0.1058,-0.2622,-0.3439,-0.3483,-0.4056,-0.454,-0.4806,-0.5289,-0.5743,-0.6154,-0.6945,-0.7235,-0.7074,-0.7753,-0.826,-0.7945,-0.8743,-0.9148,-0.8758,-0.9174,-0.9821,-0.9925,-1.0438,-1.1074,-1.1578,-1.1968,-1.2116,-1.2089,-1.1864,-1.1677,-1.1426,-1.0872,-1.0359,-1.0322,-1.0214,-1.0059,-0.995,-1.0176,-1.0273,-1.0283,-1.0157,-1.0118,-1.0196,-1.0196,-1.0157,-1.0157,-1.003,-1.0059,-1.0204,-1.0019,-0.9479,-0.9045,-0.9081,-0.9032,-0.844,-0.803,-0.8075,2.2048,2.1728,2.2106,2.1917,2.1351,2.1435,2.1359,2.1137,2.0328,2.0651,2.1617,2.1791,2.2149,2.2519,2.1994,2.2206,2.3025,2.229,2.2034,2.2315,2.2369,2.2147,2.2033,2.2921,2.3286,2.2913,2.245,2.1321,1.9703,1.9623,1.8906,1.7634,1.7612,1.6948,1.5849,1.5869,1.603,1.6152,1.6853,1.7431,1.7786,1.8431,1.8892,1.907,1.9489,1.9709,1.962,1.9828,1.9973,2.0011,1.9732,1.876,1.678,1.3747,1.0893,0.8579,0.5458,0.254,0.0567,-0.1498,-0.2854,-0.3497,-0.4051,-0.4542,-0.497,-0.5426,-0.5747,-0.6148,-0.6812,-0.7176,-0.7195,-0.8007,-0.8481,-0.8031,-0.8803,-0.9248,-0.8873,-0.949,-0.9961,-1.0138,-1.0454,-1.0972,-1.1368,-1.1669,-1.1918,-1.2067,-1.195,-1.1702,-1.1452,-1.0826,-1.0233,-1.0132,-1.004,-0.9969,-0.998,-1.0088,-1.0283,-1.0283,-1.0283,-1.0322,-1.0322,-1.0322,-1.0322,-1.0322,-1.0342,-1.0449,-1.041,-1.0264,-0.9827,-0.9307,-0.9323,-0.9413,-0.901,-0.8698,-0.8613,2.2844,2.2743,2.2873,2.2512,2.1946,2.1902,2.1711,2.1345,2.114,2.1471,2.2258,2.2414,2.2721,2.3061,2.2173,2.1764,2.1663,2.0632,2.0466,2.1168,2.1002,2.1033,2.127,2.2283,2.3333,2.4104,2.3211,2.1568,1.9736,1.9501,1.897,1.8125,1.7764,1.7175,1.5726,1.6381,1.6507,1.647,1.7092,1.772,1.8191,1.8177,1.8336,1.868,1.9041,1.9341,1.9638,1.9628,1.9675,1.9811,1.9834,1.8867,1.7259,1.6027,1.4133,1.0545,0.8546,0.556,0.1485,-0.0131,-0.2074,-0.3777,-0.4447,-0.4778,-0.5246,-0.5658,-0.5958,-0.6163,-0.6747,-0.7083,-0.7081,-0.7904,-0.847,-0.8235,-0.871,-0.927,-0.9612,-1.0143,-1.0454,-1.0431,-1.049,-1.0624,-1.093,-1.1368,-1.1751,-1.1972,-1.1816,-1.1483,-1.1372,-1.0689,-1.0084,-0.9897,-0.9888,-0.9911,-0.998,-1.0049,-1.0166,-1.0283,-1.0283,-1.0322,-1.0322,-1.0322,-1.0322,-1.0322,-1.0371,-1.0439,-1.0643,-1.0505,-1.0343,-0.998,-0.9959,-0.9695,-0.9378,-0.9013,-0.8793,2.2642,2.2367,2.2714,2.2526,2.2033,2.2004,2.2091,2.2236,2.1495,2.1754,2.2644,2.2452,2.2492,2.2589,2.1932,2.1615,2.159,2.0333,1.9882,2.0177,2.0117,2.0137,2.0406,2.1312,2.2287,2.2912,2.2305,2.1499,2.0847,2.0911,2.0479,1.9411,1.9231,1.867,1.7483,1.7134,1.6967,1.7271,1.7392,1.767,1.8014,1.8146,1.8293,1.8487,1.8735,1.9012,1.9335,1.9471,1.9563,1.9671,1.9687,1.9484,1.8884,1.7459,1.5261,1.2487,0.9228,0.5806,0.1995,-0.0402,-0.2066,-0.3688,-0.4594,-0.5125,-0.5336,-0.5699,-0.5944,-0.6115,-0.6728,-0.7042,-0.6475,-0.7336,-0.7976,-0.7775,-0.8629,-0.9059,-0.9091,-0.9673,-1.0016,-1.0129,-1.0311,-1.0753,-1.1318,-1.1751,-1.1948,-1.1978,-1.1979,-1.193,-1.1339,-1.0637,-1.0261,-1.0302,-1.012,-0.9902,-0.9971,-1.0049,-1.0166,-1.0244,-1.0322,-1.0322,-1.0322,-1.0322,-1.0322,-1.0322,-1.0371,-1.0487,-1.069,-1.0743,-1.0559,-1.0257,-0.9932,-0.9695,-0.9509,-0.9219,-0.8931,2.2671,2.241,2.2728,2.2526,2.2062,2.2236,2.241,2.2512,2.2004,2.2193,2.2848,2.2673,2.2614,2.2596,2.2132,2.1932,2.1879,2.0917,2.0438,2.04,2.0291,2.0074,1.9933,2.0788,2.1419,2.1755,2.1616,2.1202,2.0726,2.1345,2.1156,2.0257,2.0273,1.972,1.8605,1.7867,1.7552,1.7427,1.7415,1.7532,1.771,1.7893,1.8023,1.8103,1.8391,1.8625,1.877,1.8957,1.9251,1.9489,1.9571,1.9669,1.9638,1.8535,1.6934,1.4366,1.1422,0.7981,0.4172,0.1241,-0.1418,-0.2864,-0.4249,-0.5131,-0.5439,-0.5948,-0.6226,-0.6168,-0.6732,-0.695,-0.6575,-0.6713,-0.7354,-0.7891,-0.8439,-0.8894,-0.8959,-0.9635,-1.0105,-1.0216,-1.0343,-1.0744,-1.1209,-1.1792,-1.1972,-1.1799,-1.2024,-1.2098,-1.1345,-1.0713,-1.0595,-1.0416,-1.0153,-1.0039,-1.0059,-1.0088,-1.0118,-1.0205,-1.0322,-1.0322,-1.0322,-1.0322,-1.0322,-1.0322,-1.0361,-1.039,-1.0554,-1.0756,-1.0709,-1.0314,-0.9984,-0.9767,-0.9592,-0.9201,-0.8922,2.2873,2.2859,2.2873,2.254,2.212,2.2584,2.2584,2.2251,2.2555,2.2815,2.2918,2.2965,2.3024,2.301,2.2551,2.234,2.2337,2.1779,2.1446,2.1458,2.1319,2.084,2.0143,2.0777,2.1033,2.0877,2.1116,2.0808,2.0126,2.0809,2.0936,2.0565,2.0473,2.0067,1.8967,1.8513,1.7714,1.7142,1.7232,1.7361,1.7448,1.7526,1.7555,1.7579,1.8061,1.829,1.8235,1.8475,1.8806,1.9298,1.9419,1.9413,1.9244,1.9722,1.8573,1.6028,1.4425,1.1171,0.7551,0.4048,0.092,-0.1717,-0.3212,-0.4576,-0.5336,-0.6037,-0.6411,-0.6258,-0.6618,-0.7013,-0.7028,-0.6737,-0.6943,-0.804,-0.8349,-0.8799,-0.9771,-1.0234,-1.0264,-1.0335,-1.0423,-1.0522,-1.0667,-1.1309,-1.1527,-1.1463,-1.1615,-1.1631,-1.1338,-1.0815,-1.0488,-1.0322,-1.0225,-1.0147,-1.0205,-0.9971,-1.001,-1.0235,-1.0312,-1.0283,-1.0322,-1.0322,-1.0322,-1.0322,-1.0351,-1.0341,-1.0457,-1.0659,-1.0784,-1.0627,-1.0298,-0.9969,-0.9643,-0.9305,-0.8974,2.2627,2.2309,2.27,2.2526,2.212,2.2613,2.2815,2.2656,2.2801,2.2888,2.2888,2.2947,2.2978,2.3024,2.2497,2.2275,2.2241,2.1862,2.156,2.166,2.2149,2.1573,2.0647,2.07,2.0697,2.0426,2.0354,2.0213,2.0281,2.071,2.0716,2.02,2.032,1.9991,1.928,1.8163,1.7768,1.7799,1.7295,1.724,1.7425,1.7612,1.7641,1.7532,1.7844,1.81,1.827,1.8643,1.8645,1.8461,1.9052,1.9263,1.9041,1.9209,1.8529,1.6852,1.5647,1.2992,0.8515,0.6221,0.3604,-0.0371,-0.1879,-0.3066,-0.4584,-0.5242,-0.5746,-0.6113,-0.6462,-0.6776,-0.7155,-0.6771,-0.6887,-0.7681,-0.8305,-0.8958,-0.9938,-1.0181,-1.0033,-1.0043,-1.033,-1.0482,-1.0616,-1.1032,-1.1443,-1.1306,-1.1416,-1.1482,-1.1085,-1.088,-1.0534,-1.0572,-1.0505,-1.039,-1.0244,-0.9971,-0.9961,-1.0225,-1.0312,-1.0196,-1.0244,-1.0322,-1.0322,-1.0322,-1.0322,-1.0351,-1.038,-1.0495,-1.0621,-1.0736,-1.0421,-0.999,-0.9829,-0.9553,-0.9108,2.2685,2.241,2.2743,2.2526,2.212,2.2627,2.2743,2.2584,2.2786,2.2888,2.2888,2.2888,2.2933,2.2994,2.2673,2.2556,2.2585,2.2389,2.2325,2.2396,2.2835,2.2458,2.1695,2.1321,2.0865,2.0409,2.0204,2.014,2.0213,2.0615,2.0749,2.0686,2.0528,2.0196,1.9547,1.8603,1.7704,1.7551,1.7297,1.7337,1.7264,1.7496,1.7566,1.7502,1.7641,1.7844,1.8061,1.8298,1.8364,1.846,1.8841,1.8988,1.8906,1.8955,1.8466,1.7409,1.6717,1.4536,1.1399,0.8764,0.5804,0.2782,0.0359,-0.2145,-0.3565,-0.4599,-0.5725,-0.599,-0.663,-0.7065,-0.7091,-0.6917,-0.723,-0.8067,-0.8434,-0.9042,-1.0036,-1.0319,-1.0311,-1.0244,-1.033,-1.0522,-1.0522,-1.1015,-1.1169,-1.1168,-1.1277,-1.1136,-1.0853,-1.0722,-1.0679,-1.0787,-1.0669,-1.0467,-1.0312,-1.0088,-0.9892,-1.0118,-1.0235,-1.0157,-1.0235,-1.0322,-1.0322,-1.0322,-1.0322,-1.0322,-1.039,-1.0428,-1.0505,-1.05,-1.022,-1.0113,-0.9949,-0.9767,-0.9356,2.296,2.2888,2.2888,2.2555,2.2251,2.2642,2.2642,2.2323,2.2685,2.2888,2.2888,2.2888,2.2888,2.2902,2.295,2.3053,2.3053,2.304,2.3245,2.3332,2.3551,2.3325,2.2652,2.2054,2.1479,2.0895,2.0767,2.0363,2.0167,2.055,2.0877,2.0891,2.0849,2.052,1.9716,1.9086,1.8029,1.718,1.7255,1.7353,1.7191,1.7337,1.7408,1.7361,1.7462,1.7618,1.771,1.7815,1.808,1.8895,1.8771,1.8735,1.8735,1.8883,1.8761,1.8348,1.7555,1.6638,1.534,1.1169,0.7839,0.6149,0.1943,-0.1481,-0.214,-0.3822,-0.5048,-0.5804,-0.7012,-0.7066,-0.6887,-0.7035,-0.7647,-0.8242,-0.8393,-0.9045,-0.9574,-1.0456,-1.0871,-1.0573,-1.0522,-1.0522,-1.0616,-1.088,-1.1137,-1.0836,-1.1058,-1.1122,-1.093,-1.0825,-1.0923,-1.1085,-1.0848,-1.0505,-1.0351,-1.0166,-1.001,-1.001,-1.0127,-1.0127,-1.0244,-1.0322,-1.0322,-1.0322,-1.0322,-1.0322,-1.0322,-1.0361,-1.0438,-1.0436,-1.0355,-1.0266,-1.0175,-0.9963,-0.9592,2.3383,2.2888,2.2888,2.2815,2.2714,2.283,2.2815,2.2685,2.283,2.2888,2.2888,2.2888,2.2888,2.2888,2.2933,2.2933,2.2992,2.3127,2.326,2.354,2.4104,2.3911,2.34,2.2802,2.2128,2.153,2.0946,2.0647,2.0498,2.0145,2.0038,2.0125,2.0228,1.998,1.968,1.8903,1.8419,1.8089,1.746,1.7117,1.7264,1.7313,1.7313,1.7167,1.7344,1.7618,1.7822,1.8044,1.829,1.8489,1.8589,1.8626,1.8717,1.8717,1.8743,1.8758,1.8707,1.7879,1.6251,1.4826,1.2362,0.7711,0.6085,0.4071,-0.0756,-0.1698,-0.3437,-0.5048,-0.5966,-0.6224,-0.6284,-0.733,-0.7666,-0.7797,-0.8587,-0.9348,-0.9395,-0.999,-1.0462,-1.0522,-1.0522,-1.0522,-1.0522,-1.0573,-1.0671,-1.0556,-1.0754,-1.1113,-1.1041,-1.0937,-1.1025,-1.1154,-1.104,-1.0694,-1.0505,-1.0312,-1.0088,-0.998,-1.0049,-1.0088,-1.0205,-1.0322,-1.0322,-1.0322,-1.0322,-1.0322,-1.0322,-1.0351,-1.039,-1.0436,-1.051,-1.0494,-1.0415,-1.0165,-1.0056,2.3499,2.2902,2.2888,2.2888,2.2888,2.2888,2.2888,2.2888,2.2888,2.2888,2.2888,2.2888,2.2888,2.2888,2.2888,2.2888,2.2933,2.3052,2.3392,2.3851,2.4327,2.4328,2.4119,2.3684,2.3131,2.2203,2.15,2.1081,2.0617,2.0079,1.9771,1.9726,1.9762,1.9602,1.9446,1.8877,1.8501,1.8024,1.7743,1.7349,1.7041,1.7264,1.7264,1.7117,1.7272,1.7526,1.7664,1.7653,1.7936,1.817,1.8238,1.842,1.8681,1.8553,1.8538,1.8822,1.8786,1.864,1.7747,1.6717,1.4965,1.1596,0.9541,0.5795,0.2114,0.009,-0.2321,-0.4561,-0.5717,-0.6185,-0.6663,-0.6643,-0.7086,-0.767,-0.8152,-0.8765,-0.9304,-1.0035,-1.0522,-1.0522,-1.0522,-1.0522,-1.0522,-1.0522,-1.0523,-1.054,-1.0662,-1.0917,-1.093,-1.0846,-1.0919,-1.1022,-1.1055,-1.0874,-1.0691,-1.0467,-1.0205,-1.0088,-1.0088,-1.0088,-1.0166,-1.0244,-1.0322,-1.0322,-1.0322,-1.0322,-1.0322,-1.0351,-1.039,-1.0475,-1.058,-1.0697,-1.0723,-1.0524,-1.0499,2.3659,2.3018,2.2946,2.296,2.3018,2.2946,2.2888,2.2888,2.2888,2.2888,2.2888,2.2888,2.2888,2.2888,2.2888,2.2888,2.2933,2.3007,2.3361,2.3849,2.428,2.4297,2.4253,2.4194,2.3879,2.2817,2.1964,2.1365,2.0827,2.0124,1.972,1.9726,1.9762,1.9566,1.9174,1.9069,1.8765,1.799,1.7741,1.7649,1.7055,1.7256,1.715,1.7264,1.7216,1.7408,1.7472,1.7455,1.7476,1.8065,1.7854,1.818,1.8514,1.8516,1.8263,1.8699,1.869,1.8728,1.8666,1.7769,1.6879,1.699,1.2209,0.7852,0.4912,0.1547,-0.136,-0.3595,-0.5149,-0.6518,-0.7336,-0.6954,-0.6934,-0.7488,-0.7442,-0.8013,-0.8981,-1.0028,-1.0462,-1.0462,-1.0419,-1.0419,-1.047,-1.0506,-1.0532,-1.0561,-1.0649,-1.0724,-1.0782,-1.0785,-1.0929,-1.0945,-1.0959,-1.0716,-1.0479,-1.0822,-1.0554,-1.0127,-1.0088,-1.0127,-1.0127,-1.0205,-1.0283,-1.0322,-1.0322,-1.0322,-1.0322,-1.0322,-1.039,-1.0505,-1.0582,-1.0631,-1.0718,-1.0843,-1.085,2.4297,2.3688,2.312,2.3238,2.3615,2.3134,2.2931,2.2888,2.2902,2.2888,2.2888,2.2888,2.2888,2.2888,2.2888,2.2888,2.2902,2.2947,2.3139,2.3567,2.4027,2.4192,2.403,2.4343,2.4104,2.3325,2.2368,2.1665,2.1216,2.0363,1.9824,1.972,1.9741,1.9591,1.9351,1.8984,1.8856,1.847,1.7849,1.747,1.77,1.7381,1.7404,1.7557,1.7428,1.7443,1.7673,1.7529,1.7526,1.7905,1.8057,1.8229,1.852,1.8582,1.8623,1.8753,1.9039,1.9178,1.9047,1.9339,1.8728,1.7499,1.4775,1.1462,0.8005,0.3943,0.0585,-0.2326,-0.4383,-0.5775,-0.5437,-0.6126,-0.6514,-0.686,-0.7446,-0.809,-0.8143,-0.883,-0.9947,-1.0102,-1.0205,-1.0368,-1.047,-1.0522,-1.0495,-1.0573,-1.0631,-1.078,-1.0899,-1.0948,-1.0967,-1.0994,-1.0977,-1.0601,-1.0195,-1.0777,-1.0947,-1.0283,-1.0127,-1.0196,-1.0205,-1.0244,-1.0283,-1.0322,-1.0322,-1.0322,-1.0322,-1.0322,-1.0361,-1.0428,-1.0477,-1.0515,-1.0631,-1.0756,-1.0833,2.4312,2.3862,2.3557,2.3789,2.4196,2.3702,2.3441,2.3383,2.3047,2.2888,2.2888,2.2888,2.2888,2.2888,2.2888,2.2888,2.2888,2.2888,2.3167,2.3639,2.4009,2.4205,2.3956,2.4372,2.4134,2.352,2.2652,2.1979,2.162,2.0722,2.0049,1.9735,1.9705,1.9705,1.9651,1.936,1.914,1.904,1.8454,1.805,1.8347,1.7711,1.7834,1.8236,1.792,1.7878,1.8435,1.7893,1.7916,1.824,1.8048,1.8275,1.8658,1.8871,1.888,1.8968,1.9264,1.9435,1.9386,1.9868,1.9928,1.9709,1.7575,1.4517,1.0846,0.6975,0.2908,-0.1073,-0.3568,-0.5124,-0.5332,-0.5882,-0.6209,-0.6534,-0.7122,-0.7551,-0.7871,-0.8249,-0.8883,-0.9629,-1.0051,-1.0265,-1.047,-1.0522,-1.0522,-1.0573,-1.0624,-1.0769,-1.0964,-1.0994,-1.0918,-1.066,-1.0578,-1.0443,-1.0058,-1.0429,-1.0871,-1.0361,-1.0166,-1.0235,-1.0273,-1.0283,-1.0322,-1.0322,-1.0322,-1.0322,-1.0322,-1.0322,-1.0322,-1.0322,-1.0361,-1.0438,-1.0592,-1.0708,-1.0784,2.4287,2.4065,2.3949,2.4181,2.453,2.4283,2.3992,2.3804,2.3368,2.312,2.3062,2.2975,2.2975,2.3062,2.3091,2.3047,2.2917,2.2888,2.3254,2.3622,2.38,2.3996,2.4162,2.4223,2.403,2.3595,2.3161,2.2443,2.168,2.0961,2.0333,1.9869,1.9705,1.9762,1.9758,1.9576,1.9565,1.9564,1.9311,1.8998,1.8691,1.8443,1.8605,1.9479,1.8609,1.8601,1.9336,1.8759,1.8629,1.8771,1.866,1.8521,1.9276,1.9499,1.9495,1.9467,1.9555,1.9757,2.0107,2.0421,2.1015,2.1301,1.9458,1.6656,1.3822,1.0045,0.5368,-0.0252,-0.2915,-0.4388,-0.5003,-0.5508,-0.5887,-0.6209,-0.6317,-0.6534,-0.7283,-0.7818,-0.8137,-0.8883,-0.9629,-1.0102,-1.0257,-1.0419,-1.0419,-1.0522,-1.0573,-1.0573,-1.0744,-1.0764,-1.064,-1.0219,-1.007,-1.0118,-0.998,-0.996,-1.0254,-1.0176,-1.0205,-1.0351,-1.0351,-1.0361,-1.0322,-1.0322,-1.0322,-1.0322,-1.0322,-1.0322,-1.0322,-1.0322,-1.0322,-1.0361,-1.0505,-1.0621,-1.0746,2.4531,2.4626,2.4138,2.3934,2.4138,2.4559,2.4413,2.3934,2.3804,2.3789,2.3572,2.3163,2.3178,2.3557,2.3702,2.3441,2.3091,2.3076,2.3209,2.3371,2.3358,2.345,2.3482,2.3584,2.3688,2.3551,2.349,2.2787,2.1919,2.1141,2.046,1.9951,1.9807,1.9818,2.0004,1.9684,1.9556,1.9844,1.9327,1.9074,1.9293,1.9427,1.9605,1.9717,1.9475,1.9475,1.993,1.9571,1.9487,1.979,1.9748,1.9756,2.0125,2.0877,2.0987,2.093,2.0958,2.1225,2.1495,2.169,2.1938,2.1953,2.0233,1.8909,1.6639,1.1995,0.6148,-0.0373,-0.186,-0.2916,-0.4155,-0.5058,-0.5391,-0.5723,-0.6046,-0.61,-0.6475,-0.695,-0.7326,-0.7984,-0.8778,-0.9465,-0.9888,-1.0162,-1.0375,-1.0419,-1.047,-1.047,-1.0407,-1.0414,-1.0341,-0.99,-0.9822,-0.9871,-0.9853,-0.9783,-0.9902,-0.998,-1.0127,-1.0351,-1.0351,-1.0312,-1.0351,-1.0351,-1.0322,-1.0322,-1.0322,-1.0322,-1.0322,-1.0322,-1.0322,-1.0351,-1.0418,-1.0544,-1.0708,2.4639,2.456,2.4433,2.4631,2.4936,2.4921,2.4704,2.4413,2.4051,2.3688,2.3368,2.3047,2.3062,2.347,2.3688,2.3746,2.3586,2.3804,2.3789,2.347,2.3458,2.3403,2.3289,2.3334,2.3451,2.3538,2.3535,2.3146,2.2278,2.1629,2.0993,2.0515,1.9999,1.9854,2.0174,1.9897,1.9928,2.0079,2.0065,2.0112,2.0197,2.0262,2.0478,2.0944,2.015,2.0304,2.0709,2.0166,2.0237,2.0543,2.0433,2.0406,2.0904,2.1349,2.1478,2.2258,2.2305,2.2211,2.1983,2.2433,2.2785,2.294,2.1876,2.1189,1.8989,1.367,0.8529,0.5167,0.1655,-0.0756,-0.2522,-0.3356,-0.431,-0.4984,-0.5487,-0.5987,-0.5987,-0.5928,-0.6352,-0.7117,-0.7824,-0.8514,-0.9197,-0.9621,-0.9895,-1.0154,-1.0257,-1.0249,-1.0046,-0.9834,-0.9724,-0.9537,-0.9606,-0.973,-0.9645,-0.9625,-0.9862,-0.9941,-0.9902,-1.0127,-1.0273,-1.0312,-1.0312,-1.0361,-1.0332,-1.0332,-1.0342,-1.0322,-1.0322,-1.0322,-1.0322,-1.0351,-1.039,-1.0505,-1.0669,2.4916,2.4554,2.4696,2.5125,2.5546,2.5197,2.5096,2.5052,2.4631,2.4138,2.3699,2.3656,2.3598,2.3586,2.4109,2.4384,2.4167,2.4515,2.4326,2.4007,2.3688,2.3445,2.3229,2.3246,2.3363,2.3509,2.3566,2.3325,2.2918,2.2325,2.1781,2.1109,2.0212,2.0025,2.012,2.0162,2.0177,2.0196,2.0668,2.0879,2.0957,2.0893,2.1288,2.1394,2.1133,2.0893,2.1692,2.12,2.1051,2.1447,2.1242,2.1318,2.1871,2.1977,2.2125,2.2698,2.2888,2.2843,2.2773,2.3027,2.3359,2.3493,2.3416,2.2379,1.9693,1.424,0.9969,0.87,0.5892,0.2292,-0.0431,-0.1473,-0.2634,-0.3753,-0.4601,-0.537,-0.5923,-0.576,-0.5706,-0.6249,-0.6902,-0.7503,-0.819,-0.8876,-0.9406,-0.9836,-0.9991,-1.0035,-0.9783,-0.9488,-0.9402,-0.9361,-0.9443,-0.9615,-0.9609,-0.9643,-0.9832,-0.9918,-0.9879,-0.992,-1.0087,-1.0225,-1.0283,-1.0303,-1.0371,-1.0636,-1.0844,-1.0577,-1.0322,-1.0322,-1.0322,-1.0322,-1.0361,-1.0505,-1.0669,2.5444,2.4864,2.4833,2.4907,2.5023,2.5517,2.5691,2.556,2.5639,2.5537,2.5226,2.5429,2.495,2.4878,2.5038,2.5183,2.4699,2.421,2.4123,2.3833,2.3339,2.3182,2.3111,2.3201,2.3363,2.3494,2.3566,2.3565,2.3426,2.2985,2.2076,2.0911,2.0579,2.0323,2.0258,2.0326,2.0292,2.0429,2.0893,2.123,2.1355,2.1486,2.1728,2.1803,2.1811,2.1845,2.1911,2.1685,2.1809,2.2374,2.2176,2.2194,2.2554,2.2631,2.2828,2.2912,2.3093,2.3137,2.3301,2.3621,2.388,2.3781,2.3589,2.3132,2.0881,2.0765,1.6884,1.111,0.9056,0.5945,0.2615,-0.0109,-0.0763,-0.2307,-0.3312,-0.41,-0.4765,-0.5386,-0.5386,-0.5546,-0.6036,-0.6696,-0.7025,-0.7711,-0.856,-0.8981,-0.9354,-0.9399,-0.951,-0.9328,-0.9331,-0.9321,-0.9383,-0.9487,-0.9663,-0.9734,-0.9763,-0.9908,-1.0008,-0.9929,-0.9956,-1.0096,-1.0426,-1.0457,-1.0624,-1.0981,-1.1231,-1.0982,-1.0685,-1.043,-1.0322,-1.0322,-1.0351,-1.0467,-1.0631,2.5994,2.5763,2.5524,2.5197,2.4878,2.5369,2.5456,2.5348,2.6026,2.5903,2.5255,2.5212,2.5081,2.5081,2.5458,2.5676,2.54,2.5212,2.4776,2.4341,2.3876,2.3339,2.3227,2.3127,2.3246,2.3378,2.3494,2.3566,2.3548,2.3288,2.294,2.211,2.1341,2.0845,2.0649,2.0605,2.0592,2.0695,2.1023,2.1309,2.1402,2.1691,2.1869,2.1857,2.1899,2.1899,2.1928,2.1911,2.2181,2.249,2.2571,2.2782,2.3035,2.3116,2.3116,2.3122,2.323,2.3369,2.3526,2.3926,2.4089,2.4391,2.437,2.3983,2.2522,2.2038,2.0085,1.6227,1.2854,0.9596,0.6266,0.3638,0.179,-0.0382,-0.187,-0.2709,-0.355,-0.422,-0.4783,-0.4835,-0.5391,-0.6,-0.6273,-0.6495,-0.7396,-0.819,-0.8501,-0.8764,-0.8935,-0.9117,-0.9098,-0.9151,-0.9174,-0.936,-0.9529,-0.9614,-0.9698,-0.9884,-1.0047,-1.0016,-1.0045,-1.0498,-1.0766,-1.0813,-1.0932,-1.1299,-1.1473,-1.1315,-1.1069,-1.0704,-1.0459,-1.0312,-1.039,-1.0467,-1.0631,2.5973,2.6007,2.556,2.5387,2.5415,2.555,2.5383,2.5319,2.6312,2.6341,2.5429,2.5444,2.5444,2.5531,2.5604,2.5778,2.5575,2.5255,2.4892,2.437,2.3775,2.3368,2.3078,2.3037,2.3216,2.329,2.3451,2.3523,2.3837,2.3371,2.3198,2.2948,2.2537,2.1956,2.1327,2.1106,2.1094,2.1163,2.1279,2.1294,2.1277,2.1601,2.1751,2.1708,2.1751,2.1899,2.1899,2.1928,2.2113,2.2392,2.2581,2.2798,2.3091,2.3283,2.3301,2.3371,2.3445,2.3495,2.3566,2.3826,2.419,2.4535,2.4639,2.4851,2.4572,2.3279,2.1799,2.0037,1.6635,1.3305,1.0048,0.712,0.4467,0.2197,-0.0274,-0.1378,-0.2323,-0.3104,-0.3669,-0.4122,-0.4787,-0.5559,-0.5896,-0.6168,-0.6707,-0.7551,-0.8131,-0.8296,-0.8362,-0.8528,-0.8772,-0.8875,-0.8969,-0.9147,-0.9361,-0.9308,-0.9321,-0.9768,-0.9926,-1.0066,-1.0241,-1.0714,-1.0947,-1.0832,-1.1054,-1.1586,-1.1801,-1.1811,-1.1426,-1.093,-1.0684,-1.0458,-1.039,-1.0467,-1.0582,2.5123,2.534,2.474,2.5293,2.6358,2.6076,2.5785,2.5749,2.6439,2.6701,2.6533,2.6576,2.6576,2.6445,2.6025,2.5792,2.5502,2.466,2.4065,2.392,2.3409,2.3004,2.2976,2.3037,2.3127,2.329,2.3494,2.3797,2.4135,2.4107,2.385,2.3701,2.3582,2.3148,2.2335,2.1862,2.1739,2.1784,2.1774,2.1517,2.123,2.157,2.1648,2.1617,2.1708,2.184,2.1899,2.1869,2.2027,2.2292,2.2439,2.266,2.294,2.3307,2.3371,2.3259,2.344,2.3508,2.3531,2.3894,2.4229,2.4535,2.4605,2.4805,2.5093,2.4706,2.3896,2.1862,1.9812,1.7071,1.3741,1.031,0.7671,0.4912,0.2513,0.0382,-0.0492,-0.1661,-0.2161,-0.3231,-0.434,-0.5222,-0.5559,-0.595,-0.6332,-0.6918,-0.7605,-0.7871,-0.783,-0.8019,-0.83,-0.8514,-0.8639,-0.8862,-0.9011,-0.8859,-0.8993,-0.9455,-0.9768,-0.988,-1.0203,-1.0674,-1.0803,-1.0786,-1.1168,-1.164,-1.2026,-1.2378,-1.1664,-1.1016,-1.0807,-1.0599,-1.0528,-1.0488,-1.0596,2.4733,2.4819,2.469,2.4982,2.5552,2.6208,2.6217,2.5959,2.6445,2.6779,2.6794,2.6794,2.6794,2.6576,2.6097,2.572,2.5517,2.45,2.3876,2.3775,2.3163,2.296,2.2933,2.2933,2.3023,2.3246,2.3494,2.3711,2.3769,2.4287,2.4561,2.4493,2.4481,2.4063,2.3142,2.2662,2.2708,2.2344,2.2326,2.2221,2.1591,2.1678,2.1738,2.1617,2.1738,2.184,2.1882,2.1869,2.1986,2.2164,2.2303,2.2599,2.289,2.3259,2.3486,2.3513,2.3685,2.3707,2.3728,2.3917,2.4097,2.4353,2.4548,2.4707,2.5024,2.5168,2.4413,2.3338,2.166,1.9283,1.7126,1.4377,1.1599,0.8505,0.5894,0.3451,0.1935,0.0493,-0.0608,-0.2114,-0.3342,-0.456,-0.5226,-0.5673,-0.6059,-0.6332,-0.6966,-0.7283,-0.7348,-0.7568,-0.7847,-0.8047,-0.8266,-0.854,-0.8629,-0.8592,-0.8774,-0.9232,-0.9513,-0.9566,-0.9994,-1.0477,-1.0794,-1.0862,-1.1252,-1.1639,-1.1764,-1.1777,-1.1492,-1.1094,-1.0732,-1.0686,-1.0707,-1.0591,-1.056,2.4042,2.4161,2.4125,2.4409,2.4941,2.5987,2.6203,2.5916,2.6242,2.6445,2.6474,2.6649,2.6794,2.6533,2.5908,2.5473,2.5328,2.4152,2.3543,2.3499,2.312,2.2931,2.2888,2.2888,2.2992,2.3201,2.3523,2.3767,2.4063,2.4542,2.4816,2.5035,2.5237,2.4831,2.4176,2.3981,2.3513,2.3128,2.2928,2.2384,2.1861,2.1708,2.1738,2.1678,2.1691,2.1811,2.1899,2.1928,2.1974,2.2084,2.2265,2.2554,2.2807,2.3105,2.3405,2.3602,2.3792,2.3792,2.3834,2.3917,2.4097,2.4265,2.4424,2.4662,2.493,2.5128,2.5161,2.4257,2.2729,2.1218,1.9551,1.7084,1.491,1.1764,0.8963,0.6447,0.4629,0.325,0.0606,-0.0885,-0.2623,-0.3785,-0.4842,-0.534,-0.5786,-0.6005,-0.6332,-0.6598,-0.6864,-0.7187,-0.7461,-0.7664,-0.7919,-0.8146,-0.8292,-0.8298,-0.8613,-0.9072,-0.9193,-0.9247,-0.9636,-1.0077,-1.0491,-1.0854,-1.1055,-1.1123,-1.1149,-1.1072,-1.0927,-1.0694,-1.0395,-1.0477,-1.0803,-1.0743,-1.0572,2.3243,2.3369,2.3057,2.3627,2.4733,2.5363,2.5712,2.5778,2.585,2.5879,2.585,2.6474,2.6562,2.6358,2.5357,2.4849,2.466,2.3543,2.3134,2.2975,2.2931,2.2888,2.2933,2.2933,2.3068,2.3231,2.3523,2.409,2.4592,2.4808,2.5082,2.5351,2.5329,2.5378,2.5317,2.501,2.4439,2.3967,2.3357,2.2683,2.2044,2.1744,2.1694,2.1631,2.1661,2.1811,2.1915,2.1961,2.202,2.2044,2.2039,2.2309,2.2537,2.2781,2.3105,2.3445,2.3707,2.3792,2.3816,2.3937,2.4075,2.4173,2.4265,2.4569,2.4893,2.5139,2.5262,2.5195,2.4191,2.2623,2.0929,1.9369,1.7709,1.4727,1.1787,0.9611,0.7764,0.5435,0.2435,0.022,-0.1724,-0.3121,-0.4119,-0.4732,-0.4948,-0.5618,-0.5837,-0.6055,-0.6372,-0.6864,-0.7133,-0.7354,-0.7557,-0.7824,-0.7937,-0.8055,-0.8209,-0.862,-0.8784,-0.896,-0.9325,-0.9636,-1.0061,-1.0351,-1.0559,-1.0643,-1.0626,-1.0568,-1.0493,-1.0264,-1.0079,-1.0268,-1.0587,-1.066,-1.0606,2.2498,2.2611,2.2824,2.312,2.3511,2.4167,2.4936,2.5763,2.6257,2.6271,2.5857,2.5981,2.5894,2.5342,2.4544,2.4268,2.3876,2.3426,2.3033,2.2888,2.2918,2.2888,2.2963,2.3098,2.3216,2.3465,2.3809,2.4173,2.4567,2.4871,2.5443,2.5864,2.5754,2.597,2.5961,2.5865,2.5339,2.4762,2.4067,2.3176,2.2419,2.2035,2.1856,2.1724,2.1708,2.184,2.1915,2.1899,2.194,2.1998,2.2089,2.2304,2.2571,2.273,2.296,2.344,2.3685,2.3795,2.3795,2.3855,2.3958,2.4096,2.4211,2.4484,2.486,2.517,2.5372,2.5309,2.5152,2.3698,2.2903,2.1716,2.0133,1.7764,1.5337,1.3887,1.1647,0.7937,0.4792,0.1157,-0.0777,-0.1724,-0.283,-0.3558,-0.3834,-0.4783,-0.534,-0.55,-0.5887,-0.6376,-0.6701,-0.6918,-0.7192,-0.7456,-0.7676,-0.7848,-0.7949,-0.8109,-0.8374,-0.8533,-0.8732,-0.904,-0.9532,-0.9732,-0.9762,-0.9909,-1.002,-0.9969,-0.9865,-1.0072,-1.0,-1.0196,-1.0349,-1.0457,-1.054,2.2044,2.2137,2.2555,2.2812,2.3004,2.363,2.4384,2.5096,2.5734,2.5647,2.511,2.5299,2.5197,2.4863,2.4254,2.3905,2.3847,2.3235,2.2888,2.2933,2.3008,2.2963,2.3098,2.326,2.3421,2.3666,2.3937,2.4245,2.4623,2.5121,2.5701,2.6115,2.6203,2.6203,2.6134,2.6085,2.5936,2.5425,2.4779,2.3901,2.3106,2.2427,2.2178,2.1831,2.1797,2.1811,2.1869,2.1853,2.194,2.1998,2.2106,2.2304,2.2598,2.2799,2.3028,2.344,2.3576,2.371,2.3774,2.3896,2.3937,2.4019,2.4211,2.4468,2.4709,2.5003,2.5259,2.5395,2.5205,2.4884,2.4601,2.4077,2.2468,2.0814,1.9594,1.8397,1.4785,1.0798,0.6784,0.2663,0.0829,-0.0055,-0.0942,-0.1831,-0.2724,-0.3669,-0.4443,-0.4827,-0.5273,-0.5887,-0.6159,-0.6376,-0.6707,-0.7036,-0.7306,-0.758,-0.7741,-0.7842,-0.8008,-0.8168,-0.8221,-0.8427,-0.8903,-0.8935,-0.8908,-0.9124,-0.9458,-0.9316,-0.9211,-0.9465,-0.9666,-0.9738,-0.9992,-1.04,-1.045,2.1793,2.1855,2.237,2.2706,2.2975,2.3557,2.3804,2.3876,2.4457,2.4428,2.4123,2.453,2.4641,2.4278,2.3876,2.3702,2.3589,2.3182,2.2978,2.2947,2.3216,2.3201,2.3172,2.329,2.3638,2.3794,2.4048,2.4451,2.4744,2.5214,2.5775,2.6151,2.6203,2.6203,2.6203,2.6203,2.6104,2.5938,2.5359,2.4597,2.3437,2.2874,2.2576,2.193,2.1781,2.1781,2.1827,2.1903,2.1991,2.2015,2.2056,2.2271,2.2598,2.2859,2.3157,2.3394,2.3526,2.3642,2.3774,2.3896,2.3937,2.406,2.4298,2.4484,2.4686,2.5001,2.5305,2.543,2.527,2.5252,2.5007,2.4946,2.3911,2.2677,2.1576,1.9622,1.6427,1.2351,0.8191,0.4767,0.3266,0.2235,0.0498,-0.0387,-0.1555,-0.2554,-0.35,-0.4051,-0.4553,-0.523,-0.5614,-0.5828,-0.6273,-0.6657,-0.7031,-0.73,-0.7521,-0.7681,-0.7741,-0.7901,-0.8002,-0.8162,-0.8268,-0.8461,-0.8659,-0.8732,-0.8903,-0.8857,-0.891,-0.9061,-0.9211,-0.9218,-0.9517,-1.0064,-1.0187,2.1793,2.1841,2.237,2.2706,2.2917,2.3047,2.3134,2.3134,2.3279,2.3569,2.3876,2.3992,2.3862,2.3467,2.3368,2.3238,2.3136,2.3289,2.3127,2.3098,2.3246,2.3421,2.3377,2.361,2.3952,2.4302,2.4508,2.4695,2.5036,2.5476,2.5791,2.597,2.6079,2.6203,2.6203,2.6203,2.6187,2.6187,2.5905,2.5044,2.3818,2.3056,2.2576,2.2029,2.1781,2.1781,2.1827,2.1827,2.2056,2.222,2.2068,2.2281,2.2642,2.2747,2.3035,2.3371,2.3504,2.362,2.3753,2.3876,2.3878,2.3996,2.4192,2.4403,2.4672,2.5052,2.5297,2.5368,2.5403,2.5404,2.5449,2.546,2.5271,2.4267,2.3211,2.0537,1.7849,1.3797,0.9599,0.7599,0.5996,0.4277,0.2468,0.094,-0.0277,-0.1499,-0.2668,-0.3395,-0.3732,-0.4294,-0.5007,-0.5336,-0.5837,-0.6273,-0.6652,-0.6864,-0.6972,-0.7192,-0.73,-0.7521,-0.7788,-0.7943,-0.815,-0.8368,-0.858,-0.8639,-0.8692,-0.8804,-0.8857,-0.8962,-0.9015,-0.9068,-0.9113,-0.951,-0.9562,2.1369,2.1698,2.2184,2.2601,2.2843,2.2888,2.2888,2.2888,2.2888,2.3091,2.3441,2.3441,2.3267,2.2947,2.3053,2.2963,2.3008,2.3246,2.3246,2.326,2.3334,2.3508,2.3696,2.3882,2.4204,2.4549,2.4831,2.5052,2.5301,2.5476,2.5663,2.5897,2.6079,2.6168,2.6203,2.6203,2.6203,2.6203,2.6203,2.5375,2.4166,2.352,2.2758,2.2195,2.1781,2.1781,2.1781,2.1781,2.194,2.2209,2.2181,2.2381,2.2668,2.2833,2.301,2.3253,2.3417,2.3598,2.3732,2.3816,2.3837,2.3937,2.4094,2.4284,2.4369,2.4733,2.5167,2.524,2.5209,2.5201,2.5504,2.56,2.5259,2.4503,2.3407,2.154,1.8726,1.538,1.1974,0.958,0.8075,0.6649,0.4796,0.2984,0.1713,0.0388,-0.0941,-0.1887,-0.2393,-0.3522,-0.4181,-0.4732,-0.5179,-0.5841,-0.6332,-0.6381,-0.6317,-0.6534,-0.6864,-0.73,-0.7681,-0.7824,-0.7978,-0.8203,-0.8368,-0.8461,-0.8573,-0.8692,-0.8752,-0.8857,-0.891,-0.8962,-0.9015,-0.9061,-0.9211,2.0941,2.1527,2.1996,2.2477,2.2843,2.2888,2.2888,2.2888,2.2888,2.2888,2.2946,2.2946,2.2888,2.3008,2.3157,2.3083,2.3172,2.3436,2.3465,2.3508,2.358,2.3724,2.3882,2.4067,2.4467,2.4751,2.5029,2.5262,2.547,2.553,2.5642,2.5897,2.6059,2.6184,2.6168,2.6203,2.6203,2.6203,2.6005,2.5342,2.4613,2.3951,2.304,2.2311,2.1781,2.1781,2.1781,2.1811,2.184,2.2169,2.2456,2.2624,2.2721,2.2859,2.3091,2.3259,2.3348,2.3535,2.3732,2.3795,2.3795,2.3855,2.3996,2.4115,2.4229,2.4479,2.4896,2.5071,2.5043,2.5217,2.5522,2.5605,2.5235,2.4698,2.3582,2.2572,1.9747,1.7085,1.4537,1.1901,1.0483,0.9126,0.7003,0.5155,0.3692,0.2369,0.1217,0.0388,-0.0666,-0.2397,-0.3633,-0.4021,-0.4356,-0.5018,-0.5618,-0.5837,-0.5719,-0.6046,-0.6372,-0.7025,-0.7515,-0.7563,-0.7717,-0.8049,-0.8209,-0.8309,-0.8415,-0.8527,-0.8639,-0.8752,-0.8804,-0.8857,-0.891,-0.8962,-0.9008,2.1115,2.2077,2.2184,2.2463,2.2843,2.2888,2.2888,2.2888,2.2888,2.2888,2.2933,2.2888,2.2888,2.2888,2.2918,2.3008,2.3334,2.3653,2.3839,2.3882,2.3952,2.4051,2.4151,2.4333,2.4726,2.5005,2.524,2.5278,2.5508,2.5546,2.5584,2.5733,2.5897,2.6059,2.6203,2.6203,2.6203,2.6203,2.6038,2.5541,2.4497,2.3785,2.3106,2.241,2.1781,2.1781,2.1781,2.1781,2.2068,2.2466,2.2798,2.2884,2.2927,2.2902,2.3133,2.3376,2.344,2.3513,2.3689,2.3774,2.3795,2.3876,2.4016,2.4134,2.4229,2.4338,2.4695,2.4977,2.5039,2.5279,2.5535,2.5634,2.5396,2.4725,2.3776,2.2942,2.1156,1.9157,1.7046,1.5193,1.3712,1.1474,0.8718,0.7054,0.5712,0.425,0.2479,0.1656,0.1274,-0.0722,-0.2852,-0.3132,-0.3299,-0.3685,-0.4119,-0.5014,-0.5175,-0.55,-0.5882,-0.6426,-0.6864,-0.7192,-0.7408,-0.7907,-0.8062,-0.8156,-0.8262,-0.8368,-0.8527,-0.8586,-0.8752,-0.8804,-0.8811,-0.8811,-0.891]}]]